[[{"header":{"parameterUnit":"m.s-1","parameterCategory":1,"la1":30.6,"la2":29.2853,"lo1":-89.7004,"lo2":-87.6739,"dy":0.0162,"dx":0.0183,"nx":112,"ny":82,"refTime":"2025-04-04T12:00:00:Z","depth":0,"parameterNumber":2,"parameterNumberName":"U-component_of_WINDS"},"data":[0.0,0.0,0.0,0.0,0.0,0.0,0.0,0.0,0.0,0.0,0.0,0.0,0.0,0.0,0.0,0.0,0.0,0.0,0.0,0.0,0.0,0.0,0.0,0.0,0.0,0.0,0.0,0.0,0.0,0.0,0.0,0.0,0.0,0.0,0.0,0.0,0.0,0.0,0.0,0.0,0.0,0.0,0.0,0.0,0.0,0.0,0.0,0.0,0.0,0.0,0.0,0.0,0.0,0.0,0.0,0.0,0.0,0.0,0.0,0.0,0.0,0.0,0.0,0.0,0.0,0.0,0.0,0.0,0.0,0.0,0.0,0.0,0.0,0.0,0.0,0.0,0.0,0.0,0.0,0.0,0.0,0.0,0.0,0.0,0.0,0.0,0.0,0.0,0.0,0.0,4.5101,5.1327,5.6158,5.8884,5.8884,5.6395,5.2791,4.7999,0.0,0.0,0.0,0.0,0.0,0.0,0.0,0.0,0.0,0.0,0.0,0.0,0.0,0.0,0.0,0.0,0.0,0.0,0.0,0.0,0.0,0.0,0.0,0.0,0.0,0.0,0.0,0.0,0.0,0.0,0.0,0.0,0.0,0.0,0.0,0.0,0.0,0.0,0.0,0.0,0.0,0.0,0.0,0.0,0.0,0.0,0.0,0.0,0.0,0.0,0.0,0.0,0.0,0.0,0.0,0.0,0.0,0.0,0.0,0.0,0.0,0.0,0.0,0.0,0.0,0.0,0.0,0.0,0.0,0.0,0.0,0.0,0.0,0.0,0.0,0.0,0.0,0.0,0.0,0.0,0.0,0.0,0.0,0.0,0.0,0.0,0.0,0.0,0.0,0.0,0.0,0.0,0.0,0.0,0.0,0.0,0.0,0.0,0.0,0.0,0.0,0.0,0.0,0.0,4.6448,5.5999,5.8634,5.9738,5.9738,5.6209,5.2197,4.7961,0.0,0.0,0.0,0.0,0.0,0.0,0.0,0.0,0.0,0.0,0.0,0.0,0.0,0.0,0.0,0.0,0.0,0.0,0.0,0.0,0.0,0.0,0.0,0.0,0.0,0.0,0.0,0.0,0.0,0.0,0.0,0.0,0.0,0.0,0.0,0.0,0.0,0.0,0.0,0.0,0.0,0.0,0.0,0.0,0.0,0.0,0.0,0.0,0.0,0.0,0.0,0.0,0.0,0.0,0.0,0.0,0.0,0.0,0.0,0.0,0.0,0.0,0.0,0.0,0.0,0.0,0.0,0.0,0.0,0.0,0.0,0.0,0.0,0.0,0.0,0.0,0.0,0.0,0.0,0.0,0.0,0.0,0.0,0.0,0.0,0.0,0.0,0.0,0.0,0.0,0.0,0.0,0.0,0.0,0.0,0.0,0.0,0.0,0.0,0.0,0.0,0.0,0.0,4.4982,5.009,5.7389,5.9007,5.9767,6.0174,5.6681,5.2717,4.863,4.4841,0.0,0.0,0.0,0.0,0.0,0.0,0.0,0.0,0.0,0.0,0.0,0.0,0.0,0.0,0.0,0.0,0.0,0.0,0.0,0.0,0.0,0.0,0.0,0.0,0.0,0.0,0.0,0.0,0.0,0.0,0.0,0.0,0.0,0.0,0.0,0.0,0.0,0.0,0.0,0.0,0.0,0.0,0.0,0.0,0.0,0.0,0.0,0.0,0.0,0.0,0.0,0.0,0.0,0.0,0.0,0.0,0.0,0.0,0.0,0.0,0.0,0.0,0.0,0.0,0.0,0.0,0.0,0.0,0.0,0.0,0.0,0.0,0.0,0.0,0.0,0.0,0.0,0.0,0.0,0.0,0.0,0.0,0.0,0.0,0.0,0.0,0.0,0.0,0.0,0.0,0.0,0.0,0.0,0.0,0.0,0.0,0.0,0.0,0.0,0.0,0.0,0.0,5.0304,5.3869,5.8151,5.914,5.9779,6.0591,5.6557,5.2567,4.9113,4.4321,0.0,0.0,0.0,0.0,0.0,0.0,0.0,0.0,0.0,0.0,0.0,0.0,0.0,0.0,0.0,0.0,0.0,0.0,0.0,0.0,0.0,0.0,0.0,0.0,0.0,0.0,0.0,0.0,0.0,0.0,0.0,0.0,0.0,0.0,0.0,0.0,0.0,0.0,0.0,0.0,0.0,0.0,0.0,0.0,0.0,0.0,0.0,0.0,0.0,0.0,0.0,0.0,0.0,0.0,0.0,0.0,0.0,0.0,0.0,0.0,0.0,0.0,0.0,0.0,0.0,0.0,0.0,0.0,0.0,0.0,0.0,0.0,0.0,0.0,0.0,0.0,0.0,0.0,0.0,0.0,0.0,0.0,0.0,0.0,0.0,0.0,0.0,0.0,0.0,0.0,0.0,0.0,0.0,0.0,0.0,0.0,0.0,0.0,0.0,0.0,0.0,0.0,5.1527,5.6609,5.9539,5.993,6.0298,6.11,5.4958,5.0488,4.8967,4.2203,0.0,0.0,0.0,0.0,0.0,0.0,0.0,0.0,0.0,0.0,0.0,0.0,0.0,0.0,0.0,0.0,0.0,0.0,0.0,0.0,0.0,0.0,0.0,0.0,0.0,0.0,0.0,0.0,0.0,0.0,0.0,0.0,0.0,0.0,0.0,0.0,0.0,0.0,0.0,0.0,0.0,0.0,0.0,0.0,0.0,0.0,0.0,0.0,0.0,0.0,0.0,0.0,0.0,0.0,0.0,0.0,0.0,0.0,0.0,0.0,0.0,0.0,0.0,0.0,0.0,0.0,0.0,0.0,0.0,0.0,0.0,0.0,0.0,0.0,0.0,0.0,0.0,0.0,0.0,0.0,0.0,0.0,0.0,0.0,0.0,0.0,0.0,0.0,0.0,0.0,0.0,0.0,0.0,0.0,0.0,0.0,0.0,0.0,0.0,0.0,0.0,0.0,5.0891,5.5307,5.8844,5.9437,5.9583,5.9648,5.5625,5.1482,4.763,0.0,0.0,0.0,0.0,0.0,0.0,0.0,0.0,0.0,0.0,0.0,0.0,0.0,0.0,0.0,0.0,0.0,0.0,0.0,0.0,0.0,0.0,0.0,0.0,0.0,0.0,0.0,0.0,0.0,0.0,0.0,0.0,0.0,0.0,0.0,0.0,0.0,0.0,0.0,0.0,0.0,0.0,0.0,0.0,0.0,0.0,0.0,0.0,0.0,0.0,0.0,0.0,0.0,0.0,0.0,0.0,0.0,0.0,0.0,0.0,0.0,0.0,0.0,0.0,0.0,0.0,0.0,0.0,0.0,0.0,0.0,0.0,0.0,0.0,0.0,0.0,0.0,0.0,0.0,0.0,0.0,0.0,0.0,0.0,0.0,0.0,0.0,0.0,0.0,0.0,0.0,0.0,0.0,0.0,0.0,0.0,0.0,0.0,0.0,0.0,0.0,0.0,4.5963,5.1101,5.5259,5.8606,5.9003,5.9005,5.8724,5.5285,5.1176,4.6641,0.0,0.0,0.0,0.0,0.0,0.0,0.0,0.0,0.0,0.0,0.0,0.0,0.0,0.0,0.0,0.0,0.0,0.0,0.0,0.0,0.0,0.0,0.0,0.0,0.0,0.0,0.0,0.0,0.0,0.0,0.0,0.0,0.0,0.0,0.0,0.0,0.0,0.0,0.0,0.0,0.0,0.0,0.0,0.0,0.0,0.0,0.0,0.0,0.0,0.0,0.0,0.0,0.0,0.0,0.0,0.0,0.0,0.0,0.0,0.0,0.0,0.0,0.0,0.0,0.0,0.0,0.0,0.0,0.0,0.0,0.0,0.0,0.0,0.0,0.0,0.0,0.0,0.0,0.0,0.0,0.0,0.0,0.0,0.0,0.0,0.0,0.0,0.0,0.0,0.0,0.0,0.0,0.0,0.0,0.0,0.0,0.0,0.0,0.0,0.0,0.0,0.0,4.6177,5.2493,5.7154,5.9186,5.8984,5.8716,5.8773,5.3518,4.9013,0.0,0.0,0.0,0.0,0.0,0.0,0.0,0.0,0.0,0.0,0.0,0.0,0.0,0.0,0.0,0.0,0.0,0.0,0.0,0.0,0.0,0.0,0.0,0.0,0.0,0.0,0.0,0.0,0.0,0.0,0.0,0.0,0.0,0.0,0.0,0.0,0.0,0.0,0.0,0.0,0.0,0.0,0.0,0.0,0.0,0.0,0.0,0.0,0.0,0.0,0.0,0.0,0.0,0.0,0.0,0.0,0.0,0.0,0.0,0.0,0.0,0.0,0.0,0.0,0.0,0.0,0.0,0.0,0.0,0.0,0.0,0.0,0.0,0.0,0.0,0.0,0.0,0.0,0.0,0.0,0.0,0.0,0.0,0.0,0.0,0.0,0.0,0.0,0.0,0.0,0.0,0.0,0.0,0.0,0.0,0.0,0.0,0.0,0.0,0.0,0.0,0.0,0.0,4.6248,5.2493,5.683,5.8033,5.8438,5.8176,5.6798,5.3544,4.9531,4.4525,0.0,0.0,0.0,0.0,0.0,0.0,0.0,0.0,0.0,0.0,0.0,0.0,0.0,0.0,0.0,0.0,0.0,0.0,0.0,0.0,0.0,0.0,0.0,0.0,0.0,0.0,0.0,0.0,0.0,0.0,0.0,0.0,0.0,0.0,0.0,0.0,0.0,0.0,0.0,0.0,0.0,0.0,0.0,0.0,0.0,0.0,0.0,0.0,0.0,0.0,0.0,0.0,0.0,0.0,0.0,0.0,0.0,0.0,0.0,0.0,0.0,0.0,0.0,0.0,0.0,0.0,0.0,0.0,0.0,0.0,0.0,0.0,0.0,0.0,0.0,0.0,0.0,0.0,0.0,0.0,0.0,0.0,0.0,0.0,0.0,0.0,0.0,0.0,0.0,0.0,0.0,0.0,0.0,0.0,0.0,0.0,0.0,0.0,0.0,0.0,0.0,0.0,4.6284,5.2493,5.6704,5.7489,5.8274,5.7938,5.6168,5.3662,4.9892,4.4453,0.0,0.0,0.0,0.0,0.0,0.0,0.0,0.0,0.0,0.0,0.0,0.0,0.0,0.0,0.0,0.0,0.0,0.0,0.0,0.0,0.0,0.0,0.0,0.0,0.0,0.0,0.0,0.0,0.0,0.0,0.0,0.0,0.0,0.0,0.0,0.0,0.0,0.0,0.0,0.0,0.0,0.0,0.0,0.0,0.0,0.0,0.0,0.0,0.0,0.0,0.0,0.0,0.0,0.0,0.0,0.0,0.0,0.0,0.0,0.0,0.0,0.0,0.0,0.0,0.0,0.0,0.0,0.0,0.0,0.0,0.0,0.0,0.0,0.0,0.0,0.0,0.0,0.0,0.0,0.0,0.0,0.0,0.0,0.0,0.0,0.0,0.0,0.0,0.0,0.0,0.0,0.0,0.0,0.0,0.0,0.0,0.0,0.0,0.0,0.0,0.0,0.0,4.6284,5.2493,5.6668,5.7382,5.8238,5.806,5.6418,5.3835,5.0243,4.5528,0.0,0.0,0.0,0.0,0.0,0.0,0.0,0.0,0.0,0.0,0.0,0.0,0.0,0.0,0.0,0.0,0.0,0.0,0.0,0.0,0.0,0.0,0.0,0.0,0.0,0.0,0.0,0.0,0.0,0.0,0.0,0.0,0.0,0.0,0.0,0.0,0.0,0.0,0.0,0.0,0.0,0.0,0.0,0.0,0.0,0.0,0.0,0.0,0.0,0.0,0.0,0.0,0.0,0.0,0.0,0.0,0.0,0.0,0.0,0.0,4.2996,4.1434,0.0,0.0,0.0,0.0,0.0,0.0,0.0,0.0,0.0,0.0,0.0,0.0,0.0,0.0,0.0,0.0,0.0,0.0,0.0,0.0,0.0,0.0,0.0,0.0,0.0,0.0,0.0,0.0,0.0,0.0,0.0,0.0,0.0,0.0,0.0,0.0,0.0,0.0,0.0,0.0,4.6355,5.2493,5.6454,5.6633,5.7882,5.7846,5.5633,5.3758,5.1047,4.7032,4.2871,0.0,0.0,0.0,0.0,0.0,0.0,0.0,0.0,0.0,0.0,0.0,0.0,0.0,0.0,0.0,0.0,0.0,0.0,0.0,0.0,0.0,0.0,0.0,0.0,0.0,0.0,0.0,0.0,0.0,0.0,0.0,0.0,0.0,0.0,0.0,0.0,0.0,0.0,0.0,0.0,0.0,0.0,0.0,0.0,0.0,0.0,0.0,0.0,0.0,0.0,0.0,0.0,0.0,0.0,0.0,0.0,0.0,0.0,0.0,4.805,4.6465,0.0,0.0,0.0,0.0,0.0,0.0,0.0,0.0,0.0,0.0,0.0,0.0,0.0,0.0,0.0,0.0,0.0,0.0,0.0,0.0,0.0,0.0,0.0,0.0,0.0,0.0,0.0,0.0,0.0,0.0,0.0,0.0,0.0,0.0,0.0,0.0,0.0,0.0,0.0,0.0,4.6962,5.2386,5.5955,5.6347,5.7453,5.7525,5.5919,5.3992,5.1544,4.8468,4.4647,0.0,0.0,0.0,0.0,0.0,0.0,0.0,0.0,0.0,0.0,0.0,0.0,0.0,0.0,0.0,0.0,0.0,0.0,0.0,0.0,0.0,0.0,0.0,0.0,0.0,0.0,0.0,0.0,0.0,0.0,0.0,0.0,0.0,0.0,0.0,0.0,0.0,0.0,0.0,0.0,0.0,0.0,0.0,0.0,0.0,0.0,0.0,0.0,0.0,0.0,0.0,0.0,0.0,5.467,5.5188,5.5669,5.5858,5.5932,5.5784,5.3045,5.1934,5.1861,4.9417,0.0,0.0,0.0,0.0,0.0,0.0,0.0,0.0,0.0,0.0,0.0,0.0,0.0,0.0,0.0,0.0,0.0,0.0,0.0,0.0,0.0,0.0,4.7929,4.7277,4.8748,4.8604,4.2369,0.0,0.0,0.0,0.0,0.0,0.0,0.0,0.0,0.0,0.0,0.0,4.7783,5.2493,5.5669,5.6311,5.7096,5.7239,5.6454,5.4349,5.2172,5.0066,4.6426,4.3073,0.0,0.0,0.0,0.0,0.0,0.0,0.0,0.0,0.0,0.0,0.0,0.0,0.0,0.0,0.0,0.0,0.0,0.0,0.0,0.0,0.0,0.0,0.0,0.0,0.0,0.0,0.0,0.0,0.0,0.0,0.0,0.0,4.3351,4.5076,0.0,0.0,0.0,0.0,0.0,0.0,0.0,0.0,0.0,0.0,0.0,0.0,0.0,5.4297,5.4999,5.6858,5.7418,5.6825,5.9096,5.9844,5.925,5.9993,6.0364,6.0327,5.9881,0.0,5.5188,5.2901,0.0,0.0,0.0,0.0,0.0,0.0,0.0,0.0,0.0,0.0,0.0,0.0,0.0,0.0,0.0,0.0,0.0,0.0,0.0,0.0,0.0,0.0,5.1967,5.1565,5.1726,5.1633,5.0271,4.6248,4.2109,3.9504,3.7434,3.5507,0.0,0.0,0.0,0.0,0.0,0.0,4.8639,5.3314,5.6276,5.6383,5.7096,5.7239,5.6454,5.4848,5.3457,5.2457,4.8758,4.5845,4.4304,4.0708,0.0,0.0,0.0,0.0,0.0,0.0,0.0,0.0,0.0,0.0,0.0,0.0,0.0,0.0,0.0,0.0,0.0,0.0,0.0,0.0,0.0,0.0,0.0,0.0,0.0,0.0,0.0,0.0,0.0,4.4745,4.7498,4.7278,4.7792,4.7572,0.0,0.0,0.0,0.0,0.0,0.0,0.0,0.0,0.0,5.6219,5.7112,5.819,5.9449,6.1204,6.1879,6.1508,6.3148,6.375,6.3416,6.3788,6.3973,6.3973,6.3973,6.3111,6.1352,5.758,5.5055,5.3347,0.0,0.0,0.0,0.0,5.0079,5.0339,5.2085,5.1899,5.0748,4.9633,0.0,0.0,0.0,0.0,0.0,0.0,0.0,4.9159,5.0527,5.3148,5.5454,5.5542,5.63,5.6514,5.4972,5.2461,4.9098,4.4721,4.2715,4.0503,3.672,3.647,0.0,0.0,0.0,4.6712,5.0209,5.3635,5.5883,5.6347,5.6704,5.6775,5.6418,5.4955,5.3706,5.2921,5.0423,4.8115,4.6211,4.3755,4.1178,0.0,0.0,0.0,0.0,0.0,0.0,0.0,0.0,0.0,0.0,0.0,0.0,0.0,0.0,0.0,0.0,0.0,0.0,0.0,0.0,0.0,0.0,0.0,0.0,0.0,0.0,0.0,0.0,4.8159,5.0582,4.9114,5.0949,5.1279,0.0,0.0,0.0,0.0,0.0,0.0,5.4991,5.6762,5.8467,6.0004,6.0944,6.199,6.3214,6.4485,6.5125,6.5162,6.5794,6.6091,6.6091,6.6091,6.6091,6.6091,6.6091,6.6091,6.5756,6.1447,5.8809,5.736,5.5466,5.4277,5.3645,5.4463,5.476,5.5057,5.71,5.7286,5.6283,5.424,5.2605,5.0822,4.7516,0.0,0.0,0.0,0.0,5.2271,5.45,5.658,5.8243,5.8637,5.9688,6.01,5.8173,5.687,5.4625,4.9484,4.7676,4.557,4.1074,4.1074,0.0,4.2002,4.5356,4.896,5.1922,5.417,5.574,5.6347,5.6383,5.6383,5.6383,5.4955,5.3778,5.3207,5.1494,4.971,4.7961,4.6354,4.4222,4.1497,0.0,0.0,0.0,0.0,0.0,0.0,0.0,0.0,0.0,0.0,0.0,0.0,0.0,0.0,0.0,0.0,0.0,0.0,0.0,0.0,0.0,0.0,0.0,0.0,0.0,0.0,0.0,0.0,0.0,5.0765,5.4142,0.0,0.0,0.0,0.0,5.4354,5.6528,5.8349,5.9418,6.1715,6.3465,6.4448,6.5348,6.5831,6.5905,6.6017,6.6054,6.6054,6.6091,6.6091,6.6091,6.6091,6.6091,6.6091,6.6091,6.6091,6.5905,6.3305,6.1707,6.0704,5.8289,5.684,5.6209,5.7026,5.7323,5.7435,5.8326,5.8103,5.7658,5.9032,5.7323,5.4574,5.3608,5.2271,0.0,0.0,5.4723,5.6357,5.8029,5.9107,5.9913,6.037,6.0535,6.0441,5.9943,5.8304,5.6052,5.3167,5.1315,4.971,4.7961,0.0,4.689,4.764,4.921,5.1208,5.3599,5.5312,5.6347,5.6383,5.6383,5.6383,5.6383,5.4955,5.3992,5.3956,5.1779,5.0459,5.0352,4.8104,4.6203,4.4808,4.0885,0.0,0.0,0.0,0.0,0.0,0.0,0.0,0.0,0.0,0.0,0.0,0.0,0.0,0.0,0.0,0.0,0.0,0.0,0.0,0.0,0.0,0.0,0.0,0.0,0.0,0.0,0.0,0.0,5.539,5.7629,0.0,5.6183,5.725,5.8399,5.939,6.12,6.2909,6.4419,6.579,6.695,6.7948,6.8246,6.8691,6.9211,6.9211,6.9211,6.9211,6.9211,6.9211,6.9174,6.8654,6.8431,6.8394,6.7874,6.7651,6.754,6.6128,6.4753,6.3379,6.1967,6.0927,6.0258,6.0555,6.0667,6.0778,6.1596,6.1336,6.0593,6.0072,5.8772,5.7323,5.7063,5.6543,5.632,5.7435,5.8178,5.8884,5.9998,6.0927,6.1552,6.1715,6.216,6.229,6.136,6.0579,5.9529,5.7474,5.4343,5.153,4.9959,4.9852,4.9959,4.971,5.1422,5.3242,5.4598,5.574,5.6383,5.6383,5.6383,5.6204,5.5669,5.4634,5.3813,5.3314,5.153,5.0281,4.9781,4.8461,4.7043,4.5523,4.266,3.9373,0.0,0.0,0.0,0.0,0.0,0.0,0.0,0.0,0.0,0.0,0.0,0.0,0.0,0.0,0.0,0.0,0.0,0.0,0.0,0.0,0.0,0.0,0.0,0.0,0.0,5.5317,5.8107,5.8456,6.0882,6.196,6.0481,6.155,6.2852,6.4103,6.5434,6.6815,6.8284,6.8877,6.9595,7.0512,7.0289,7.0363,7.092,7.092,7.092,7.092,7.092,7.092,7.0883,7.0363,7.0103,7.0103,6.9546,6.9323,6.9249,6.8468,6.7317,6.5942,6.4865,6.4122,6.3639,6.3639,6.3639,6.3676,6.3936,6.349,6.2599,6.1187,6.0407,5.9924,5.9627,5.9552,5.9701,6.0518,6.0741,6.0964,6.1781,6.2413,6.2822,6.2822,6.323,6.3363,6.254,6.2066,6.1459,6.0413,5.7418,5.4558,5.283,5.2921,5.2993,5.2208,5.3421,5.4706,5.5491,5.6062,5.6383,5.6383,5.6383,5.6062,5.5277,5.4242,5.3421,5.2921,5.1137,4.9995,4.9745,4.8461,4.7283,4.6212,4.3358,4.0374,3.7272,0.0,0.0,0.0,0.0,0.0,0.0,0.0,0.0,0.0,0.0,0.0,0.0,0.0,0.0,0.0,0.0,0.0,0.0,0.0,0.0,0.0,0.0,0.0,5.3445,5.7483,6.0283,5.9771,6.3898,6.627,6.4831,6.6827,6.8282,6.842,6.9124,6.999,7.0995,7.0995,7.1366,7.2184,7.1441,7.0995,7.0995,7.0995,7.0995,7.0995,7.0995,7.0995,7.0995,7.0958,7.0958,7.0958,7.092,7.092,7.0846,7.0066,6.9286,6.8431,6.6797,6.6128,6.6091,6.6091,6.6091,6.5979,6.5125,6.4308,6.3527,6.2747,6.245,6.2301,6.1521,6.1261,6.1447,6.2227,6.245,6.2636,6.3416,6.3602,6.3602,6.3602,6.3602,6.3602,6.3602,6.266,6.1871,6.1871,6.0573,5.888,5.6849,5.6454,5.6169,5.5384,5.5241,0.0,5.6311,5.6383,5.6383,5.6383,5.6383,5.6062,5.5241,5.3778,5.2886,5.2814,5.0602,4.9674,5.0423,4.8211,4.6998,4.6998,4.3144,4.0081,3.7935,0.0,0.0,0.0,0.0,0.0,0.0,0.0,0.0,0.0,0.0,0.0,0.0,0.0,0.0,0.0,0.0,0.0,0.0,0.0,0.0,0.0,5.5623,5.8718,5.8718,6.084,6.3198,6.5435,6.7391,6.8661,6.8962,6.9591,7.0531,7.1909,7.165,7.2058,7.3521,7.3038,7.2815,7.3038,7.2815,7.2704,7.2704,7.2704,7.2704,7.2704,7.2704,7.2704,7.2666,7.2109,7.1849,7.1812,7.118,7.092,7.0883,7.066,7.0475,7.0029,6.7837,6.6611,6.6091,6.6091,6.6091,6.6091,6.5831,6.5199,6.4456,6.4233,6.375,6.323,6.3007,6.2933,6.3007,6.323,6.3267,6.3342,6.3565,6.3602,6.3602,6.3602,6.3602,6.3602,6.3602,6.3325,6.3002,6.2719,6.2304,6.1295,5.8969,5.7818,5.7204,5.6954,5.6454,5.6133,5.6383,5.6383,5.6383,5.6383,5.6383,5.5847,5.4456,5.3956,5.2993,5.128,4.9995,4.9424,4.9638,4.7925,4.6998,4.6998,4.3847,4.1884,0.0,0.0,0.0,0.0,0.0,0.0,0.0,0.0,0.0,0.0,0.0,0.0,0.0,0.0,0.0,0.0,0.0,0.0,0.0,0.0,0.0,0.0,5.9257,6.241,6.3826,6.472,6.6173,6.8911,7.0243,7.1294,7.2266,7.2637,7.3283,7.4338,7.3967,7.4264,7.5564,7.4858,7.4561,7.4933,7.4598,7.4413,7.4413,7.4413,7.4227,7.3892,7.3892,7.3707,7.3372,7.2889,7.2666,7.2666,7.2184,7.1961,7.1923,7.1589,7.1441,7.1292,0.0,0.0,0.0,0.0,6.6908,6.6611,6.6611,6.6054,6.5348,6.5348,6.4791,6.4122,6.4122,6.3899,6.3602,6.3602,6.3602,6.3602,6.3602,6.3602,6.3602,6.3602,6.3602,6.3602,6.3602,6.3602,6.3511,6.3289,6.3099,0.0,6.0913,5.9601,5.8534,5.7723,5.7204,5.6775,5.6454,5.6383,5.6383,5.6383,5.6383,5.5883,5.4634,5.392,0.0,0.0,0.0,4.9032,4.8354,4.7461,0.0,0.0,0.0,0.0,0.0,0.0,0.0,0.0,3.9446,3.9734,0.0,0.0,0.0,0.0,0.0,0.0,0.0,0.0,0.0,0.0,0.0,0.0,0.0,0.0,0.0,0.0,6.2761,6.5096,6.8308,6.8716,6.9281,7.0916,7.2436,7.3713,7.4635,7.5378,7.5824,7.5936,7.5861,7.6159,7.705,7.627,0.0,0.0,0.0,7.5787,7.5787,7.5787,7.5416,7.4747,7.4747,7.4301,7.3521,7.3521,7.3484,7.3372,7.3372,7.3372,7.3335,7.2629,7.2332,7.2221,7.1292,7.0475,6.9769,6.9063,6.8283,6.7577,6.7577,0.0,0.0,6.6239,6.5645,6.4976,6.4976,6.4456,6.3899,6.3899,6.3899,6.3862,6.3788,6.375,6.3713,6.3639,6.3602,6.3602,6.3602,6.3602,6.3602,6.3602,6.3289,6.2917,6.2427,6.1316,5.9871,5.7973,5.7632,5.7311,5.649,5.6383,5.6383,5.6383,5.6383,0.0,5.5277,5.3956,5.3028,5.2779,5.0673,4.8782,4.7319,4.7354,4.7354,4.7247,4.7247,4.7604,4.8318,4.8318,4.7997,4.7283,4.3192,4.2768,0.0,0.0,0.0,0.0,0.0,0.0,0.0,0.0,0.0,0.0,0.0,0.0,0.0,0.0,0.0,6.1849,6.5153,6.8197,7.0177,7.1538,7.2503,7.2889,7.3781,7.4673,7.549,7.5713,7.6084,7.679,7.6196,7.6159,7.705,7.627,7.5861,7.6047,7.5899,7.5787,7.5787,7.5787,7.5713,7.5564,7.5564,0.0,7.4338,7.4338,7.4004,7.3372,7.3372,7.3372,7.3372,7.3224,7.3149,7.3001,7.1515,7.0809,7.066,7.0512,6.9955,6.9249,6.9249,6.8283,6.7094,6.7094,6.6537,6.5868,6.5868,6.5756,0.0,6.5645,6.5645,6.5459,6.4753,6.4568,6.4419,6.375,6.3602,6.3602,6.3602,6.3602,6.3602,6.3602,6.3557,6.3242,6.2515,6.1352,6.0051,5.8688,5.7989,5.7311,5.649,5.6383,5.6383,5.6383,5.6383,5.6062,5.5277,5.492,5.3956,5.2029,5.0887,4.9852,4.8889,4.9495,4.9531,4.8889,4.8889,4.896,4.9103,4.9103,4.9353,4.9745,4.7017,4.6418,0.0,0.0,0.0,0.0,0.0,0.0,0.0,0.0,0.0,0.0,0.0,5.6945,5.7353,0.0,6.3482,6.5199,6.8208,7.0772,7.1998,7.3558,7.4465,7.4019,7.5097,7.6027,7.6398,7.6844,7.7236,7.7645,7.7273,7.7236,7.7682,7.7273,7.705,7.705,7.705,7.705,7.705,7.705,7.6827,7.6456,7.6456,7.5787,7.4598,7.4598,7.4153,7.3372,7.3372,7.3372,7.3372,7.3372,7.3372,7.3298,7.2481,7.1923,7.1515,7.1069,7.066,7.0326,7.0326,6.9509,6.8506,6.8506,6.7688,6.6722,6.6722,6.6425,6.6091,6.6091,6.6091,6.6017,6.5571,6.5459,6.5236,6.4419,6.4196,6.4085,6.3713,6.3602,6.3602,6.3602,6.3602,6.3336,6.2552,6.1875,6.0955,5.9531,5.8988,5.831,5.7132,5.6989,5.6989,5.6989,5.6989,5.6847,5.6418,5.5669,5.4527,5.2957,5.2493,5.1922,5.1137,5.1494,5.1494,5.1101,5.1101,5.128,5.1672,5.1672,5.1886,5.2243,5.1066,5.053,0.0,0.0,0.0,0.0,0.0,0.0,0.0,5.4648,5.554,5.6692,5.8772,6.0741,6.193,6.4122,6.65,6.8851,7.1045,7.2792,7.3707,7.5134,7.5819,7.5165,7.6266,7.7142,7.7308,7.7923,7.8276,7.8276,7.8276,7.8276,7.8276,7.8276,7.8276,7.8276,7.8276,7.8276,7.8276,7.8276,7.7942,7.731,7.731,7.653,7.5081,7.4896,7.4375,7.3595,7.3447,7.3372,7.3372,7.3372,7.3372,7.3372,7.3372,7.3001,7.2332,7.1663,7.1292,7.118,7.118,7.0623,6.9955,6.9955,6.9063,6.7986,6.7837,6.7317,6.676,6.6611,6.6574,6.6537,6.6388,6.6351,6.6128,6.5274,6.5051,6.4865,6.4233,6.3973,6.3825,6.3825,6.3713,6.3373,6.2654,6.2449,6.1841,6.0139,5.9916,5.938,5.7989,5.781,5.781,5.781,5.781,5.781,5.781,5.649,5.5312,5.4527,5.4349,5.392,5.3135,5.31,5.31,5.31,5.31,5.3421,5.4028,5.4028,5.4028,5.4028,5.4028,5.3706,5.3014,5.2679,5.2791,5.4128,5.4611,5.6246,0.0,6.1781,6.1001,6.3267,6.5125,6.6202,6.5645,6.7513,6.9718,7.1479,7.2646,7.3787,7.5357,7.6324,7.6915,7.6849,7.7005,7.7382,7.8108,7.8239,7.8276,7.8276,7.8276,7.8276,7.8276,7.8276,7.8276,7.8276,7.8276,7.8276,7.8276,7.8276,7.8239,7.8165,7.8165,7.7682,7.679,7.601,7.523,7.4413,7.3707,7.3372,7.3372,7.3372,7.3372,7.3372,7.3372,7.3335,7.3224,7.3149,7.2666,7.2035,7.2035,7.1478,7.0772,7.0772,7.066,7.0363,6.9657,6.9397,6.9174,6.8431,6.8246,6.8097,6.7354,6.7168,6.6982,6.6165,6.5942,6.5942,6.5831,6.5236,6.4679,6.4679,6.4085,6.3465,6.3002,6.2654,6.1841,6.0139,5.9916,5.9594,5.8702,5.8595,5.8595,5.8595,5.8595,5.8595,5.8595,5.781,5.6989,5.6169,5.5455,5.4706,5.392,5.3885,5.3885,5.3885,5.3885,5.3956,5.4028,5.4028,5.4028,5.4028,5.4028,5.3992,5.7212,5.6766,5.6432,5.7583,5.8958,6.0853,6.4085,6.4419,6.4605,6.6574,6.7911,6.8617,6.8283,6.9818,7.1541,7.2708,7.3959,7.5224,7.6415,7.7253,7.7588,7.7196,7.7476,7.7923,7.8239,7.8276,7.8276,7.8276,7.874,7.8964,7.8964,7.8964,7.8964,7.8964,7.8555,7.8276,7.8276,7.8276,7.8276,7.8276,7.8276,7.7868,7.7087,7.6716,7.5824,7.4561,7.4227,7.3818,7.3372,7.3372,7.3372,7.3372,7.3372,7.3372,7.3372,7.3372,7.3187,7.2889,7.2889,7.2332,7.1663,7.1663,7.1329,7.0846,7.0512,7.0103,6.9657,6.9286,6.8877,6.8431,6.8097,6.8023,6.78,6.6982,6.6797,6.6685,6.6202,6.5831,6.5571,6.5571,6.4902,6.4169,6.3751,6.3149,6.2354,6.1112,6.0769,6.0308,5.9523,5.9416,5.9416,5.9416,5.9416,5.9416,5.9416,5.8702,5.8096,5.7774,5.7453,5.7096,5.6775,5.6775,5.6775,5.6775,5.6775,5.6775,5.6775,5.6775,5.6775,5.6775,5.6775,5.6775,5.8661,5.8772,5.9292,6.0333,6.245,6.4642,6.5868,6.6648,6.7503,6.8877,6.9806,7.04,7.04,7.1552,7.2867,7.3899,7.5209,7.6456,7.7345,7.7923,7.8016,7.72,7.7385,7.77,7.7979,7.8165,7.8276,7.8276,7.9038,7.954,7.9502,7.9688,7.9744,7.9503,7.8926,7.8555,7.8276,7.8276,7.8276,7.8276,7.8276,7.7979,7.7422,7.7199,7.6307,7.4896,7.4673,7.4264,7.3707,7.3484,7.3372,7.3372,7.3372,7.3372,7.3372,7.3372,7.3372,7.3372,7.3372,7.3001,7.2518,7.2518,7.2109,7.1552,7.1329,7.0846,7.0363,7.0103,6.9472,6.884,6.884,6.8691,6.8357,6.78,6.7651,6.7465,6.6908,6.6611,6.6425,6.6425,6.5756,6.5069,6.4746,6.4132,6.3429,6.2803,6.2284,6.1556,6.038,6.0237,6.0237,6.0237,6.0237,6.0237,6.0237,5.9701,5.9273,5.9059,5.9059,5.8952,5.8738,5.8738,5.8738,5.8738,5.8738,5.8738,5.8738,5.8738,5.8738,5.8738,5.8738,5.8845,5.6023,5.7472,6.0258,6.193,6.4196,6.6648,6.9026,6.9583,6.9843,7.066,7.1515,7.2123,7.2123,7.2829,7.387,7.5478,7.6473,7.7367,7.8128,7.8276,7.8016,7.72,7.6378,7.6207,7.707,7.7812,7.8276,7.8276,7.9038,7.9502,7.949,8.0215,8.0316,7.9503,7.9465,7.9131,7.8313,7.8276,7.8276,7.8276,7.8276,7.8276,7.8239,7.7459,7.6604,7.5713,7.4933,7.4561,7.4487,7.3707,7.3372,7.3372,7.3372,7.3372,7.3372,7.3372,7.3372,7.3372,7.3372,7.3372,7.3335,7.3335,7.3335,7.3149,7.2369,7.2109,7.1923,7.1106,7.0289,6.9694,6.9694,6.91,6.8506,6.8468,6.8468,6.8468,6.8431,6.7837,6.728,6.728,6.6611,6.6054,6.6054,6.5607,6.5322,6.5322,6.4549,6.3307,6.1331,6.1058,6.1058,6.1058,6.1058,6.1058,6.1058,6.1058,6.0701,5.9916,5.988,5.9523,5.8738,5.8738,5.8738,5.8738,5.8738,5.8738,5.8738,5.8738,5.8738,5.8738,5.8738,5.9131,5.9775,6.1521,6.3676,6.5905,6.7503,6.8989,7.092,7.1366,7.1441,7.1701,7.1575,7.1339,7.1353,7.1561,7.2466,7.4681,7.6159,7.7367,7.8179,7.9186,7.8999,7.6489,7.6946,7.7148,7.6319,7.7013,7.7701,7.8239,7.954,8.0302,8.0311,8.1111,8.1207,8.0316,7.9781,7.9131,7.8313,7.8276,7.8276,7.8276,7.8276,7.8276,7.8276,7.8016,7.7422,7.6642,7.6382,7.5601,7.4561,7.4301,7.3855,7.3372,7.3372,7.3372,7.3372,7.3372,7.3372,7.3372,7.3372,7.3372,7.3372,7.3372,7.3372,7.3335,7.3075,7.2592,7.2109,7.1849,7.1143,7.04,6.9843,6.9509,6.9174,6.8654,6.8506,6.8506,6.8506,6.832,6.8097,6.8097,6.7465,6.6908,6.6908,6.633,6.5632,6.505,6.3984,6.3127,6.2688,6.1736,6.1486,6.2521,6.17,6.1307,6.1843,6.1414,6.0986,6.0701,6.0701,6.0558,6.0308,6.0308,6.0308,6.0308,6.0308,6.0308,6.0308,6.0308,6.0308,6.0308,6.0308,6.0736,6.2339,6.4456,6.6722,6.9211,7.0437,7.1366,7.2741,7.2592,7.2109,7.1798,7.1028,7.0383,7.0124,7.0013,7.093,7.3722,7.5548,7.7125,7.8544,7.9631,7.9409,7.6976,7.7393,7.7424,7.6401,7.6993,7.7738,7.8239,7.9818,8.0693,8.0681,8.18,8.1911,8.0718,8.0228,7.9391,7.8313,7.8276,7.8276,7.8276,7.8276,7.8276,7.8276,7.8276,7.8016,7.7496,7.7199,7.6456,7.5453,7.5156,7.4524,7.3818,7.3818,7.3632,7.3372,7.3372,7.3372,7.3372,7.3372,7.3372,7.3372,7.3372,7.3372,7.3372,7.3372,7.3038,7.2629,7.2629,7.1998,7.1255,7.0735,7.0177,6.9583,6.9063,6.8729,6.8506,6.8506,6.8506,6.8506,6.8506,6.8097,6.7725,6.7725,6.7317,6.6618,6.5678,6.4693,6.3863,6.3464,6.2521,6.2307,6.327,6.2485,6.2128,6.2628,6.2199,6.1914,6.1914,6.1664,6.1521,6.1521,6.1236,6.1093,6.1093,6.1093,6.1236,6.1521,6.1521,6.1664,6.1914,6.1914,6.2199,6.3713,6.6314,6.936,7.1775,7.2927,7.3632,7.4338,7.3298,7.1872,7.0939,7.005,6.9184,6.8388,6.8346,6.9434,7.2681,7.4714,7.6699,7.9157,7.9631,7.9391,7.847,7.7737,7.7312,7.7222,7.792,7.8351,7.8388,7.9856,8.073,8.0718,8.2341,8.2453,8.0793,8.0711,7.9967,7.8351,7.8313,7.8276,7.8276,7.8276,7.8276,7.8276,7.8276,7.8276,7.8239,7.7459,7.7125,7.7013,7.6196,7.5378,7.4635,7.4635,7.419,7.3521,7.3484,7.3447,7.3447,7.341,7.3372,7.3372,7.3372,7.3372,7.3372,7.3372,7.3372,7.3372,7.3372,7.2852,7.2221,7.2184,7.0995,6.9769,6.9732,6.91,6.8506,6.8506,6.8506,6.8506,6.8506,6.8506,6.8506,6.8506,6.8506,6.8171,6.7249,6.6517,6.5416,6.3714,6.3448,6.3413,6.3484,6.3448,6.3413,6.3448,6.3413,6.3377,6.3377,6.2735,6.2342,6.2342,6.1628,6.12,6.12,6.12,6.1593,6.2342,6.2342,6.2699,6.3377,6.3377,6.3413,6.8171,7.0549,7.2592,7.4413,7.4561,7.419,7.3781,7.2414,7.0842,6.9383,6.7465,6.5786,6.4967,6.5838,6.7589,7.0191,7.4071,7.7441,7.9231,8.1095,8.1471,7.9465,0.0,7.9558,7.8981,7.9094,7.9428,8.0042,8.047,8.0953,8.1652,8.2638,8.2713,8.1726,8.1028,8.0191,7.9205,7.8629,7.8276,7.8276,7.8276,7.8276,7.8276,7.8276,7.8276,7.8276,7.8053,7.7682,7.7107,7.6884,7.629,7.5473,7.549,7.5378,7.5118,7.4524,7.4264,7.419,7.3595,7.3372,7.3372,7.3372,7.3372,7.3372,7.3372,7.3372,7.3372,7.3372,7.3224,7.2927,7.2332,7.1403,7.0475,6.9843,6.91,6.8506,6.8506,6.8506,6.8506,6.8506,6.8506,6.8506,6.8506,6.8506,6.8171,6.7249,6.6955,6.6395,6.5323,6.4126,6.3841,6.5054,6.4126,6.3627,6.4234,6.3734,6.3377,6.3377,6.3199,6.3092,6.3092,6.2913,6.2806,6.2806,6.2806,6.2913,6.3092,6.3092,6.3199,6.3377,6.3377,6.3734,7.0735,7.3187,7.523,7.6121,7.5713,7.4821,7.3676,7.1843,6.9628,6.6897,6.5235,6.3689,6.18,6.3407,6.5951,6.8726,7.3001,7.694,7.966,8.1519,8.2177,8.0728,8.1008,8.0951,8.0104,8.0353,8.0785,8.1251,8.1288,8.1492,8.1948,8.275,8.2846,8.2023,8.1508,8.0879,8.0005,7.9242,7.8815,7.8815,7.848,7.8276,7.8276,7.8276,7.8276,7.8276,7.8276,7.8053,7.7627,7.7627,7.7144,7.6347,7.6364,7.6104,7.5659,7.4933,7.4598,7.445,7.367,7.3372,7.3372,7.3372,7.3372,7.3372,7.3372,7.3372,7.3372,7.3372,7.3372,7.3298,7.2815,7.2109,7.1255,7.0437,6.962,6.8951,6.858,6.8506,6.8506,6.8506,6.8506,6.8506,6.8506,6.8506,6.8222,6.7523,6.7213,6.6852,6.6207,6.5109,6.4804,6.5697,6.4983,6.4626,6.509,6.4697,6.4448,6.4448,6.4126,6.3912,6.3912,6.3591,6.3377,6.3377,6.3377,6.3555,6.3912,6.3912,6.4091,6.4448,6.4448,6.4697,7.2369,7.4821,7.7125,7.7199,7.6456,7.5251,7.3626,7.1057,6.7996,6.4222,6.3101,6.1911,5.9059,6.1122,6.4356,6.7821,7.1791,7.5902,8.0126,8.1444,8.2023,8.2134,8.2134,8.1874,8.1111,8.1726,8.2134,8.2134,8.2134,8.2134,8.2134,8.2846,8.2846,8.2023,8.1986,8.1583,8.0712,8.0023,7.9689,7.967,7.8926,7.8592,7.8425,7.8425,7.8388,7.8276,7.8276,7.8276,7.8276,7.8276,7.7905,7.7237,7.7237,7.681,7.603,7.5251,7.4896,7.4635,7.3818,7.3484,7.3372,7.3372,7.3372,7.3372,7.3372,7.3372,7.3372,7.3372,7.3372,7.3372,7.3372,7.2778,7.1998,7.1255,7.04,6.9509,6.884,6.858,6.8506,6.8506,6.8506,6.8506,6.8506,6.8506,6.8321,6.7789,6.736,6.6967,6.6476,6.6021,6.5804,6.5804,6.5804,6.5804,6.5804,6.5804,6.5804,6.5804,6.5161,6.4769,6.4769,6.4091,6.3698,6.3698,6.3698,6.4055,6.4769,6.4769,6.5126,6.5804,6.5804,6.5804,7.4561,7.6121,7.7236,7.7905,7.6476,7.4384,7.2758,6.8873,6.5059,6.3002,6.0448,5.8375,5.7798,5.9883,6.2925,6.6871,7.0946,7.5291,8.0052,8.1444,8.2267,8.292,8.2994,8.2957,8.275,8.292,8.2994,8.2994,8.2994,8.2994,8.2994,8.3106,8.2846,8.2023,8.1986,8.1577,8.0666,8.0555,8.0485,8.0507,8.0358,7.993,7.9279,7.9279,7.8926,7.8276,7.8276,7.8276,7.8276,7.8276,7.8202,7.809,7.809,7.8016,7.7793,7.6995,7.6216,7.5453,7.4703,7.3945,7.3372,7.3372,7.3372,7.3372,7.3372,7.3372,7.3372,7.3372,7.3372,7.3372,7.3372,7.2778,7.2146,7.1998,7.0809,6.9694,6.9546,6.8989,6.8506,6.8506,6.8506,6.8506,6.8506,6.8506,6.8222,6.736,6.7157,6.6852,6.6021,6.5867,6.5804,6.5804,6.5804,6.5804,6.5804,6.5804,6.5804,6.5804,6.5661,6.559,6.559,6.5447,6.5375,6.5375,6.5375,6.5447,6.559,6.559,6.5661,6.5804,6.5804,6.5804,7.5378,7.6716,7.7793,7.8202,7.6124,7.3424,7.1397,6.741,6.3356,6.0448,5.8598,5.7116,5.5837,5.8306,6.1442,6.4253,6.8203,7.2705,7.8051,7.957,8.083,8.2957,8.318,8.318,8.318,8.318,8.318,8.318,8.318,8.318,8.318,8.318,8.3032,8.2638,8.2601,8.2416,8.1986,8.1615,8.1355,8.138,8.0914,8.0337,7.9686,8.0023,7.9503,7.8555,7.8778,7.8555,7.7942,7.8165,7.8128,7.7942,7.8202,7.8276,7.8202,7.7404,7.6884,7.6382,7.5537,7.4718,7.3982,7.3982,7.3759,7.3372,7.3372,7.3372,7.3372,7.3372,7.3372,7.3372,7.3372,7.3075,7.2704,7.2295,7.1255,7.0326,7.0326,6.9694,6.9137,6.9137,6.8803,6.8408,6.8171,6.8171,6.793,6.7213,6.691,6.6655,6.6207,6.5958,6.5804,6.5804,6.5804,6.5804,6.5804,6.5804,6.5804,6.5804,6.5804,6.5804,6.5804,6.5804,6.5804,6.5804,6.5804,6.5804,6.5804,6.5804,6.5804,6.5804,6.5804,6.5804,7.5564,7.7013,7.8239,7.809,7.5532,7.2465,7.0032,6.6007,6.1835,5.8231,5.7079,5.6182,5.4352,5.6846,5.9897,6.2264,6.5669,7.0032,7.6005,7.7644,7.9453,8.2564,8.3106,8.318,8.318,8.318,8.318,8.318,8.318,8.318,8.318,8.318,8.318,8.318,8.318,8.318,8.318,8.2564,8.2267,8.2267,8.1444,8.0756,8.0141,8.0281,7.9771,7.8703,7.8852,7.8351,7.7497,7.7842,7.7715,7.7404,7.7775,7.7979,7.7849,7.7237,7.6903,7.6681,7.6117,7.5373,7.4688,7.4629,7.4019,7.3372,7.3372,7.3372,7.3372,7.3372,7.3372,7.3372,7.3372,7.3372,7.3187,7.2369,7.1663,7.1143,7.0958,7.04,6.9905,6.9804,6.9285,6.874,6.8288,6.7998,6.778,6.7279,6.6786,6.6476,6.6355,6.6021,6.5804,6.5804,6.5804,6.5804,6.5804,6.5804,6.5804,6.5804,6.5804,6.5804,6.5804,6.5804,6.5804,6.5804,6.5804,6.5804,6.5804,6.5804,6.5804,6.5804,6.5804,6.5804,7.5618,7.7013,7.8128,7.7404,7.4756,7.1652,6.9182,6.4264,5.9748,5.7862,5.5695,5.4278,5.48,5.5844,5.8122,6.2762,6.5054,6.8576,7.5004,7.7287,7.9209,8.18,8.275,8.318,8.318,8.318,8.318,8.318,8.318,8.318,8.318,8.318,8.318,8.318,8.318,8.318,8.318,8.3143,8.3106,8.3069,8.249,8.18,8.0978,7.9825,7.9061,7.8618,7.7478,7.7163,7.7478,7.7026,7.6818,7.6792,7.6866,7.6866,7.6866,7.6792,7.6292,7.5718,7.6106,7.5718,7.5014,7.4725,7.4019,7.3372,7.3372,7.3372,7.3372,7.3372,7.3372,7.3372,7.3372,7.3372,7.3187,7.2369,7.2109,7.1849,7.1069,7.0846,7.062,7.0216,7.0089,6.989,6.9441,6.8763,6.808,6.7644,6.6945,6.6391,6.5931,6.5804,6.5804,6.5804,6.5804,6.5804,6.5804,6.5804,6.5804,6.5804,6.5804,6.5804,6.5804,6.5804,6.5804,6.5804,6.5804,6.5804,6.5804,6.5804,6.5804,6.5804,6.5804,6.5804,7.4582,7.629,7.7515,7.7163,7.4256,7.0786,6.8334,6.3339,5.8706,5.7115,5.5173,5.4017,5.4837,5.5247,5.6816,6.0711,6.1954,6.4456,7.0565,7.2384,7.4769,7.9231,8.0496,8.1519,8.3069,8.318,8.318,8.318,8.318,8.318,8.318,8.318,8.318,8.318,8.318,8.318,8.318,8.318,8.3032,8.2713,8.249,8.1881,8.0835,8.0215,7.9356,7.8426,7.7762,7.7142,7.6621,7.6697,7.6515,7.633,7.6548,7.6723,7.6723,7.6723,7.6475,7.6257,7.6475,7.5983,7.5218,7.4606,7.3861,7.3224,7.3335,7.3372,7.3372,7.3372,7.3372,7.3335,7.3075,7.2726,7.2503,7.2466,7.2244,7.1947,7.1561,7.1115,7.0717,7.055,7.0144,6.966,6.9189,6.8814,6.8475,6.7976,6.7303,6.6737,6.6582,6.6089,6.5804,6.5804,6.5804,6.5804,6.5804,6.5804,6.5804,6.5804,6.5804,6.5804,6.5804,6.5804,6.5804,6.5804,6.5804,6.5804,6.5804,6.5804,6.5804,6.5804,6.5804,6.5804,7.3193,7.5068,7.6366,7.6366,7.3443,6.9901,6.7505,6.2656,5.8256,5.6628,5.4987,5.3943,5.4539,5.4834,5.5916,5.8727,5.9817,6.2114,6.7402,6.9235,7.1833,7.6662,7.8122,7.9638,8.1874,8.275,8.318,8.318,8.318,8.318,8.318,8.318,8.318,8.318,8.318,8.318,8.318,8.318,8.3032,8.2638,8.2276,8.1729,8.0912,7.9971,7.9088,7.8279,7.7486,7.6716,7.6014,7.6192,7.6085,7.5798,7.6121,7.6228,7.6228,7.6228,7.6228,7.6264,7.648,7.6135,7.5495,7.4568,7.3905,7.3423,7.3072,7.2963,7.2949,7.2949,7.2949,7.2844,7.2539,7.2206,7.2028,7.2371,7.2206,7.1894,7.1894,7.1468,7.0989,7.0866,7.036,6.9842,6.9353,6.9081,6.8809,6.8516,6.7772,6.7338,6.7368,6.6624,6.6161,6.6161,6.5946,6.5804,6.5804,6.5804,6.5804,6.5804,6.5804,6.5804,6.5804,6.5804,6.5804,6.5804,6.5804,6.5804,6.5804,6.5804,6.5804,6.5804,6.5804,6.5804,7.1524,7.3421,7.4645,7.4645,7.2113,6.9073,6.6602,6.2203,5.8256,5.6628,5.4987,5.3794,5.3831,5.4452,5.5562,5.7265,5.9552,6.2621,6.6739,6.9394,7.1845,7.4335,7.6124,7.7762,7.9379,8.1763,8.318,8.318,8.318,8.318,8.318,8.318,8.318,8.318,8.318,8.318,8.318,8.318,8.318,8.318,8.2069,8.1532,8.1383,7.8704,7.7789,7.8169,7.6085,7.5512,7.5978,7.5403,7.5225,7.5225,7.5225,7.5225,7.5225,7.5225,7.5225,7.5296,7.5798,7.6014,7.5835,7.4652,7.4297,7.3964,7.2394,7.1927,7.1932,7.1932,7.1932,7.1931,7.1932,7.1878,7.1907,7.1933,7.1878,7.1878,7.1878,7.1853,7.1765,7.1284,7.121,7.1023,7.0579,6.9807,6.9275,6.9275,6.8631,6.8093,6.8046,6.7439,6.6981,6.6981,6.6268,6.5804,6.5804,6.5804,6.5804,6.5804,6.5804,6.5804,6.5804,6.5804,6.5804,6.5804,6.5804,6.5804,6.5804,6.5804,6.5804,6.5804,6.5804,6.5804,6.7543,6.9207,7.027,6.9737,6.8431,6.6602,6.4105,6.1038,5.8256,5.6628,5.4987,5.3943,5.4539,5.4387,5.5652,6.014,6.1065,6.2619,6.6747,6.936,7.1797,7.4335,7.8536,8.1512,8.197,8.2713,8.318,8.318,8.318,8.318,8.318,8.318,8.318,8.318,8.318,8.318,8.318,8.318,8.3032,8.2638,8.1881,8.1045,8.0042,7.8271,7.7322,7.6947,7.5726,7.5296,7.5403,7.526,7.5225,7.5225,7.5225,7.5225,7.5225,7.5225,7.5225,7.5225,7.5367,7.5403,7.5296,7.4401,7.369,7.3072,7.2075,7.1801,7.1893,7.1893,7.1675,7.1484,7.1785,7.1441,7.1015,7.1398,7.1159,7.0979,7.0979,7.0919,7.0919,7.077,7.074,7.0678,7.0478,7.0267,7.0125,7.0125,6.945,6.8952,6.8881,6.8199,6.7761,6.7776,6.7504,6.6939,6.5875,6.5804,6.5804,6.5804,6.5804,6.5804,6.5804,6.5804,6.5804,6.5804,6.5804,6.5804,6.5804,6.5804,6.6089,6.6624,6.6624,6.6874,6.4021,6.5875,6.7083,6.6887,6.5975,6.4594,6.2456,6.0018,5.7769,5.6143,5.4725,5.3943,5.4427,5.439,5.5507,5.9468,6.0438,6.2031,6.5848,6.8703,7.1703,7.5165,7.9274,8.196,8.223,8.2846,8.318,8.318,8.318,8.318,8.318,8.318,8.318,8.318,8.318,8.318,8.318,8.318,8.3032,8.2675,8.2097,8.1175,7.9828,7.8431,7.7259,7.6335,7.5583,7.5225,0.0,7.5225,7.5225,7.5225,7.5225,7.5225,7.5225,7.5225,7.5225,7.5225,7.5225,7.5225,7.5082,7.4294,7.3226,7.2218,7.1473,7.133,7.1366,7.1366,7.1187,7.0975,7.1294,7.094,7.055,7.0868,7.0693,7.0514,7.0514,7.0514,7.0514,7.0514,7.0514,7.0514,7.0514,7.0514,7.0514,7.0514,7.0089,6.9735,6.9735,6.9091,6.8551,6.8541,6.8291,6.7725,6.6738,6.6696,6.6553,6.6268,6.6232,6.6125,6.5804,6.5804,6.5804,6.5804,6.6089,6.6232,6.6232,6.6517,6.691,6.741,6.741,6.7659,0.0,6.3078,6.4458,6.5212,6.4308,6.2753,6.1204,5.9085,0.0,5.5321,5.4352,5.3831,5.3943,5.4539,5.5397,5.6518,5.8612,6.123,6.4479,6.7949,7.1932,7.6876,7.884,8.0067,8.0793,8.2304,8.318,8.318,8.318,8.318,8.318,8.318,8.318,8.318,8.318,8.318,8.318,8.318,8.318,8.318,8.2564,8.1571,8.0278,7.8923,7.7558,7.6264,7.5548,7.5225,7.5225,7.5225,7.5225,7.5225,7.5225,7.5225,7.5225,7.5225,7.5225,7.5225,7.5225,7.5225,7.5082,7.4223,7.2976,7.1649,7.0797,7.0514,7.0514,7.0514,7.0514,7.0514,7.0514,7.0514,7.0514,7.0514,7.0514,7.0514,7.0514,7.0514,7.0514,7.0514,7.0514,7.0514,7.0514,7.0514,7.0514,7.0514,7.0514,7.0514,7.0514,6.9842,6.9382,6.9382,6.8734,6.8302,6.8275,6.8164,6.7802,6.7124,6.7053,6.6731,6.5911,6.5875,6.5875,6.5875,6.666,6.7053,6.7053,6.7766,6.8123,6.8195,6.8195,6.823,5.6474,0.0,5.9111,5.8735,5.8772,5.8656,0.0,5.6986,5.6292,0.0,0.0,5.4204,5.5472,5.5323,5.6331,6.0341,6.1442,6.297,6.6249,7.1146,7.5974,8.0348,8.1763,8.2416,8.2564,8.2994,8.318,8.318,8.318,8.318,8.318,8.318,8.318,8.318,8.318,8.318,8.318,8.318,8.318,8.318,8.1986,8.0701,7.9443,7.8059,7.6695,7.5512,7.526,7.5225,7.5225,7.5225,7.5225,7.5225,7.5225,7.5225,7.5225,7.5225,7.5225,7.5225,7.5225,7.5225,7.4937,7.3543,7.2798,7.229,7.094,7.0514,7.0514,7.0514,7.0514,7.0514,7.0514,7.0514,7.0514,7.0514,7.0514,7.0514,7.0514,7.0514,7.0514,7.0514,7.0514,7.0514,7.0514,7.0514,7.0514,7.0514,7.0514,7.0514,7.0514,7.0371,7.0196,7.0196,7.0086,6.9943,6.9979,6.8806,6.8021,6.7838,6.7838,6.7481,6.6731,6.6696,6.6696,6.6696,6.7445,6.7838,6.7838,6.8016,6.8409,6.9015,6.9015,6.9372,5.4427,5.6215,5.7928,5.7516,5.7742,5.7854,5.7029,5.629,0.0,0.0,0.0,0.0,5.5472,5.5609,5.6871,6.0671,6.1902,6.4326,6.9864,7.429,7.8338,8.206,8.2957,8.318,8.318,8.318,8.318,8.318,8.318,8.318,8.318,8.318,8.318,8.318,8.318,8.318,8.318,8.318,8.3032,8.2638,8.1652,8.0295,7.8586,7.7579,7.6444,7.5225,7.5225,7.5225,7.5225,7.5225,7.5225,7.5225,7.5225,7.5225,7.5225,7.5225,7.5225,7.5225,7.5225,7.5225,7.4902,7.3365,7.2763,7.2538,7.0975,7.0514,7.0514,7.0514,7.0514,7.0514,7.0514,7.0514,7.0514,7.0514,7.0514,7.0514,7.0514,7.0514,7.0514,7.0514,7.0514,7.0514,7.0514,7.0514,7.0514,7.0514,7.0514,7.0514,7.0514,7.0514,7.0514,7.0514,7.0514,7.0514,7.0514,6.9697,6.9055,6.8699,6.8663,6.8306,6.7517,6.7481,6.7659,6.8052,6.8444,6.8837,6.9194,6.9194,6.9408,6.9872,6.9872,7.0086,5.4129,5.6406,5.8576,5.8086,5.8236,5.8236,5.7153,0.0,0.0,0.0,0.0,0.0,0.0,5.6461,0.0,6.0258,6.2247,6.6172,7.3912,7.6884,7.9527,8.2846,8.318,8.318,8.318,8.318,8.318,8.318,8.318,8.318,8.318,8.318,8.318,8.318,8.3069,8.3032,8.3032,8.3032,8.2601,8.18,8.1244,7.9903,7.7968,7.7366,7.6444,7.5225,7.5225,7.5225,7.5225,7.5225,7.5225,7.5225,7.5225,7.5225,7.5225,7.5225,7.5225,7.5225,7.5225,7.5225,7.4937,7.3472,7.2941,7.2573,7.1083,7.0585,7.0514,7.0514,7.0514,7.0514,7.0514,7.0514,7.0514,7.0514,7.0514,7.0514,7.0514,7.0514,7.0514,7.0514,7.0514,7.0514,7.0514,7.0514,7.0514,7.0514,7.0514,7.0514,7.0514,7.0514,7.0514,7.0514,7.0514,7.0514,7.0514,7.0514,7.0196,6.9557,6.9453,6.9094,6.8337,6.8266,6.8587,6.9301,6.9444,6.9836,7.0514,7.0514,7.0514,7.0514,7.0514,7.0514,5.5509,5.7266,5.8049,5.5264,5.614,5.7137,5.4869,0.0,0.0,0.0,0.0,0.0,0.0,5.9858,6.1226,6.3631,6.6568,7.0471,7.5954,7.7608,7.9527,8.2846,8.318,8.318,8.318,8.318,8.318,8.318,8.318,8.318,8.318,8.318,8.318,8.318,8.2527,8.2134,8.2134,8.2134,8.1763,8.0867,8.0134,7.913,7.7952,7.7128,7.6192,7.5225,7.5225,7.5225,7.5225,7.5225,7.5225,7.5225,7.5225,7.5225,7.5225,7.5225,7.5225,7.5225,7.5225,7.5225,7.5082,7.4079,7.3404,7.2645,7.1792,7.1011,7.0514,7.0514,7.0514,7.0514,7.0514,7.0514,7.0514,7.0514,7.0514,7.0514,7.0514,7.0514,7.0514,7.0514,7.0514,7.0514,7.0514,7.0514,7.0514,7.0514,7.0514,7.0514,7.0514,7.0514,7.0514,7.0514,7.0514,7.0514,7.0514,7.0514,7.0478,7.0371,7.0371,6.9979,6.9158,6.9122,6.9194,6.9301,6.9979,7.0371,7.0514,7.0514,7.0514,7.0514,7.0514,7.0514,5.4092,5.5795,5.7032,5.5522,5.7316,5.9231,0.0,0.0,0.0,0.0,0.0,0.0,0.0,0.0,6.391,6.8111,7.1131,7.4256,7.7886,7.9051,8.0496,8.292,8.318,8.318,8.318,8.318,8.318,8.318,8.318,8.318,8.318,8.318,8.2994,8.2564,8.223,8.1562,8.0654,8.0617,8.0468,8.0003,7.941,7.8491,7.7258,7.6622,7.5942,7.5225,7.5225,7.5225,7.5225,7.5225,7.5225,7.5225,7.5225,7.5225,7.5225,7.5225,7.5225,7.5225,7.5225,7.5225,7.5082,7.4294,7.3439,7.2691,7.1902,7.1118,7.0514,7.0514,7.0514,7.0514,7.0514,7.0514,7.0514,7.0514,7.0514,7.0514,7.0514,7.0514,7.0514,7.0514,7.0514,7.0514,7.0514,7.0514,7.0514,7.0514,7.0514,7.0514,7.0514,7.0514,7.0514,7.0514,7.0514,7.0514,7.0514,7.0514,7.0514,7.0514,7.0514,7.0336,6.9979,6.9943,6.9943,6.9943,7.03,7.0514,7.0514,7.0514,7.0514,7.0514,7.0514,7.0514,5.3535,5.4851,5.614,5.6735,0.0,0.0,0.0,0.0,0.0,0.0,0.0,0.0,0.0,6.3984,6.7049,7.2436,7.5068,7.7273,7.9734,8.0607,8.154,8.3032,8.318,8.318,8.318,8.318,8.318,8.318,8.318,8.318,8.318,8.3032,8.2638,8.2023,8.1636,8.0802,7.9503,7.9317,7.9242,7.9205,7.8778,7.8016,7.6885,7.6389,7.5833,7.5367,7.526,7.5225,7.5225,7.5225,7.5225,7.5225,7.5225,7.5225,7.5225,7.5225,7.5225,7.5225,7.5225,7.5225,7.5118,7.4472,7.3758,7.2939,7.2224,7.1401,7.0761,7.055,7.0514,7.0514,7.0514,7.0514,7.0514,7.0514,7.0514,7.0514,7.0514,7.0514,7.0514,7.0514,7.0514,7.0514,7.0514,7.0514,7.0514,7.0514,7.0514,7.0514,7.0514,7.0514,7.0514,7.0514,7.0514,7.0514,7.0514,7.0514,7.0514,7.0514,7.0514,7.0514,7.0514,7.0514,7.0514,7.0514,7.0514,7.0514,7.0514,7.0514,7.0514,7.0514,7.0514,7.0514,5.6331,5.6143,5.564,5.7946,0.0,0.0,0.0,0.0,0.0,0.0,0.0,0.0,0.0,6.8284,7.1784,7.605,7.7478,7.8961,8.1466,8.1859,8.2214,8.3106,8.318,8.318,8.318,8.318,8.318,8.318,8.318,8.318,8.318,8.249,8.206,8.1986,8.0525,7.9614,7.9503,7.8778,7.8388,7.8388,7.8351,7.8016,7.7423,7.6891,7.6408,7.5942,7.5403,7.5225,7.5225,7.5225,7.5225,7.5225,7.5225,7.5225,7.5225,7.5225,7.5225,7.5225,7.5225,7.5225,7.5189,7.5153,7.4543,7.376,7.2937,7.2218,7.1437,7.0693,7.0514,7.0514,7.0514,7.0514,7.0514,7.0514,7.0514,7.0514,7.0514,7.0514,7.0514,7.0514,7.0514,7.0514,7.0514,7.0514,7.0514,7.0514,7.0514,7.0514,7.0514,7.0514,7.0514,7.0514,7.0514,7.0514,7.0514,7.0514,7.0514,7.0514,7.0514,7.0514,7.0514,7.0514,7.0514,7.0514,7.0514,7.0514,7.0514,7.0514,7.0514,7.0514,7.0514,7.0514,5.3981,5.439,5.4828,5.7327,0.0,0.0,0.0,0.0,0.0,0.0,0.0,0.0,0.0,0.0,7.4195,7.733,7.8944,8.0481,8.2453,8.2734,8.2846,8.3143,8.318,8.318,8.318,8.318,8.318,8.318,8.318,8.2994,8.249,8.2134,8.1525,8.0488,7.9837,7.9279,7.8778,7.8425,7.8276,7.8276,7.8276,7.7812,7.7014,7.6764,7.6294,7.5512,7.5296,7.5225,7.5225,7.5225,7.5225,7.5225,7.5225,7.5225,7.5225,7.5225,7.5225,7.5225,7.5225,7.5225,7.5225,7.5225,7.433,7.3223,7.2905,7.2263,7.1649,7.133,7.1613,7.1828,7.1366,7.1258,7.1258,7.1258,7.1258,7.1083,7.0585,7.0514,7.0514,7.0514,7.0514,7.0514,7.0514,7.0514,7.0514,7.0514,7.0514,7.0514,7.0514,7.0514,7.0514,7.0514,7.0514,7.0514,7.0514,7.0514,7.0514,7.0514,7.0514,7.0514,7.0514,7.0514,7.0514,7.0514,7.0514,7.0514,7.0514,7.0514,7.0514,7.0514,7.0514,7.0514,5.2828,5.357,5.4719,0.0,0.0,0.0,0.0,0.0,0.0,0.0,0.0,0.0,0.0,0.0,0.0,7.7868,7.9668,8.1281,8.2957,8.318,8.318,8.318,8.318,8.318,8.318,8.318,8.318,8.318,8.2957,8.2564,8.2023,8.1487,8.0691,7.954,7.9242,7.8852,7.8313,7.8276,7.8276,7.8276,7.8276,7.7812,7.6977,7.6626,7.6105,7.5403,7.526,7.5225,7.5225,7.5225,7.5225,7.5225,7.5225,7.5225,7.5225,7.5225,7.5225,7.5225,7.5225,7.5225,7.5189,7.4866,7.4043,7.3152,7.2869,7.2476,7.2042,7.2083,7.2404,7.276,7.2476,7.2261,7.2049,7.2049,7.2045,7.1899,7.1366,7.1258,7.1258,7.1258,7.1258,7.1258,7.1258,7.1258,7.1258,7.1258,7.1258,7.1118,7.0904,7.0904,7.0797,7.0514,7.0514,7.0514,7.0514,7.0514,7.0514,7.0514,7.0514,7.0514,7.0514,7.0514,7.0514,7.0514,7.0514,7.0514,7.0514,7.0514,7.0514,7.0514,7.0514,7.0514,5.3794,5.4388,5.5426,0.0,0.0,0.0,0.0,0.0,0.0,0.0,0.0,7.2481,7.3261,0.0,0.0,7.7756,7.9651,8.1285,8.2957,8.318,8.318,8.318,8.318,8.318,8.318,8.318,8.318,8.318,8.2453,8.1986,8.1986,8.0413,7.9503,7.9465,7.874,7.8276,7.8276,7.8276,7.8276,7.8276,7.8276,7.8016,7.7441,7.6461,7.6014,7.5978,7.5403,7.5225,7.5225,7.5225,7.5225,7.5225,7.5225,7.5225,7.5225,7.5225,7.5225,7.5225,7.5225,7.5225,7.5082,7.4294,7.3972,7.3831,7.3042,7.2789,7.2827,7.2761,7.2793,7.3008,7.383,7.3437,7.2793,7.2793,7.2798,7.2789,7.2789,7.2789,7.2789,7.2789,7.2789,7.2789,7.2789,7.2789,7.2789,7.2789,7.2789,7.2573,7.1792,7.172,7.1366,7.0585,7.0514,7.0514,7.0514,7.0514,7.0514,7.0514,7.0514,7.0514,7.0514,7.0514,7.0514,7.0514,7.0514,7.0514,7.0514,7.0514,7.0514,7.0514,7.0514,7.0514,5.2821,5.3788,0.0,0.0,0.0,0.0,0.0,0.0,0.0,0.0,0.0,7.5713,7.5936,0.0,0.0,7.8871,8.0505,8.1991,8.3032,8.318,8.318,8.318,8.318,8.318,8.318,8.318,8.2957,8.2421,8.2103,8.1471,8.0302,7.9763,7.9242,7.8666,7.8388,7.8276,7.8276,7.8276,7.8276,7.8276,7.7942,7.7436,7.6963,7.6661,7.6121,7.5403,7.526,7.5225,7.5225,7.5225,7.5225,7.5225,7.5225,7.5225,7.5225,7.5225,7.5225,7.5225,7.5225,7.5225,7.5082,7.4294,7.3654,7.3009,7.2221,7.2404,7.2798,7.2795,7.3614,7.4508,7.4795,7.4688,7.4365,7.3794,7.3653,7.3476,7.2941,7.2834,7.2834,7.2834,7.2834,7.2834,7.2834,7.2834,7.2834,7.2834,7.2834,7.2513,7.1799,7.1225,7.0797,7.0514,7.0514,7.0514,7.0514,7.0514,7.0514,7.0514,7.0514,7.0514,7.0514,7.0514,7.0514,7.0514,7.0514,7.0514,7.0514,7.0514,7.0514,7.0514,7.0514,7.0514,5.3859,5.5606,0.0,0.0,0.0,0.0,0.0,0.0,0.0,0.0,0.0,7.7199,7.7496,7.7942,0.0,7.9799,8.11,8.2251,8.3069,8.318,8.318,8.318,8.318,8.3069,8.2734,8.2697,8.2363,8.1508,8.1174,8.0542,7.9558,7.9187,7.8778,7.8313,7.8276,7.8165,7.7812,7.7812,7.7627,7.7274,7.6977,7.6479,7.5726,7.5836,7.5296,7.4259,7.4259,7.4259,7.4259,7.4259,7.4259,7.4294,7.4617,7.4724,7.4759,7.5118,7.5225,7.5225,7.5225,7.5225,7.4973,7.3901,7.3191,7.2645,7.1899,7.2226,7.287,7.3188,7.4223,7.5225,7.5225,7.5225,7.5118,7.4617,7.4472,7.433,7.3865,7.3794,7.3794,7.3794,7.3794,7.3794,7.3794,7.3794,7.3794,7.3794,7.3225,7.2656,7.2191,7.1192,7.0514,7.0514,7.0514,7.0514,7.0514,7.0514,7.0514,7.0514,7.0514,7.0514,7.0514,7.0514,7.0514,7.0514,7.0514,7.0514,7.0514,7.0514,7.0657,7.0978,7.0978,7.1121,5.5835,0.0,0.0,0.0,0.0,0.0,0.0,0.0,7.7218,7.8016,0.0,7.7367,7.8072,7.8276,7.8869,8.0374,8.1413,8.2267,8.301,8.3143,8.3069,8.3069,8.2994,8.266,8.1954,8.188,8.1508,8.0654,7.9948,7.9483,7.9389,7.8722,7.8239,7.8165,7.8165,7.783,7.6977,7.694,7.6569,7.581,7.581,7.5273,7.4219,7.456,7.4009,7.2795,7.2795,7.2795,7.2795,7.2795,7.2795,7.2831,7.3581,7.3974,7.4079,7.483,7.5153,7.5225,7.5225,7.5153,7.483,7.333,7.2727,7.2573,7.1828,7.2182,7.2935,7.3653,7.4508,7.5225,7.5225,7.5225,7.5225,7.5225,7.5225,7.5225,7.5225,7.5225,7.5225,7.5225,7.5225,7.5225,7.5225,7.5225,7.5189,7.5118,7.3797,7.2796,7.2724,7.144,7.0514,7.0514,7.0585,7.0621,7.0621,7.0657,7.0728,7.0728,7.0728,7.0728,7.0728,7.0585,7.0514,7.0514,7.0514,7.0514,7.0514,7.0585,7.0978,7.1692,7.1763,7.2156,5.4109,5.6799,0.0,0.0,0.0,7.1875,7.3642,7.5019,7.613,7.6899,7.7242,7.7467,7.7651,7.8321,7.9187,7.9928,8.1317,8.2412,8.2597,8.2385,8.2251,8.2251,8.1657,8.1174,8.0988,8.0988,8.0617,7.9799,7.9614,7.9242,7.8611,7.8388,7.7979,7.7347,7.7365,7.6921,7.6088,7.6101,7.5984,7.5835,7.5835,7.4948,7.3437,7.4087,7.3793,7.2794,7.2794,7.2794,7.2794,7.2794,7.2794,7.283,7.2973,7.344,7.4008,7.4223,7.4688,7.5225,7.5225,7.4795,7.4079,7.3115,7.2371,7.1792,7.0975,7.172,7.2863,7.3011,7.4079,7.5225,7.5225,7.5225,7.5225,7.5225,7.5225,7.5225,7.5225,7.5225,7.5225,7.5225,7.5225,7.5225,7.5225,7.5225,7.4975,7.4332,7.3404,7.2547,7.2047,7.1085,7.0514,7.0514,7.1085,7.1442,7.1442,7.1977,7.2298,7.2298,7.2298,7.2298,7.2298,7.1156,7.0514,7.0514,7.0514,7.0514,7.0514,7.1121,7.1513,7.1692,7.2298,7.2655,0.0,0.0,0.0,6.5637,0.0,7.334,7.3523,7.4623,7.5653,7.5923,7.6927,7.773,7.773,7.8528,7.9347,8.0011,8.0516,8.102,8.1359,8.0992,8.0727,8.1007,8.0659,8.0311,8.0134,8.0134,7.9799,7.8982,7.8908,7.8573,7.7756,7.7719,7.731,7.651,7.6473,7.6084,7.5217,7.5209,7.5016,7.4681,7.4681,7.3905,7.2582,7.2509,7.2182,7.172,7.172,7.172,7.172,7.172,7.172,7.1756,7.2147,7.251,7.3012,7.376,7.4294,7.4652,7.4652,7.4365,7.3794,7.2656,7.1977,7.1509,7.0761,7.133,7.2364,7.269,7.365,7.4724,7.5118,7.5225,7.5225,7.5225,7.5225,7.5225,7.5225,7.5225,7.5225,7.5225,7.5225,7.5225,7.5225,7.5225,7.5046,7.4618,7.3904,7.3261,7.2869,7.212,7.1585,7.1585,7.1977,7.2227,7.2227,7.2584,7.2798,7.2798,7.2798,7.2798,7.2798,7.2013,7.1585,7.1585,7.1585,7.1585,7.1585,7.2013,7.2405,7.2798,7.3191,7.3583,0.0,0.0,6.2728,6.7342,7.0969,0.0,7.2753,7.3843,7.4965,7.5013,7.6436,7.7655,7.7655,7.8244,7.8971,7.9694,7.9366,7.9257,7.9949,7.9464,7.915,7.9719,7.967,7.9519,7.9297,7.9279,7.9019,7.8351,7.8165,7.7793,7.7142,7.6939,7.6456,7.5618,7.558,7.5246,7.4397,7.4391,7.4019,7.3372,7.3224,7.2716,7.1863,7.094,7.0514,7.0514,7.0514,7.0514,7.0514,7.0514,7.0514,7.055,7.1258,7.1613,7.183,7.3119,7.3652,7.383,7.383,7.3687,7.3404,7.2116,7.172,7.1613,7.0904,7.1294,7.2009,7.2798,7.3509,7.4223,7.4973,7.5225,7.5225,7.5225,7.5225,7.5225,7.5225,7.5225,7.5225,7.5225,7.5225,7.5225,7.5225,7.5225,7.5153,7.501,7.4404,7.3904,7.3726,7.3262,7.2941,7.2941,7.2976,7.3012,7.3012,7.3119,7.3191,7.3191,7.3191,7.3191,7.3191,7.3191,7.3191,7.3191,7.2941,7.2798,7.2798,7.2941,7.3369,7.4011,7.4154,7.4582,0.0,0.0,6.3912,0.0,6.9425,7.1629,0.0,0.0,7.2615,0.0,7.526,7.6285,7.6285,7.6553,7.6984,7.7447,7.8092,7.8526,7.8635,7.8395,7.8309,7.8774,7.8246,7.7983,7.8406,7.8462,7.8425,7.8313,7.7645,7.7199,7.7087,7.6382,7.5601,7.4784,7.4747,7.4338,7.3558,7.3521,7.3484,7.3372,7.2541,7.2071,7.1863,7.094,7.0514,7.0514,7.0514,7.0514,7.0514,7.0514,7.0514,7.0514,7.0621,7.1083,7.172,7.1902,7.2406,7.2973,7.2973,7.2549,7.1973,7.1792,7.172,7.1684,7.1544,7.2075,7.2824,7.3611,7.394,7.4223,7.4973,7.5225,7.5225,7.5225,7.5225,7.5225,7.5225,7.5225,7.5225,7.5225,7.5225,7.5225,7.5225,7.5225,7.4975,7.4297,7.3869,7.3333,7.2477,7.3012,7.3512,7.3512,7.3726,7.3869,7.3869,7.4475,7.4868,7.4868,7.4868,7.4868,7.4868,7.4868,7.4868,7.4868,7.3512,7.2798,7.2798,7.3512,7.3904,7.4047,7.4725,7.5118,5.3207,5.8246,6.3039,0.0,6.8443,7.0246,7.1437,7.1692,7.2013,7.3119,7.3796,7.4474,7.537,7.562,7.594,7.6625,7.6625,7.6733,7.7272,7.6768,7.6646,7.7145,7.7139,7.7231,7.7805,7.8127,7.809,7.7645,7.7273,7.6679,7.575,7.5341,7.4747,7.393,7.393,7.3744,7.3372,7.3372,7.3372,7.3372,7.2355,7.1927,7.1863,7.094,7.0514,7.0514,7.0514,7.0514,7.0514,7.0514,7.0514,7.0514,7.0514,7.0693,7.1047,7.1509,7.1904,7.2192,7.2192,7.2226,7.2221,7.1801,7.1979,7.2335,7.2335,7.2584,7.2976,7.3759,7.3976,7.4223,7.4973,7.5225,7.5225,7.5225,7.5225,7.5225,7.5225,7.5225,7.5225,7.5225,7.5225,7.5225,7.5225,7.5225,7.5082,7.4725,7.4582,7.4332,7.3904,7.4225,7.4511,7.4511,7.4618,7.4689,7.4689,7.501,7.5225,7.5225,7.5225,7.5225,7.5225,7.5225,7.5225,7.5225,7.4511,7.4154,7.4154,7.4511,7.4689,7.4689,7.5046,7.5225,0.0,0.0,6.0339,6.424,6.6693,6.8606,0.0,0.0,7.1371,7.2334,7.2513,7.2941,7.4332,7.4761,7.5153,7.5974,7.5581,7.5403,7.601,7.5581,7.5478,7.6104,7.6323,7.6627,7.7179,7.7496,7.733,7.6625,7.6513,7.5899,7.4673,7.4413,7.4004,7.341,7.3372,7.3372,7.3372,7.3372,7.3372,7.3372,7.2369,7.19,7.1919,7.0936,7.0514,7.0514,7.0514,7.0514,7.0514,7.0514,7.0514,7.0514,7.0514,7.0514,7.055,7.1187,7.1294,7.1083,7.133,7.1649,7.1902,7.1729,7.2224,7.2793,7.3044,7.3115,7.3259,7.4083,7.419,7.4223,7.4973,7.5225,7.5225,7.5225,7.5225,7.5225,7.5225,7.5225,7.5225,7.5225,7.5225,7.5225,7.5225,7.5225,7.5225,7.5225,7.5225,7.5225,7.5225,7.5225,7.5225,7.5225,7.5225,7.5225,7.5225,7.5225,7.5225,7.5225,7.5225,7.5225,7.5225,7.5225,7.5225,7.5225,7.5225,7.5225,7.5225,7.5225,7.5225,7.5225,7.5225,7.5225,0.0,5.1958,0.0,5.9273,6.3127,6.6403,0.0,6.8873,6.9872,7.1442,7.1763,7.1977,7.2762,7.3547,7.4332,7.5153,7.5225,7.5225,7.526,7.5225,7.5585,7.6534,7.6008,7.5786,7.6332,7.6125,7.5736,7.5269,7.4903,7.4673,7.4598,7.3855,7.341,7.3372,7.3372,7.3372,7.3372,7.3372,7.3372,7.3372,7.2355,7.1865,7.1893,7.0924,7.0514,7.0514,7.0514,7.0514,7.0514,7.0514,7.0514,7.0514,7.0514,7.0514,7.0514,7.055,7.0089,6.9557,7.0267,7.0089,6.9738,7.1231,7.2224,7.2973,7.3685,7.3936,7.4079,7.4939,7.4617,7.4223,7.4973,7.5225,7.5225,7.5225,7.5225,7.5225,7.5225,7.5225,7.5225,7.5225,7.5225,7.5225,7.5225,7.5225,7.5225,7.5225,7.5225,7.5225,7.5225,7.5225,7.5225,7.5225,7.5225,7.5225,7.5225,7.5225,7.5225,7.5225,7.5225,7.5225,7.5225,7.5225,7.5225,7.5225,7.5225,7.5225,7.5225,7.5225,7.5225,7.5225,7.5225,7.5225,4.7854,0.0,0.0,5.6668,6.0237,6.3306,6.5375,6.7659,6.9479,7.005,7.0585,7.1156,7.1942,7.2727,7.3333,7.3619,7.3654,7.3654,7.3654,7.3654,7.3797,7.4144,7.423,7.4377,7.457,7.5051,7.5087,7.4401,7.4495,7.4338,7.3855,7.3558,7.3372,7.3372,7.3372,7.3268,7.2963,7.3268,7.3071,7.2443,7.2043,7.1745,7.1395,7.0817,7.0514,7.0514,7.0514,7.0514,7.0514,7.0514,7.0514,7.0514,7.0514,7.0186,6.9705,6.9705,6.9542,6.9311,6.9654,7.019,7.1014,7.2086,7.294,7.3761,7.4545,7.4759,7.483,7.5153,7.4973,7.483,7.5153,7.5225,7.5225,7.5225,7.5225,7.5225,7.5225,7.5225,7.5225,7.5225,7.5225,7.5225,7.5225,7.5225,7.5225,7.5225,7.5225,7.5225,7.5225,7.5225,7.5225,7.5225,7.5225,7.5225,7.5225,7.5225,7.5225,7.5225,7.5225,7.5225,7.5225,7.5225,7.5225,7.5225,7.5225,7.5225,7.5225,7.5225,7.5225,7.5225,7.5225,7.5225,4.6222,0.0,0.0,0.0,5.6989,5.9452,6.3663,6.5839,6.7338,6.8623,6.9551,7.0336,7.1156,7.1692,7.2191,7.2727,7.2798,7.2798,7.2798,7.2798,7.2869,7.3042,7.3132,7.3188,7.3152,7.3849,7.3991,7.3324,7.3831,7.393,7.341,7.3372,7.3372,7.3372,7.3372,7.3162,7.2686,7.3017,7.2705,7.1915,7.1732,7.1511,7.1187,7.0678,7.0514,7.0514,7.0514,7.0514,7.0514,7.0514,7.0514,7.0514,7.0514,7.0038,6.9333,6.9584,6.9388,6.8952,6.9511,7.0257,7.1118,7.2371,7.3119,7.3761,7.4868,7.5225,7.5225,7.5225,7.5225,7.5225,7.5225,7.5225,7.5225,7.5225,7.5225,7.5225,7.5225,7.5225,7.5225,7.5225,7.5225,7.5225,7.5225,7.5225,7.5225,7.5225,7.5225,7.5225,7.5225,7.5225,7.5225,7.5225,7.5225,7.5225,7.5225,7.5225,7.5225,7.5225,7.5225,7.5225,7.5225,7.5225,7.5225,7.5225,7.5225,7.5225,7.5225,7.5225,7.5225,7.5225,7.5225,7.5225,0.0,0.0,0.0,0.0,5.3278,5.4813,6.2485,6.3127,6.3234,6.7124,6.8587,6.9408,7.0264,7.0443,7.0942,7.2441,7.2727,7.2727,7.2727,7.2727,7.2937,7.3447,7.2828,7.2358,7.2322,7.2569,7.248,7.1975,7.2816,7.3372,7.3372,7.3372,7.3372,7.3372,7.3372,7.3162,7.2686,7.2686,7.2422,7.1854,7.1422,7.1167,7.1139,7.0647,7.0478,7.0514,7.0514,7.0514,7.0514,7.0514,7.0514,7.0514,7.0514,6.9975,6.9358,7.0171,6.943,6.8337,6.9907,6.9982,6.9702,7.2014,7.2798,7.3083,7.4725,7.5225,7.5225,7.5225,7.5225,7.5225,7.5225,7.5225,7.5225,7.5225,7.5225,7.5225,7.5225,7.5225,7.5225,7.5225,7.5225,7.5225,7.5225,7.5225,7.5225,7.5225,7.5225,7.5225,7.5225,7.5225,7.5225,7.5225,7.5225,7.5225,7.5225,7.5225,7.5225,7.5225,7.5225,7.5225,7.5225,7.5225,7.5225,7.5225,7.5225,7.5225,7.5225,7.5225,7.5225,7.5225,7.5225,7.5225,4.455,0.0,0.0,0.0,0.0,0.0,5.4634,5.6704,5.9131,6.3092,6.4519,6.5804,6.8302,6.9229,6.98,7.0193,7.0764,7.1156,7.1156,7.1156,7.119,7.1326,7.1148,7.117,7.1528,7.1878,7.2034,7.1915,7.2816,7.3071,7.2328,7.265,7.2908,7.2908,7.3215,7.3017,7.2153,7.248,7.2071,7.0913,7.0498,7.0469,7.0647,6.9975,6.9943,7.0514,7.0514,7.0514,7.0514,7.0514,7.0514,7.0514,7.0514,6.9654,6.8505,6.9328,6.8939,6.823,6.9301,6.9839,7.0445,7.2227,7.2798,7.3083,7.4725,7.5225,7.5225,7.5225,7.5225,7.5225,7.5225,7.5225,7.5225,7.5225,7.5225,7.5225,7.5225,7.5225,7.5225,7.5225,7.5225,7.5225,7.5225,7.5225,7.5225,7.5225,7.5225,7.5225,7.5225,7.5225,7.5225,7.5225,7.5225,7.5225,7.5225,7.5225,7.5225,7.5225,7.5225,7.5225,7.5225,7.5225,7.5225,7.5225,7.5225,7.5225,7.5225,7.5225,7.5225,7.5225,7.5225,7.5225,0.0,0.0,0.0,0.0,0.0,0.0,5.3207,5.4563,5.624,6.0843,6.2628,6.4055,6.6232,6.7302,6.7838,6.7838,6.8516,6.9372,7.0371,7.0514,7.0514,7.0514,7.0514,7.0615,7.0913,7.1332,7.1671,7.1915,7.2443,7.25,7.1975,7.2422,7.2502,7.2171,7.2282,7.1875,7.0894,7.1048,7.0604,6.9479,6.9311,6.9526,6.9979,6.9515,6.9765,7.0514,7.0514,7.0514,7.0514,7.0514,7.0514,7.0514,7.0514,6.9479,6.8225,6.9404,6.9051,6.8266,6.9408,7.0122,7.0764,7.2298,7.2798,7.3083,7.4725,7.5225,7.5225,7.5225,7.5225,7.5225,7.5225,7.5225,7.5225,7.5225,7.5225,7.5225,7.5225,7.5225,7.5225,7.5225,7.5225,7.5225,7.5225,7.5225,7.5225,7.5225,7.5225,7.5225,7.5225,7.5225,7.5225,7.5225,7.5225,7.5225,7.5225,7.5225,7.5225,7.5225,7.5225,7.5225,7.5225,7.5225,7.5225,7.5225,7.5225,7.5151,7.4968,7.5151,7.5225,7.5225,7.5225,7.5225,0.0,0.0,0.0,0.0,4.8282,0.0,5.4491,5.4242,5.3885,5.8881,6.1058,6.2414,6.3484,6.4412,6.4983,6.4912,6.5911,6.7517,6.98,7.0193,7.0193,7.0122,7.0122,7.0122,7.0154,7.0656,7.1142,7.1709,7.1709,7.1672,7.1659,7.2013,7.1948,7.112,7.0872,7.0332,6.9449,6.9165,6.867,6.8088,6.8016,6.8409,6.9194,6.9194,6.9622,7.0371,7.0478,7.0514,7.0514,7.0514,7.0514,7.0514,7.0514,6.9515,6.8302,6.9907,6.9479,6.8337,6.9943,7.0514,7.0728,7.2191,7.2655,7.2976,7.4582,7.5082,7.5082,7.5189,7.5225,7.5225,7.5225,7.5225,7.5225,7.5225,7.5225,7.5225,7.5225,7.5225,7.5225,7.5225,7.5225,7.5225,7.5225,7.5225,7.5225,7.5225,7.5225,7.5225,7.5225,7.5225,7.5225,7.5225,7.5225,7.5225,7.5225,7.5225,7.5225,7.5225,7.5225,7.5225,7.5225,7.5225,7.5225,7.5225,7.5151,7.4968,7.4593,7.4968,7.5225,7.5116,7.5116,7.5151,0.0,0.0,0.0,0.0,4.9139,0.0,4.764,4.8639,5.0495,5.2208,5.3314,5.4813,5.7489,5.9166,5.9916,5.9273,6.2485,6.5697,6.7445,6.8195,6.8337,6.7731,6.7659,6.7855,6.8228,6.8867,6.9828,7.093,7.0604,7.0252,7.0018,6.9781,6.9564,6.9382,7.0031,6.9958,6.9043,6.9249,6.8909,6.8088,6.7481,6.7588,6.8337,6.8337,6.8766,6.9586,7.0229,7.0514,7.0514,7.0514,7.0514,7.0514,7.0514,6.9515,6.8302,6.9907,6.9479,6.8337,6.9943,7.0514,7.0657,7.162,7.1906,7.2191,7.3761,7.4261,7.4368,7.501,7.5225,7.5225,7.5225,7.5225,7.5225,7.5225,7.5225,7.5225,7.5225,7.5225,7.5225,7.5225,7.5225,7.5225,7.5225,7.5225,7.5225,7.5225,7.5225,7.5225,7.5225,7.5225,7.5225,7.5225,7.5225,7.5225,7.5225,7.5225,7.5225,7.5225,7.5225,7.5225,7.5225,7.5225,7.5225,7.5225,7.4894,7.4669,7.4593,7.4968,7.5042,7.4669,7.4669,7.4894,0.0,0.0,0.0,5.0507,5.0073,0.0,0.0,4.899,4.9518,5.1329,5.1708,5.2315,5.4277,5.5277,5.5955,5.6347,5.938,6.1807,6.2235,6.534,6.741,6.7017,6.6624,6.6567,6.6993,6.7563,6.8274,6.9129,6.9427,6.9063,6.8028,6.7788,6.7486,6.7089,6.7692,6.7787,6.7089,6.745,6.742,6.6946,6.6589,6.6803,6.7552,6.7909,6.8551,6.9372,7.0157,7.0514,7.0514,7.0514,7.0514,7.0514,7.0514,6.9765,6.8801,6.9622,6.9408,6.8801,6.9622,7.0157,7.0621,7.1442,7.1692,7.1906,7.3048,7.369,7.4118,7.4511,7.4903,7.5225,7.5225,7.5225,7.5225,7.5225,7.5225,7.5225,7.5225,7.5225,7.5225,7.5225,7.5225,7.5225,7.5225,7.5225,7.5225,7.5225,7.5225,7.5225,7.5225,7.5225,7.5225,7.5225,7.5225,7.5225,7.5225,7.5225,7.5225,7.5225,7.5225,7.5225,7.5225,7.5225,7.5225,7.5225,7.4819,7.4517,7.4252,7.4482,7.4593,7.4593,7.4364,7.4517,0.0,0.0,5.2608,5.3551,5.1637,4.9983,0.0,0.0,0.0,5.12,5.1137,5.0994,5.1637,5.1744,5.2172,5.3421,5.574,5.7168,5.6525,6.1236,6.4769,6.4947,6.4912,6.4992,6.5202,6.5838,6.6557,6.7439,6.7797,6.7506,6.6259,6.6163,6.5743,6.495,6.5295,6.5402,6.5166,6.5546,6.5788,6.5804,6.5804,6.6125,6.6767,6.7552,6.8337,6.9122,6.9943,7.0371,7.0514,7.0514,7.0514,7.0514,7.0514,7.0015,6.9301,6.9301,6.9229,6.9087,6.9265,6.9729,7.0407,7.1192,7.1549,7.1799,7.2405,7.3155,7.3833,7.3976,7.4475,7.501,7.5153,7.5225,7.5225,7.5225,7.5225,7.5225,7.5225,7.5225,7.5225,7.5225,7.5225,7.5225,7.5225,7.5225,7.5225,7.5225,7.5225,7.5225,7.5225,7.5225,7.5225,7.5225,7.5225,7.5225,7.5225,7.5225,7.5225,7.5225,7.5225,7.5225,7.5225,7.5225,7.5116,7.5078,7.4669,7.4252,7.3782,7.3702,7.394,7.4364,7.394,7.4018,5.7869,5.8436,5.8419,5.4034,5.4978,5.523,4.862,0.0,4.9579,4.7105,0.0,4.7533,4.764,0.0,0.0,4.789,5.0495,5.2457,5.2386,5.4777,5.6811,5.7525,5.9987,6.1485,6.1187,6.2506,6.4396,6.6952,6.5259,6.453,6.5416,6.5008,6.4439,6.3678,6.4076,6.4435,6.4653,6.5154,6.5489,6.5804,6.5804,6.5839,6.5946,6.6767,6.7517,6.8266,6.9087,6.9836,7.0514,7.0514,7.0514,7.0514,7.0514,7.0015,6.9301,6.9301,6.8873,6.8337,6.9051,6.9372,6.9586,7.0371,7.1121,7.1727,7.1799,7.2334,7.3083,7.3833,7.4083,7.4332,7.501,7.5225,7.5225,7.5225,7.5225,7.5225,7.5225,7.5225,7.5225,7.5225,7.5225,7.5225,7.5225,7.5225,7.5225,7.5225,7.5225,7.5225,7.5225,7.5225,7.5225,7.5225,7.5225,7.5225,7.5225,7.5225,7.5225,7.5225,7.5225,7.5225,7.5225,7.5225,7.5042,7.4669,7.4174,7.3782,7.338,7.3005,7.3088,7.3496,7.338,7.3622,5.8863,5.9169,5.9218,5.624,5.5794,5.4857,5.038,4.9227,4.8676,4.7446,0.0,0.0,0.0,0.0,0.0,0.0,4.8496,4.9495,4.9032,5.0994,5.3278,5.5455,5.6617,5.7729,5.9024,6.0359,6.1739,6.313,6.2129,6.1967,6.312,6.3227,6.3092,6.277,6.3406,6.3585,6.327,6.4312,6.4956,6.5126,6.559,6.5804,6.5839,6.6624,6.7374,6.8123,6.8944,6.9765,7.0514,7.0514,7.0514,7.0514,7.0514,7.03,6.9907,6.8944,6.8694,6.873,6.8159,6.8551,6.9444,7.0229,7.0728,7.1014,7.1014,7.1834,7.2869,7.3226,7.3976,7.4796,7.5118,7.5225,7.5225,7.5225,7.5225,7.5225,7.5225,7.5225,7.5225,7.5225,7.5225,7.5225,7.5225,7.5225,7.5225,7.5225,7.5225,7.5225,7.5225,7.5225,7.5225,7.5225,7.5225,7.5225,7.5225,7.5225,7.5225,7.5225,7.5225,7.5225,7.5225,7.5004,7.4744,7.4593,7.3861,7.3461,7.3334,7.2922,7.2755,7.2922,7.2922,7.317,6.0444,6.0641,6.0581,5.7877,5.615,5.4381,5.1417,5.0008,4.9216,4.8703,4.8432,0.0,0.0,0.0,4.6346,4.7277,0.0,4.7519,4.6641,4.7957,4.9984,5.2636,5.3526,5.4733,5.6969,5.7464,5.8272,5.9762,5.8979,5.9289,6.1436,6.2021,6.2271,6.2271,6.2806,6.2913,6.2592,6.352,6.4198,6.4626,6.5197,6.559,6.5839,6.6624,6.7374,6.8123,6.8944,6.9765,7.0514,7.0514,7.0514,7.0514,7.0514,7.0514,7.03,6.8694,6.848,6.8801,6.7695,6.8337,6.9729,7.03,7.0514,7.0514,7.0514,7.1442,7.2548,7.2727,7.3797,7.4939,7.5153,7.5225,7.5225,7.5225,7.5225,7.5225,7.5225,7.5225,7.5225,7.5225,7.5225,7.5225,7.5225,7.5225,7.5225,7.5225,7.5225,7.5225,7.5225,7.5225,7.5225,7.5225,7.5225,7.5225,7.5225,7.5225,7.5225,7.5225,7.5225,7.5116,7.5042,7.4744,7.4517,7.4287,7.3657,7.3252,7.317,7.2838,7.2671,7.2671,7.2671,7.2838,6.3676,6.4642,6.4382,5.7955,5.6636,5.5465,4.982,5.0684,5.2142,5.0137,5.2232,5.3796,5.1915,5.0581,4.9478,4.8712,4.7601,0.0,0.0,4.5215,4.5737,4.7114,5.0315,5.3002,5.4665,5.2999,5.3627,5.7939,5.6046,5.6597,6.0902,6.1843,6.2271,6.2271,6.2307,6.2663,6.3341,6.2699,6.3127,6.4626,6.4626,6.5054,6.5839,6.6624,6.7374,6.8123,6.8944,6.9765,7.0514,7.0514,7.0514,7.0514,7.0514,7.0514,7.03,6.8694,6.8123,6.8123,6.8088,6.9122,7.0478,7.0478,7.0514,7.0514,7.0514,7.1085,7.187,7.2584,7.3405,7.4225,7.501,7.5225,7.5225,7.5225,7.5225,7.5225,7.5225,7.5225,7.5225,7.5225,7.5225,7.5225,7.5225,7.5225,7.5225,7.5225,7.5225,7.5225,7.5225,7.5225,7.5225,7.5225,7.5225,7.5225,7.5225,7.5225,7.5225,7.5225,7.5225,7.5078,7.4593,7.4593,7.4209,7.3334,7.3334,7.3088,7.2755,7.2671,7.2671,7.2671,7.2671,7.2671,0.0,0.0,6.65,6.1596,5.9616,5.7487,5.2072,5.2063,5.2595,5.0605,5.2389,5.3727,5.1991,5.0439,4.918,4.8338,4.728,4.5896,0.0,4.3206,4.3185,4.4543,4.7969,5.0453,5.0955,5.1078,5.2156,5.4517,5.4115,5.543,5.9309,6.0772,6.1736,6.2271,6.277,6.2913,6.2663,6.2913,6.327,6.3805,6.4341,6.5019,6.5804,6.6089,6.691,6.8123,6.8373,6.9265,7.0514,7.0514,7.0514,7.0514,7.0514,7.0514,7.03,6.8694,6.8088,6.8088,6.8088,6.8801,6.98,7.0336,7.0514,7.0514,7.0514,7.1406,7.2477,7.2727,7.3761,7.4868,7.5153,7.5225,7.5225,7.5225,7.5225,7.5225,7.5225,7.5225,7.5225,7.5225,7.5225,7.5225,7.5225,7.5225,7.5225,7.5225,7.5225,7.5225,7.5225,7.5225,7.5225,7.5225,7.5225,7.5225,7.5225,7.5225,7.5225,7.5225,7.5225,7.5042,7.4593,7.4252,7.3861,7.3334,7.3088,7.2838,7.2671,7.2671,7.2671,7.2671,7.2671,7.2671,6.7243,6.8097,0.0,6.4196,6.245,6.0252,5.4818,5.4888,5.547,5.3182,5.4239,5.5514,5.545,5.2791,5.057,5.035,4.8367,4.5916,0.0,4.2341,4.2255,4.3256,4.5838,4.7627,4.7916,4.8379,4.9481,5.1472,5.1597,5.3283,5.7239,5.9238,6.0879,6.2235,6.302,6.3163,6.2699,6.2877,6.3127,6.3413,6.3912,6.4733,6.5839,6.6375,6.716,6.8123,6.8694,6.9551,7.0514,7.0514,7.0514,7.0514,7.0514,7.0514,7.03,6.8694,6.8088,6.8088,6.8088,6.8801,6.9836,7.0336,7.0514,7.0514,7.0514,7.1585,7.2798,7.2798,7.3976,7.5225,7.5225,7.5225,7.5225,7.5225,7.5225,7.5225,7.5225,7.5225,7.5225,7.5225,7.5225,7.5225,7.5225,7.5225,7.5225,7.5225,7.5225,7.5225,7.5225,7.5225,7.5225,7.5225,7.5225,7.5225,7.5225,7.5225,7.5225,7.5225,7.5042,7.4819,7.4364,7.394,7.3461,7.3088,7.2838,7.2671,7.2671,7.2671,7.2671,7.2671,7.2671,7.2671]},{"header":{"parameterUnit":"m.s-1","parameterCategory":1,"la1":30.6,"la2":29.2853,"lo1":-89.7004,"lo2":-87.6739,"dy":0.0162,"dx":0.0183,"nx":112,"ny":82,"refTime":"2025-04-04T12:00:00:Z","depth":0,"parameterNumber":3,"parameterNumberName":"V-component_of_WINDS"},"data":[0.0,0.0,0.0,0.0,0.0,0.0,0.0,0.0,0.0,0.0,0.0,0.0,0.0,0.0,0.0,0.0,0.0,0.0,0.0,0.0,0.0,0.0,0.0,0.0,0.0,0.0,0.0,0.0,0.0,0.0,0.0,0.0,0.0,0.0,0.0,0.0,0.0,0.0,0.0,0.0,0.0,0.0,0.0,0.0,0.0,0.0,0.0,0.0,0.0,0.0,0.0,0.0,0.0,0.0,0.0,0.0,0.0,0.0,0.0,0.0,0.0,0.0,0.0,0.0,0.0,0.0,0.0,0.0,0.0,0.0,0.0,0.0,0.0,0.0,0.0,0.0,0.0,0.0,0.0,0.0,0.0,0.0,0.0,0.0,0.0,0.0,0.0,0.0,0.0,0.0,-1.7879,-1.8302,-1.879,-1.9132,-1.9132,-1.8324,-1.7153,-1.5596,0.0,0.0,0.0,0.0,0.0,0.0,0.0,0.0,0.0,0.0,0.0,0.0,0.0,0.0,0.0,0.0,0.0,0.0,0.0,0.0,0.0,0.0,0.0,0.0,0.0,0.0,0.0,0.0,0.0,0.0,0.0,0.0,0.0,0.0,0.0,0.0,0.0,0.0,0.0,0.0,0.0,0.0,0.0,0.0,0.0,0.0,0.0,0.0,0.0,0.0,0.0,0.0,0.0,0.0,0.0,0.0,0.0,0.0,0.0,0.0,0.0,0.0,0.0,0.0,0.0,0.0,0.0,0.0,0.0,0.0,0.0,0.0,0.0,0.0,0.0,0.0,0.0,0.0,0.0,0.0,0.0,0.0,0.0,0.0,0.0,0.0,0.0,0.0,0.0,0.0,0.0,0.0,0.0,0.0,0.0,0.0,0.0,0.0,0.0,0.0,0.0,0.0,0.0,0.0,-1.8296,-1.9968,-1.9761,-1.941,-1.941,-1.8263,-1.696,-1.5584,0.0,0.0,0.0,0.0,0.0,0.0,0.0,0.0,0.0,0.0,0.0,0.0,0.0,0.0,0.0,0.0,0.0,0.0,0.0,0.0,0.0,0.0,0.0,0.0,0.0,0.0,0.0,0.0,0.0,0.0,0.0,0.0,0.0,0.0,0.0,0.0,0.0,0.0,0.0,0.0,0.0,0.0,0.0,0.0,0.0,0.0,0.0,0.0,0.0,0.0,0.0,0.0,0.0,0.0,0.0,0.0,0.0,0.0,0.0,0.0,0.0,0.0,0.0,0.0,0.0,0.0,0.0,0.0,0.0,0.0,0.0,0.0,0.0,0.0,0.0,0.0,0.0,0.0,0.0,0.0,0.0,0.0,0.0,0.0,0.0,0.0,0.0,0.0,0.0,0.0,0.0,0.0,0.0,0.0,0.0,0.0,0.0,0.0,0.0,0.0,0.0,0.0,0.0,-1.9094,-2.0237,-2.2173,-2.1186,-2.0434,-2.0573,-1.8828,-1.7129,-1.5801,-1.457,0.0,0.0,0.0,0.0,0.0,0.0,0.0,0.0,0.0,0.0,0.0,0.0,0.0,0.0,0.0,0.0,0.0,0.0,0.0,0.0,0.0,0.0,0.0,0.0,0.0,0.0,0.0,0.0,0.0,0.0,0.0,0.0,0.0,0.0,0.0,0.0,0.0,0.0,0.0,0.0,0.0,0.0,0.0,0.0,0.0,0.0,0.0,0.0,0.0,0.0,0.0,0.0,0.0,0.0,0.0,0.0,0.0,0.0,0.0,0.0,0.0,0.0,0.0,0.0,0.0,0.0,0.0,0.0,0.0,0.0,0.0,0.0,0.0,0.0,0.0,0.0,0.0,0.0,0.0,0.0,0.0,0.0,0.0,0.0,0.0,0.0,0.0,0.0,0.0,0.0,0.0,0.0,0.0,0.0,0.0,0.0,0.0,0.0,0.0,0.0,0.0,0.0,-2.1353,-2.2038,-2.3642,-2.2406,-2.1463,-2.1159,-1.9198,-1.7334,-1.5958,-1.4401,0.0,0.0,0.0,0.0,0.0,0.0,0.0,0.0,0.0,0.0,0.0,0.0,0.0,0.0,0.0,0.0,0.0,0.0,0.0,0.0,0.0,0.0,0.0,0.0,0.0,0.0,0.0,0.0,0.0,0.0,0.0,0.0,0.0,0.0,0.0,0.0,0.0,0.0,0.0,0.0,0.0,0.0,0.0,0.0,0.0,0.0,0.0,0.0,0.0,0.0,0.0,0.0,0.0,0.0,0.0,0.0,0.0,0.0,0.0,0.0,0.0,0.0,0.0,0.0,0.0,0.0,0.0,0.0,0.0,0.0,0.0,0.0,0.0,0.0,0.0,0.0,0.0,0.0,0.0,0.0,0.0,0.0,0.0,0.0,0.0,0.0,0.0,0.0,0.0,0.0,0.0,0.0,0.0,0.0,0.0,0.0,0.0,0.0,0.0,0.0,0.0,0.0,-2.1872,-2.2871,-2.3004,-2.2855,-2.2096,-2.0148,-1.8924,-1.7508,-1.6028,-1.3713,0.0,0.0,0.0,0.0,0.0,0.0,0.0,0.0,0.0,0.0,0.0,0.0,0.0,0.0,0.0,0.0,0.0,0.0,0.0,0.0,0.0,0.0,0.0,0.0,0.0,0.0,0.0,0.0,0.0,0.0,0.0,0.0,0.0,0.0,0.0,0.0,0.0,0.0,0.0,0.0,0.0,0.0,0.0,0.0,0.0,0.0,0.0,0.0,0.0,0.0,0.0,0.0,0.0,0.0,0.0,0.0,0.0,0.0,0.0,0.0,0.0,0.0,0.0,0.0,0.0,0.0,0.0,0.0,0.0,0.0,0.0,0.0,0.0,0.0,0.0,0.0,0.0,0.0,0.0,0.0,0.0,0.0,0.0,0.0,0.0,0.0,0.0,0.0,0.0,0.0,0.0,0.0,0.0,0.0,0.0,0.0,0.0,0.0,0.0,0.0,0.0,0.0,-2.226,-2.3762,-2.4827,-2.4316,-2.332,-2.171,-1.9971,-1.7978,-1.5591,0.0,0.0,0.0,0.0,0.0,0.0,0.0,0.0,0.0,0.0,0.0,0.0,0.0,0.0,0.0,0.0,0.0,0.0,0.0,0.0,0.0,0.0,0.0,0.0,0.0,0.0,0.0,0.0,0.0,0.0,0.0,0.0,0.0,0.0,0.0,0.0,0.0,0.0,0.0,0.0,0.0,0.0,0.0,0.0,0.0,0.0,0.0,0.0,0.0,0.0,0.0,0.0,0.0,0.0,0.0,0.0,0.0,0.0,0.0,0.0,0.0,0.0,0.0,0.0,0.0,0.0,0.0,0.0,0.0,0.0,0.0,0.0,0.0,0.0,0.0,0.0,0.0,0.0,0.0,0.0,0.0,0.0,0.0,0.0,0.0,0.0,0.0,0.0,0.0,0.0,0.0,0.0,0.0,0.0,0.0,0.0,0.0,0.0,0.0,0.0,0.0,0.0,-2.0464,-2.2752,-2.4458,-2.5482,-2.535,-2.4441,-2.2836,-2.067,-1.8374,-1.5719,0.0,0.0,0.0,0.0,0.0,0.0,0.0,0.0,0.0,0.0,0.0,0.0,0.0,0.0,0.0,0.0,0.0,0.0,0.0,0.0,0.0,0.0,0.0,0.0,0.0,0.0,0.0,0.0,0.0,0.0,0.0,0.0,0.0,0.0,0.0,0.0,0.0,0.0,0.0,0.0,0.0,0.0,0.0,0.0,0.0,0.0,0.0,0.0,0.0,0.0,0.0,0.0,0.0,0.0,0.0,0.0,0.0,0.0,0.0,0.0,0.0,0.0,0.0,0.0,0.0,0.0,0.0,0.0,0.0,0.0,0.0,0.0,0.0,0.0,0.0,0.0,0.0,0.0,0.0,0.0,0.0,0.0,0.0,0.0,0.0,0.0,0.0,0.0,0.0,0.0,0.0,0.0,0.0,0.0,0.0,0.0,0.0,0.0,0.0,0.0,0.0,0.0,-2.0559,-2.3371,-2.5,-2.4516,-2.5494,-2.5227,-2.2708,-2.0812,-1.8814,0.0,0.0,0.0,0.0,0.0,0.0,0.0,0.0,0.0,0.0,0.0,0.0,0.0,0.0,0.0,0.0,0.0,0.0,0.0,0.0,0.0,0.0,0.0,0.0,0.0,0.0,0.0,0.0,0.0,0.0,0.0,0.0,0.0,0.0,0.0,0.0,0.0,0.0,0.0,0.0,0.0,0.0,0.0,0.0,0.0,0.0,0.0,0.0,0.0,0.0,0.0,0.0,0.0,0.0,0.0,0.0,0.0,0.0,0.0,0.0,0.0,0.0,0.0,0.0,0.0,0.0,0.0,0.0,0.0,0.0,0.0,0.0,0.0,0.0,0.0,0.0,0.0,0.0,0.0,0.0,0.0,0.0,0.0,0.0,0.0,0.0,0.0,0.0,0.0,0.0,0.0,0.0,0.0,0.0,0.0,0.0,0.0,0.0,0.0,0.0,0.0,0.0,0.0,-2.0591,-2.3371,-2.5154,-2.5233,-2.5866,-2.5296,-2.3237,-2.1905,-1.9636,-1.6206,0.0,0.0,0.0,0.0,0.0,0.0,0.0,0.0,0.0,0.0,0.0,0.0,0.0,0.0,0.0,0.0,0.0,0.0,0.0,0.0,0.0,0.0,0.0,0.0,0.0,0.0,0.0,0.0,0.0,0.0,0.0,0.0,0.0,0.0,0.0,0.0,0.0,0.0,0.0,0.0,0.0,0.0,0.0,0.0,0.0,0.0,0.0,0.0,0.0,0.0,0.0,0.0,0.0,0.0,0.0,0.0,0.0,0.0,0.0,0.0,0.0,0.0,0.0,0.0,0.0,0.0,0.0,0.0,0.0,0.0,0.0,0.0,0.0,0.0,0.0,0.0,0.0,0.0,0.0,0.0,0.0,0.0,0.0,0.0,0.0,0.0,0.0,0.0,0.0,0.0,0.0,0.0,0.0,0.0,0.0,0.0,0.0,0.0,0.0,0.0,0.0,0.0,-2.0607,-2.3371,-2.5246,-2.5596,-2.5945,-2.5644,-2.4132,-2.264,-2.0411,-1.7175,0.0,0.0,0.0,0.0,0.0,0.0,0.0,0.0,0.0,0.0,0.0,0.0,0.0,0.0,0.0,0.0,0.0,0.0,0.0,0.0,0.0,0.0,0.0,0.0,0.0,0.0,0.0,0.0,0.0,0.0,0.0,0.0,0.0,0.0,0.0,0.0,0.0,0.0,0.0,0.0,0.0,0.0,0.0,0.0,0.0,0.0,0.0,0.0,0.0,0.0,0.0,0.0,0.0,0.0,0.0,0.0,0.0,0.0,0.0,0.0,0.0,0.0,0.0,0.0,0.0,0.0,0.0,0.0,0.0,0.0,0.0,0.0,0.0,0.0,0.0,0.0,0.0,0.0,0.0,0.0,0.0,0.0,0.0,0.0,0.0,0.0,0.0,0.0,0.0,0.0,0.0,0.0,0.0,0.0,0.0,0.0,0.0,0.0,0.0,0.0,0.0,0.0,-2.0607,-2.3371,-2.523,-2.5548,-2.5929,-2.585,-2.5119,-2.3129,-2.1197,-1.9208,0.0,0.0,0.0,0.0,0.0,0.0,0.0,0.0,0.0,0.0,0.0,0.0,0.0,0.0,0.0,0.0,0.0,0.0,0.0,0.0,0.0,0.0,0.0,0.0,0.0,0.0,0.0,0.0,0.0,0.0,0.0,0.0,0.0,0.0,0.0,0.0,0.0,0.0,0.0,0.0,0.0,0.0,0.0,0.0,0.0,0.0,0.0,0.0,0.0,0.0,0.0,0.0,0.0,0.0,0.0,0.0,0.0,0.0,0.0,0.0,-1.491,-1.4876,0.0,0.0,0.0,0.0,0.0,0.0,0.0,0.0,0.0,0.0,0.0,0.0,0.0,0.0,0.0,0.0,0.0,0.0,0.0,0.0,0.0,0.0,0.0,0.0,0.0,0.0,0.0,0.0,0.0,0.0,0.0,0.0,0.0,0.0,0.0,0.0,0.0,0.0,0.0,0.0,-2.0639,-2.3371,-2.5135,-2.5214,-2.5771,-2.5755,-2.477,-2.3794,-2.2196,-1.9964,-1.7867,0.0,0.0,0.0,0.0,0.0,0.0,0.0,0.0,0.0,0.0,0.0,0.0,0.0,0.0,0.0,0.0,0.0,0.0,0.0,0.0,0.0,0.0,0.0,0.0,0.0,0.0,0.0,0.0,0.0,0.0,0.0,0.0,0.0,0.0,0.0,0.0,0.0,0.0,0.0,0.0,0.0,0.0,0.0,0.0,0.0,0.0,0.0,0.0,0.0,0.0,0.0,0.0,0.0,0.0,0.0,0.0,0.0,0.0,0.0,-1.6428,-1.6113,0.0,0.0,0.0,0.0,0.0,0.0,0.0,0.0,0.0,0.0,0.0,0.0,0.0,0.0,0.0,0.0,0.0,0.0,0.0,0.0,0.0,0.0,0.0,0.0,0.0,0.0,0.0,0.0,0.0,0.0,0.0,0.0,0.0,0.0,0.0,0.0,0.0,0.0,0.0,0.0,-2.0909,-2.3324,-2.4913,-2.5087,-2.558,-2.5612,-2.4897,-2.4039,-2.2814,-2.1074,-1.9182,0.0,0.0,0.0,0.0,0.0,0.0,0.0,0.0,0.0,0.0,0.0,0.0,0.0,0.0,0.0,0.0,0.0,0.0,0.0,0.0,0.0,0.0,0.0,0.0,0.0,0.0,0.0,0.0,0.0,0.0,0.0,0.0,0.0,0.0,0.0,0.0,0.0,0.0,0.0,0.0,0.0,0.0,0.0,0.0,0.0,0.0,0.0,0.0,0.0,0.0,0.0,0.0,0.0,-1.8558,-1.8734,-1.8897,-1.8825,-1.885,-1.8801,-1.7877,-1.7503,-1.7353,-1.6655,0.0,0.0,0.0,0.0,0.0,0.0,0.0,0.0,0.0,0.0,0.0,0.0,0.0,0.0,0.0,0.0,0.0,0.0,0.0,0.0,0.0,0.0,-1.8039,-1.9583,-2.0317,-2.0257,-1.8643,0.0,0.0,0.0,0.0,0.0,0.0,0.0,0.0,0.0,0.0,0.0,-2.1274,-2.3371,-2.4785,-2.5071,-2.5421,-2.5485,-2.5135,-2.4198,-2.3228,-2.2291,-2.0187,-1.8394,0.0,0.0,0.0,0.0,0.0,0.0,0.0,0.0,0.0,0.0,0.0,0.0,0.0,0.0,0.0,0.0,0.0,0.0,0.0,0.0,0.0,0.0,0.0,0.0,0.0,0.0,0.0,0.0,0.0,0.0,0.0,0.0,-1.5778,-1.6406,0.0,0.0,0.0,0.0,0.0,0.0,0.0,0.0,0.0,0.0,0.0,0.0,0.0,-1.8564,-1.8804,-1.9162,-1.9212,-1.9013,-1.9487,-1.9589,-1.9395,-1.9638,-1.9759,-1.9747,-1.9601,0.0,-1.8734,-1.7444,0.0,0.0,0.0,0.0,0.0,0.0,0.0,0.0,0.0,0.0,0.0,0.0,0.0,0.0,0.0,0.0,0.0,0.0,0.0,0.0,0.0,0.0,-1.9948,-2.0965,-2.1294,-2.1519,-2.212,-2.0591,-1.8748,-1.7588,-1.6667,-1.5809,0.0,0.0,0.0,0.0,0.0,0.0,-2.1655,-2.3737,-2.5056,-2.5103,-2.5421,-2.5485,-2.5135,-2.442,-2.38,-2.3356,-2.1581,-2.0053,-1.8692,-1.6966,0.0,0.0,0.0,0.0,0.0,0.0,0.0,0.0,0.0,0.0,0.0,0.0,0.0,0.0,0.0,0.0,0.0,0.0,0.0,0.0,0.0,0.0,0.0,0.0,0.0,0.0,0.0,0.0,0.0,-1.6286,-1.7288,-1.7208,-1.7395,-1.7315,0.0,0.0,0.0,0.0,0.0,0.0,0.0,0.0,0.0,-1.9221,-1.9387,-1.9611,-2.0036,-2.033,-2.0405,-2.0282,-2.0671,-2.0714,-2.0605,-2.0726,-2.0786,-2.0786,-2.0786,-2.0658,-2.0379,-1.8848,-1.8021,-1.7462,0.0,0.0,0.0,0.0,-1.6272,-1.6356,-1.6923,-1.6863,-1.6489,-1.6127,0.0,0.0,0.0,0.0,0.0,0.0,0.0,-1.6807,-1.7152,-1.83,-1.9637,-2.0766,-2.119,-2.1835,-2.3052,-2.2269,-2.1094,-1.9794,-1.9018,-1.8033,-1.6349,-1.6238,0.0,0.0,0.0,-2.0798,-2.2355,-2.388,-2.4881,-2.5087,-2.5246,-2.5278,-2.5119,-2.4468,-2.3912,-2.3562,-2.245,-2.1296,-2.0093,-1.8686,-1.7056,0.0,0.0,0.0,0.0,0.0,0.0,0.0,0.0,0.0,0.0,0.0,0.0,0.0,0.0,0.0,0.0,0.0,0.0,0.0,0.0,0.0,0.0,0.0,0.0,0.0,0.0,0.0,0.0,-1.7528,-1.841,-1.7876,-1.8544,-1.8664,0.0,0.0,0.0,0.0,0.0,0.0,-1.9069,-1.9683,-2.0132,-2.0223,-2.0244,-2.0441,-2.0845,-2.1108,-2.116,-2.1172,-2.1378,-2.1474,-2.1474,-2.1474,-2.1474,-2.1474,-2.1474,-2.1474,-2.1366,-1.9965,-1.9108,-1.8638,-1.8022,-1.7636,-1.743,-1.7696,-1.7793,-1.7889,-1.8553,-1.8613,-1.8287,-1.7624,-1.7092,-1.6513,-1.5439,0.0,0.0,0.0,0.0,-1.6984,-1.7708,-1.8384,-1.9206,-2.0477,-2.1137,-2.1726,-2.3062,-2.3266,-2.2766,-2.1773,-2.1227,-2.0289,-1.8287,-1.8287,0.0,-1.87,-2.0194,-2.1798,-2.3117,-2.4118,-2.4817,-2.5087,-2.5103,-2.5103,-2.5103,-2.4468,-2.3943,-2.3689,-2.2927,-2.2132,-2.1354,-2.0155,-1.8885,-1.7508,0.0,0.0,0.0,0.0,0.0,0.0,0.0,0.0,0.0,0.0,0.0,0.0,0.0,0.0,0.0,0.0,0.0,0.0,0.0,0.0,0.0,0.0,0.0,0.0,0.0,0.0,0.0,0.0,0.0,-1.8477,-1.9706,0.0,0.0,0.0,0.0,-1.9114,-1.9879,-2.0234,-1.9881,-2.065,-2.1081,-2.1096,-2.1233,-2.139,-2.1414,-2.145,-2.1462,-2.1462,-2.1474,-2.1474,-2.1474,-2.1474,-2.1474,-2.1474,-2.1474,-2.1474,-2.1414,-2.0569,-2.005,-1.9724,-1.8939,-1.8469,-1.8263,-1.8529,-1.8625,-1.8662,-1.8951,-1.8879,-1.8734,-1.9181,-1.8625,-1.7732,-1.7418,-1.6984,0.0,0.0,-1.7781,-1.8312,-1.8855,-1.9205,-1.9756,-2.1082,-2.1437,-2.1701,-2.2711,-2.3261,-2.3505,-2.3394,-2.2847,-2.2132,-2.1354,0.0,-2.0877,-2.1211,-2.191,-2.2799,-2.3864,-2.4627,-2.5087,-2.5103,-2.5103,-2.5103,-2.5103,-2.4468,-2.4039,-2.4023,-2.3054,-2.2466,-2.2418,-2.1417,-2.021,-1.8905,-1.7249,0.0,0.0,0.0,0.0,0.0,0.0,0.0,0.0,0.0,0.0,0.0,0.0,0.0,0.0,0.0,0.0,0.0,0.0,0.0,0.0,0.0,0.0,0.0,0.0,0.0,0.0,0.0,0.0,-2.016,-2.0975,0.0,-2.0034,-2.0414,-2.068,-2.045,-2.1073,-2.1508,-2.1554,-2.2013,-2.2239,-2.2078,-2.2174,-2.2319,-2.2488,-2.2488,-2.2488,-2.2488,-2.2488,-2.2488,-2.2476,-2.2307,-2.2235,-2.2223,-2.2054,-2.1981,-2.1945,-2.1486,-2.104,-2.0593,-2.0134,-1.9796,-1.9579,-1.9676,-1.9712,-1.9748,-2.0014,-1.9929,-1.9688,-1.9519,-1.9096,-1.8625,-1.8541,-1.8372,-1.83,-1.8662,-1.8903,-1.9132,-1.9495,-1.9796,-2.0148,-2.065,-2.0798,-2.1145,-2.2031,-2.2349,-2.2702,-2.3953,-2.3629,-2.2942,-2.2243,-2.2196,-2.2243,-2.2132,-2.2895,-2.3705,-2.4309,-2.4817,-2.5103,-2.5103,-2.5103,-2.5024,-2.4785,-2.4325,-2.3959,-2.3737,-2.2942,-2.2386,-2.2164,-2.1576,-2.0822,-1.9912,-1.866,-1.6713,0.0,0.0,0.0,0.0,0.0,0.0,0.0,0.0,0.0,0.0,0.0,0.0,0.0,0.0,0.0,0.0,0.0,0.0,0.0,0.0,0.0,0.0,0.0,0.0,0.0,-2.0134,-2.1149,-2.0988,-2.1859,-2.2093,-2.1121,-2.1494,-2.1795,-2.176,-2.2212,-2.2518,-2.2682,-2.2879,-2.2949,-2.2911,-2.2838,-2.2862,-2.3043,-2.3043,-2.3043,-2.3043,-2.3043,-2.3043,-2.3031,-2.2862,-2.2778,-2.2778,-2.2597,-2.2524,-2.25,-2.2247,-2.1873,-2.1426,-2.1076,-2.0834,-2.0678,-2.0678,-2.0678,-2.069,-2.0774,-2.0629,-2.034,-1.9881,-1.9627,-1.947,-1.9374,-1.935,-1.9398,-1.9664,-1.9736,-1.9808,-2.0074,-2.0279,-2.0412,-2.0412,-2.0545,-2.0894,-2.1382,-2.1675,-2.2217,-2.3342,-2.3783,-2.3722,-2.3383,-2.3562,-2.3594,-2.3244,-2.3785,-2.4356,-2.4706,-2.496,-2.5103,-2.5103,-2.5103,-2.496,-2.4611,-2.415,-2.3785,-2.3562,-2.2768,-2.2259,-2.2148,-2.1576,-2.1052,-2.0575,-1.9304,-1.7451,-1.5153,0.0,0.0,0.0,0.0,0.0,0.0,0.0,0.0,0.0,0.0,0.0,0.0,0.0,0.0,0.0,0.0,0.0,0.0,0.0,0.0,0.0,0.0,0.0,-1.9452,-2.0922,-2.1793,-2.1019,-2.2471,-2.3143,-2.2165,-2.2847,-2.3179,-2.2893,-2.3128,-2.3249,-2.3068,-2.3068,-2.3188,-2.3454,-2.3212,-2.3068,-2.3068,-2.3068,-2.3068,-2.3068,-2.3068,-2.3068,-2.3068,-2.3056,-2.3056,-2.3056,-2.3043,-2.3043,-2.3019,-2.2766,-2.2512,-2.2235,-2.1704,-2.1486,-2.1474,-2.1474,-2.1474,-2.1438,-2.116,-2.0895,-2.0641,-2.0388,-2.0291,-2.0243,-1.9989,-1.9905,-1.9965,-2.0219,-2.0291,-2.0352,-2.0605,-2.0665,-2.0665,-2.0665,-2.0665,-2.0665,-2.0665,-2.127,-2.1758,-2.1758,-2.3252,-2.4539,-2.5014,-2.5135,-2.5008,-2.4658,-2.4595,0.0,-2.5071,-2.5103,-2.5103,-2.5103,-2.5103,-2.496,-2.4595,-2.3943,-2.3546,-2.3514,-2.2529,-2.2116,-2.245,-2.1465,-2.0925,-2.0925,-1.9209,-1.7636,-1.62,0.0,0.0,0.0,0.0,0.0,0.0,0.0,0.0,0.0,0.0,0.0,0.0,0.0,0.0,0.0,0.0,0.0,0.0,0.0,0.0,0.0,-1.9153,-2.0362,-2.0362,-2.1395,-2.2225,-2.2691,-2.3369,-2.3642,-2.3242,-2.3454,-2.3599,-2.3538,-2.3453,-2.3587,-2.3888,-2.3731,-2.3659,-2.3731,-2.3659,-2.3623,-2.3623,-2.3623,-2.3623,-2.3623,-2.3623,-2.3623,-2.3611,-2.343,-2.3345,-2.3333,-2.3128,-2.3043,-2.3031,-2.2959,-2.2899,-2.2754,-2.2042,-2.1643,-2.1474,-2.1474,-2.1474,-2.1474,-2.139,-2.1185,-2.0943,-2.0871,-2.0714,-2.0545,-2.0472,-2.0448,-2.0472,-2.0545,-2.0557,-2.0581,-2.0653,-2.0665,-2.0665,-2.0665,-2.0665,-2.0665,-2.0665,-2.0882,-2.1233,-2.2056,-2.2523,-2.3223,-2.4426,-2.514,-2.5469,-2.5357,-2.5135,-2.4992,-2.5103,-2.5103,-2.5103,-2.5103,-2.5103,-2.4865,-2.4245,-2.4023,-2.3594,-2.2831,-2.2259,-2.2005,-2.21,-2.1338,-2.0925,-2.0925,-1.9065,-1.7995,0.0,0.0,0.0,0.0,0.0,0.0,0.0,0.0,0.0,0.0,0.0,0.0,0.0,0.0,0.0,0.0,0.0,0.0,0.0,0.0,0.0,0.0,-2.0115,-2.1034,-2.1356,-2.2127,-2.2947,-2.3392,-2.3844,-2.4028,-2.383,-2.3952,-2.3988,-2.4154,-2.4033,-2.413,-2.4552,-2.4323,-2.4226,-2.4347,-2.4238,-2.4178,-2.4178,-2.4178,-2.4118,-2.4009,-2.4009,-2.3949,-2.384,-2.3683,-2.3611,-2.3611,-2.3454,-2.3381,-2.3369,-2.3261,-2.3212,-2.3164,0.0,0.0,0.0,0.0,-2.174,-2.1643,-2.1643,-2.1462,-2.1233,-2.1233,-2.1052,-2.0834,-2.0834,-2.0762,-2.0665,-2.0665,-2.0665,-2.0665,-2.0665,-2.0665,-2.0665,-2.0665,-2.0665,-2.0665,-2.0665,-2.0665,-2.0943,-2.1484,-2.2035,0.0,-2.3994,-2.484,-2.5451,-2.5549,-2.5469,-2.5278,-2.5135,-2.5103,-2.5103,-2.5103,-2.5103,-2.4881,-2.4325,-2.4007,0.0,0.0,0.0,-2.183,-2.1528,-2.1131,0.0,0.0,0.0,0.0,0.0,0.0,0.0,0.0,-1.644,-1.6357,0.0,0.0,0.0,0.0,0.0,0.0,0.0,0.0,0.0,0.0,0.0,0.0,0.0,0.0,0.0,0.0,-2.0847,-2.1623,-2.236,-2.2992,-2.3518,-2.3556,-2.4061,-2.4307,-2.4251,-2.4492,-2.4637,-2.4673,-2.4649,-2.4745,-2.5035,-2.4782,0.0,0.0,0.0,-2.4625,-2.4625,-2.4625,-2.4504,-2.4287,-2.4287,-2.4142,-2.3888,-2.3888,-2.3876,-2.384,-2.384,-2.384,-2.3828,-2.3599,-2.3502,-2.3466,-2.3164,-2.2899,-2.2669,-2.244,-2.2186,-2.1957,-2.1957,0.0,0.0,-2.1523,-2.1329,-2.1112,-2.1112,-2.0943,-2.0762,-2.0762,-2.0762,-2.075,-2.0726,-2.0714,-2.0702,-2.0678,-2.0665,-2.0665,-2.0665,-2.0665,-2.0665,-2.0665,-2.1484,-2.2435,-2.3652,-2.4463,-2.5106,-2.566,-2.5659,-2.5516,-2.5151,-2.5103,-2.5103,-2.5103,-2.5103,0.0,-2.4611,-2.4023,-2.361,-2.3499,-2.2561,-2.1719,-2.1068,-2.1084,-2.1084,-2.1036,-2.1036,-2.1195,-2.1513,-2.1513,-2.137,-2.1052,-1.8112,-1.7606,0.0,0.0,0.0,0.0,0.0,0.0,0.0,0.0,0.0,0.0,0.0,0.0,0.0,0.0,0.0,-2.0245,-2.1327,-2.2323,-2.2802,-2.3417,-2.3733,-2.3683,-2.3973,-2.4263,-2.4528,-2.4601,-2.4721,-2.4951,-2.4758,-2.4745,-2.5035,-2.4782,-2.4649,-2.4709,-2.4661,-2.4625,-2.4625,-2.4625,-2.4601,-2.4552,-2.4552,0.0,-2.4154,-2.4154,-2.4045,-2.384,-2.384,-2.384,-2.384,-2.3792,-2.3768,-2.3719,-2.3237,-2.3007,-2.2959,-2.2911,-2.273,-2.25,-2.25,-2.2186,-2.18,-2.18,-2.1619,-2.1402,-2.1402,-2.1366,0.0,-2.1329,-2.1329,-2.1269,-2.104,-2.0979,-2.0931,-2.0714,-2.0665,-2.0665,-2.0665,-2.0665,-2.0665,-2.0665,-2.0804,-2.1622,-2.3529,-2.4477,-2.5181,-2.5976,-2.5818,-2.5516,-2.5151,-2.5103,-2.5103,-2.5103,-2.5103,-2.496,-2.4611,-2.4452,-2.4023,-2.3165,-2.2656,-2.2196,-2.1767,-2.2037,-2.2053,-2.1767,-2.1767,-2.1798,-2.1862,-2.1862,-2.1973,-2.2148,-2.0688,-2.0304,0.0,0.0,0.0,0.0,0.0,0.0,0.0,0.0,0.0,0.0,0.0,-1.8778,-1.8912,0.0,-2.078,-2.1185,-2.2162,-2.2995,-2.3393,-2.39,-2.4016,-2.3872,-2.422,-2.4519,-2.4639,-2.4783,-2.5096,-2.5228,-2.5108,-2.5096,-2.524,-2.5108,-2.5035,-2.5035,-2.5035,-2.5035,-2.5035,-2.5035,-2.4963,-2.4842,-2.4842,-2.4625,-2.4238,-2.4238,-2.4094,-2.384,-2.384,-2.384,-2.384,-2.384,-2.384,-2.3816,-2.355,-2.3369,-2.3237,-2.3092,-2.2959,-2.285,-2.285,-2.2585,-2.2259,-2.2259,-2.1993,-2.1679,-2.1679,-2.1583,-2.1474,-2.1474,-2.1474,-2.145,-2.1305,-2.1269,-2.1197,-2.0931,-2.0859,-2.0822,-2.0702,-2.0665,-2.0665,-2.0665,-2.0665,-2.1346,-2.3543,-2.4217,-2.4938,-2.6194,-2.6263,-2.5961,-2.5437,-2.5373,-2.5373,-2.5373,-2.5373,-2.531,-2.5119,-2.4785,-2.4277,-2.3578,-2.3371,-2.3117,-2.2768,-2.2927,-2.2927,-2.2752,-2.2752,-2.2831,-2.3006,-2.3006,-2.3101,-2.326,-2.2736,-2.2498,0.0,0.0,0.0,0.0,0.0,0.0,0.0,-1.7756,-1.8046,-1.842,-1.9096,-1.9736,-2.0122,-2.0834,-2.1607,-2.2205,-2.2913,-2.3476,-2.3949,-2.4232,-2.427,-2.388,-2.4413,-2.4879,-2.4746,-2.5131,-2.5433,-2.5433,-2.5433,-2.5433,-2.5433,-2.5433,-2.5433,-2.5433,-2.5433,-2.5433,-2.5433,-2.5433,-2.5325,-2.512,-2.512,-2.4866,-2.4395,-2.4335,-2.4166,-2.3913,-2.3864,-2.384,-2.384,-2.384,-2.384,-2.384,-2.384,-2.3719,-2.3502,-2.3285,-2.3164,-2.3128,-2.3128,-2.2947,-2.273,-2.273,-2.244,-2.209,-2.2042,-2.1873,-2.1691,-2.1643,-2.1631,-2.1619,-2.1571,-2.1559,-2.1486,-2.1209,-2.1136,-2.1076,-2.0871,-2.0786,-2.0738,-2.0738,-2.0702,-2.1358,-2.327,-2.3816,-2.4516,-2.6462,-2.6676,-2.6438,-2.5818,-2.5739,-2.5739,-2.5739,-2.5739,-2.5739,-2.5739,-2.5151,-2.4627,-2.4277,-2.4198,-2.4007,-2.3657,-2.3642,-2.3642,-2.3642,-2.3642,-2.3785,-2.4055,-2.4055,-2.4055,-2.4055,-2.4055,-2.3912,-1.7225,-1.7117,-1.7153,-1.7587,-1.7744,-1.8275,0.0,-2.0074,-1.982,-2.0557,-2.116,-2.151,-2.1329,-2.1774,-2.2317,-2.2709,-2.2905,-2.3442,-2.4303,-2.4615,-2.4436,-2.3862,-2.428,-2.477,-2.5191,-2.5421,-2.5433,-2.5433,-2.5433,-2.5433,-2.5433,-2.5433,-2.5433,-2.5433,-2.5433,-2.5433,-2.5433,-2.5433,-2.5421,-2.5397,-2.5397,-2.524,-2.4951,-2.4697,-2.4444,-2.4178,-2.3949,-2.384,-2.384,-2.384,-2.384,-2.384,-2.384,-2.3828,-2.3792,-2.3768,-2.3611,-2.3406,-2.3406,-2.3225,-2.2995,-2.2995,-2.2959,-2.2862,-2.2633,-2.2549,-2.2476,-2.2235,-2.2174,-2.2126,-2.1885,-2.1824,-2.1764,-2.1498,-2.1426,-2.1426,-2.139,-2.1197,-2.1016,-2.1016,-2.0822,-2.1081,-2.231,-2.327,-2.4516,-2.6462,-2.6676,-2.6533,-2.6136,-2.6088,-2.6088,-2.6088,-2.6088,-2.6088,-2.6088,-2.5739,-2.5373,-2.5008,-2.469,-2.4356,-2.4007,-2.3991,-2.3991,-2.3991,-2.3991,-2.4023,-2.4055,-2.4055,-2.4055,-2.4055,-2.4055,-2.4039,-1.8589,-1.8444,-1.8336,-1.871,-1.9157,-1.9772,-2.0822,-2.0931,-2.0991,-2.1631,-2.2066,-2.2295,-2.2186,-2.2517,-2.29,-2.3099,-2.3675,-2.4079,-2.4461,-2.4915,-2.5023,-2.4711,-2.4987,-2.5131,-2.5421,-2.5433,-2.5433,-2.5433,-2.5395,-2.5466,-2.5466,-2.5466,-2.5466,-2.5466,-2.5335,-2.5433,-2.5433,-2.5433,-2.5433,-2.5433,-2.5433,-2.5301,-2.5047,-2.4927,-2.4637,-2.4226,-2.4118,-2.3985,-2.384,-2.384,-2.384,-2.384,-2.384,-2.384,-2.384,-2.384,-2.378,-2.3683,-2.3683,-2.3502,-2.3285,-2.3285,-2.3176,-2.3019,-2.2911,-2.2778,-2.2633,-2.2512,-2.238,-2.2235,-2.2126,-2.2102,-2.2029,-2.1764,-2.1704,-2.1667,-2.151,-2.139,-2.1305,-2.1305,-2.1088,-2.1315,-2.2419,-2.2828,-2.3624,-2.5783,-2.6581,-2.6851,-2.6501,-2.6454,-2.6454,-2.6454,-2.6454,-2.6454,-2.6454,-2.6136,-2.5866,-2.5723,-2.558,-2.5421,-2.5278,-2.5278,-2.5278,-2.5278,-2.5278,-2.5278,-2.5278,-2.5278,-2.5278,-2.5278,-2.5278,-2.5278,-1.906,-1.9096,-1.9265,-1.9603,-2.0291,-2.1003,-2.1402,-2.1655,-2.1933,-2.238,-2.2681,-2.2874,-2.2874,-2.3249,-2.35,-2.3478,-2.4256,-2.4842,-2.4758,-2.5131,-2.5349,-2.5457,-2.5144,-2.5059,-2.5337,-2.5397,-2.5433,-2.5433,-2.549,-2.5461,-2.5832,-2.5892,-2.5718,-2.5449,-2.5454,-2.5335,-2.5433,-2.5433,-2.5433,-2.5433,-2.5433,-2.5337,-2.5156,-2.5083,-2.4794,-2.4335,-2.4263,-2.413,-2.3949,-2.3876,-2.384,-2.384,-2.384,-2.384,-2.384,-2.384,-2.384,-2.384,-2.384,-2.3719,-2.3562,-2.3562,-2.343,-2.3249,-2.3176,-2.3019,-2.2862,-2.2778,-2.2573,-2.2367,-2.2367,-2.2319,-2.2211,-2.2029,-2.1981,-2.1921,-2.174,-2.1643,-2.1583,-2.1583,-2.1366,-2.1457,-2.2294,-2.2396,-2.3086,-2.4739,-2.6118,-2.6925,-2.6883,-2.6819,-2.6819,-2.6819,-2.6819,-2.6819,-2.6819,-2.6581,-2.639,-2.6295,-2.6295,-2.6247,-2.6152,-2.6152,-2.6152,-2.6152,-2.6152,-2.6152,-2.6152,-2.6152,-2.6152,-2.6152,-2.6152,-2.6199,-1.8203,-1.8674,-1.9579,-2.0122,-2.0859,-2.1655,-2.2428,-2.2609,-2.2693,-2.2959,-2.3237,-2.326,-2.326,-2.3488,-2.3824,-2.3798,-2.4663,-2.5325,-2.5385,-2.5433,-2.5349,-2.5457,-2.4449,-2.4211,-2.5227,-2.5471,-2.5433,-2.5433,-2.549,-2.5832,-2.6983,-2.7034,-2.6484,-2.5449,-2.5437,-2.533,-2.5446,-2.5433,-2.5433,-2.5433,-2.5433,-2.5433,-2.5421,-2.5168,-2.489,-2.4601,-2.4347,-2.4226,-2.4202,-2.3949,-2.384,-2.384,-2.384,-2.384,-2.384,-2.384,-2.384,-2.384,-2.384,-2.384,-2.3828,-2.3828,-2.3828,-2.3768,-2.3514,-2.343,-2.3369,-2.3104,-2.2838,-2.2645,-2.2645,-2.2452,-2.2259,-2.2247,-2.2247,-2.2247,-2.2235,-2.2042,-2.186,-2.186,-2.1643,-2.1462,-2.1462,-2.243,-2.3132,-2.3132,-2.5102,-2.6709,-2.7146,-2.7185,-2.7185,-2.7185,-2.7185,-2.7185,-2.7185,-2.7185,-2.7026,-2.6676,-2.666,-2.6501,-2.6152,-2.6152,-2.6152,-2.6152,-2.6152,-2.6152,-2.6152,-2.6152,-2.6152,-2.6152,-2.6152,-2.6327,-1.9422,-1.9989,-2.069,-2.1414,-2.1933,-2.2416,-2.3043,-2.3188,-2.3212,-2.3297,-2.3429,-2.3524,-2.3356,-2.3597,-2.3721,-2.3726,-2.4745,-2.5699,-2.6348,-2.592,-2.5098,-2.4484,-2.4077,-2.3955,-2.4246,-2.5023,-2.5434,-2.5421,-2.5461,-2.5898,-2.6872,-2.6943,-2.6778,-2.6484,-2.573,-2.533,-2.5446,-2.5433,-2.5433,-2.5433,-2.5433,-2.5433,-2.5433,-2.5349,-2.5156,-2.4902,-2.4818,-2.4564,-2.4226,-2.4142,-2.3997,-2.384,-2.384,-2.384,-2.384,-2.384,-2.384,-2.384,-2.384,-2.384,-2.384,-2.384,-2.384,-2.3828,-2.3744,-2.3587,-2.343,-2.3345,-2.3116,-2.2874,-2.2693,-2.2585,-2.2476,-2.2307,-2.2259,-2.2259,-2.2259,-2.2198,-2.2126,-2.2126,-2.1921,-2.174,-2.174,-2.1872,-2.2599,-2.3998,-2.5365,-2.6633,-2.7747,-2.7486,-2.7375,-2.7836,-2.7471,-2.7296,-2.7534,-2.7343,-2.7153,-2.7026,-2.7026,-2.6962,-2.6851,-2.6851,-2.6851,-2.6851,-2.6851,-2.6851,-2.6851,-2.6851,-2.6851,-2.6851,-2.6851,-2.7042,-2.0255,-2.0943,-2.1679,-2.2488,-2.2887,-2.3188,-2.3635,-2.3587,-2.343,-2.3502,-2.3593,-2.355,-2.3463,-2.3426,-2.3389,-2.3776,-2.4729,-2.5806,-2.6853,-2.6066,-2.5228,-2.5011,-2.4217,-2.3856,-2.3723,-2.4831,-2.5446,-2.5421,-2.5358,-2.583,-2.6996,-2.6974,-2.701,-2.7008,-2.5874,-2.5413,-2.5446,-2.5433,-2.5433,-2.5433,-2.5433,-2.5433,-2.5433,-2.5433,-2.5349,-2.518,-2.5083,-2.4842,-2.4516,-2.442,-2.4214,-2.3985,-2.3985,-2.3925,-2.384,-2.384,-2.384,-2.384,-2.384,-2.384,-2.384,-2.384,-2.384,-2.384,-2.384,-2.3731,-2.3599,-2.3599,-2.3393,-2.3152,-2.2983,-2.2802,-2.2609,-2.244,-2.2331,-2.2259,-2.2259,-2.2259,-2.2259,-2.2259,-2.2126,-2.2005,-2.2005,-2.1873,-2.2614,-2.4883,-2.5483,-2.629,-2.7925,-2.7836,-2.7741,-2.817,-2.782,-2.7661,-2.7884,-2.7693,-2.7566,-2.7566,-2.7455,-2.7391,-2.7391,-2.7264,-2.72,-2.72,-2.72,-2.7264,-2.7391,-2.7391,-2.7455,-2.7566,-2.7566,-2.7693,-2.0702,-2.1547,-2.2536,-2.3321,-2.3695,-2.3925,-2.4154,-2.3816,-2.3526,-2.3736,-2.3438,-2.3317,-2.3715,-2.2868,-2.2561,-2.344,-2.4637,-2.5849,-2.687,-2.6066,-2.5796,-2.6828,-2.5071,-2.3821,-2.3978,-2.4755,-2.5458,-2.547,-2.537,-2.5842,-2.7008,-2.6953,-2.699,-2.7033,-2.603,-2.5406,-2.5458,-2.5446,-2.5433,-2.5433,-2.5433,-2.5433,-2.5433,-2.5433,-2.5433,-2.5421,-2.5168,-2.5059,-2.5023,-2.4758,-2.4492,-2.4251,-2.4251,-2.4106,-2.3888,-2.3876,-2.3864,-2.3864,-2.3852,-2.384,-2.384,-2.384,-2.384,-2.384,-2.384,-2.384,-2.384,-2.384,-2.3671,-2.3466,-2.3454,-2.3068,-2.2669,-2.2657,-2.2452,-2.2259,-2.2259,-2.2259,-2.2259,-2.2259,-2.2259,-2.2259,-2.2259,-2.2259,-2.3141,-2.5478,-2.5534,-2.6098,-2.8035,-2.8249,-2.8233,-2.8265,-2.8249,-2.8233,-2.8249,-2.8233,-2.8217,-2.8217,-2.7931,-2.7757,-2.7757,-2.7439,-2.7248,-2.7248,-2.7248,-2.7423,-2.7757,-2.7757,-2.7915,-2.8217,-2.8217,-2.8233,-2.215,-2.2923,-2.3587,-2.4178,-2.4226,-2.4106,-2.3973,-2.3879,-2.3532,-2.3215,-2.3395,-2.3458,-2.2847,-2.1869,-2.1149,-2.146,-2.371,-2.5724,-2.6895,-2.6741,-2.6472,-2.582,0.0,-2.5275,-2.6044,-2.5699,-2.5425,-2.5429,-2.5372,-2.5913,-2.6925,-2.705,-2.7075,-2.6949,-2.5937,-2.5477,-2.5354,-2.5359,-2.5433,-2.5433,-2.5433,-2.5433,-2.5433,-2.5433,-2.5433,-2.5433,-2.5361,-2.524,-2.524,-2.5167,-2.4972,-2.4705,-2.4528,-2.4492,-2.4407,-2.4214,-2.413,-2.4106,-2.3913,-2.384,-2.384,-2.384,-2.384,-2.384,-2.384,-2.384,-2.384,-2.384,-2.3792,-2.3695,-2.3502,-2.32,-2.2899,-2.2693,-2.2452,-2.2259,-2.2259,-2.2259,-2.2259,-2.2259,-2.2259,-2.2259,-2.2259,-2.2259,-2.3141,-2.5478,-2.5702,-2.6489,-2.8743,-2.8551,-2.8424,-2.8964,-2.8551,-2.8329,-2.8599,-2.8376,-2.8217,-2.8217,-2.8138,-2.809,-2.809,-2.8011,-2.7963,-2.7963,-2.7963,-2.8011,-2.809,-2.809,-2.8138,-2.8217,-2.8217,-2.8376,-2.2983,-2.378,-2.4444,-2.4733,-2.4601,-2.4311,-2.4295,-2.3864,-2.3466,-2.3362,-2.3261,-2.271,-2.1129,-1.9992,-1.9692,-2.1176,-2.3719,-2.5744,-2.6847,-2.7078,-2.6701,-2.623,-2.6126,-2.6303,-2.6997,-2.6497,-2.6054,-2.6009,-2.6021,-2.6282,-2.7023,-2.7087,-2.6918,-2.7047,-2.6484,-2.589,-2.5417,-2.5366,-2.5419,-2.5419,-2.5311,-2.5433,-2.5433,-2.5433,-2.5433,-2.5433,-2.5433,-2.5361,-2.541,-2.541,-2.5252,-2.5175,-2.4997,-2.4912,-2.4766,-2.4347,-2.4238,-2.419,-2.3937,-2.384,-2.384,-2.384,-2.384,-2.384,-2.384,-2.384,-2.384,-2.384,-2.384,-2.3816,-2.3659,-2.343,-2.3152,-2.2887,-2.2621,-2.2404,-2.2283,-2.2259,-2.2259,-2.2259,-2.2259,-2.2259,-2.2259,-2.2259,-2.2992,-2.4743,-2.5465,-2.6502,-2.8274,-2.8648,-2.8853,-2.925,-2.8932,-2.8773,-2.898,-2.8805,-2.8694,-2.8694,-2.8551,-2.8456,-2.8456,-2.8313,-2.8217,-2.8217,-2.8217,-2.8297,-2.8456,-2.8456,-2.8535,-2.8694,-2.8694,-2.8805,-2.3514,-2.4311,-2.5059,-2.5083,-2.4842,-2.4632,-2.4814,-2.412,-2.3413,-2.3534,-2.25,-2.1167,-1.9475,-1.825,-1.8606,-2.171,-2.4021,-2.5765,-2.681,-2.7054,-2.7047,-2.7084,-2.7084,-2.6998,-2.6943,-2.6949,-2.7084,-2.7084,-2.7084,-2.7084,-2.7084,-2.6918,-2.6918,-2.7047,-2.7035,-2.6508,-2.5642,-2.5616,-2.5509,-2.5311,-2.5454,-2.5347,-2.5482,-2.5482,-2.547,-2.5433,-2.5433,-2.5433,-2.5433,-2.5433,-2.5313,-2.5469,-2.5469,-2.5142,-2.4887,-2.4632,-2.4335,-2.4251,-2.3985,-2.3876,-2.384,-2.384,-2.384,-2.384,-2.384,-2.384,-2.384,-2.384,-2.384,-2.384,-2.384,-2.3647,-2.3393,-2.3152,-2.2874,-2.2585,-2.2367,-2.2283,-2.2259,-2.2259,-2.2259,-2.2259,-2.2259,-2.2259,-2.2694,-2.4005,-2.5185,-2.621,-2.7535,-2.8707,-2.9298,-2.9298,-2.9298,-2.9298,-2.9298,-2.9298,-2.9298,-2.9298,-2.9012,-2.8837,-2.8837,-2.8535,-2.836,-2.836,-2.836,-2.8519,-2.8837,-2.8837,-2.8996,-2.9298,-2.9298,-2.9298,-2.4226,-2.4733,-2.5096,-2.5313,-2.5033,-2.4889,-2.4698,-2.422,-2.3519,-2.2775,-2.0372,-1.8546,-1.9059,-1.8165,-1.849,-2.1728,-2.4083,-2.5741,-2.6785,-2.7054,-2.6929,-2.6942,-2.6966,-2.6954,-2.7087,-2.6942,-2.6966,-2.6966,-2.6966,-2.6966,-2.6966,-2.7003,-2.6918,-2.7047,-2.7035,-2.69,-2.6795,-2.6758,-2.6345,-2.5384,-2.5337,-2.5394,-2.5378,-2.5378,-2.5454,-2.5433,-2.5433,-2.5433,-2.5433,-2.5433,-2.5409,-2.5373,-2.5373,-2.5349,-2.5277,-2.5203,-2.4948,-2.4516,-2.3913,-2.3848,-2.384,-2.384,-2.384,-2.384,-2.384,-2.384,-2.384,-2.384,-2.384,-2.384,-2.384,-2.3647,-2.3442,-2.3393,-2.3007,-2.2645,-2.2597,-2.2416,-2.2259,-2.2259,-2.2259,-2.2259,-2.2259,-2.2259,-2.2992,-2.5185,-2.5611,-2.6502,-2.8707,-2.9154,-2.9298,-2.9298,-2.9298,-2.9298,-2.9298,-2.9298,-2.9298,-2.9298,-2.9234,-2.9202,-2.9202,-2.9139,-2.9107,-2.9107,-2.9107,-2.9139,-2.9202,-2.9202,-2.9234,-2.9298,-2.9298,-2.9298,-2.4492,-2.4927,-2.5277,-2.5409,-2.5102,-2.4924,-2.4933,-2.4369,-2.306,-2.0372,-1.8617,-1.7598,-1.8143,-1.8244,-1.9078,-2.1187,-2.3651,-2.5568,-2.6116,-2.6624,-2.7045,-2.6954,-2.7027,-2.7027,-2.7027,-2.7027,-2.7027,-2.7027,-2.7027,-2.7027,-2.7027,-2.7027,-2.6979,-2.705,-2.7038,-2.6977,-2.7035,-2.6912,-2.6827,-2.6246,-2.6291,-2.6297,-2.6276,-2.5616,-2.5449,-2.5335,-2.5407,-2.5335,-2.5325,-2.5397,-2.5385,-2.5325,-2.5409,-2.5433,-2.5409,-2.5337,-2.5167,-2.4818,-2.3998,-2.3738,-2.386,-2.386,-2.3788,-2.384,-2.384,-2.384,-2.384,-2.384,-2.384,-2.384,-2.384,-2.3744,-2.3623,-2.349,-2.3152,-2.285,-2.285,-2.2645,-2.2464,-2.2464,-2.2355,-2.2558,-2.3141,-2.3141,-2.3722,-2.5465,-2.6357,-2.71,-2.8274,-2.8851,-2.9298,-2.9298,-2.9298,-2.9298,-2.9298,-2.9298,-2.9298,-2.9298,-2.9298,-2.9298,-2.9298,-2.9298,-2.9298,-2.9298,-2.9298,-2.9298,-2.9298,-2.9298,-2.9298,-2.9298,-2.9298,-2.9298,-2.4552,-2.5023,-2.5421,-2.5373,-2.5273,-2.4952,-2.4456,-2.3537,-2.1745,-1.8221,-1.7451,-1.7445,-1.7529,-1.8197,-1.9173,-2.0231,-2.2612,-2.4456,-2.433,-2.5979,-2.6971,-2.7026,-2.7003,-2.7027,-2.7027,-2.7027,-2.7027,-2.7027,-2.7027,-2.7027,-2.7027,-2.7027,-2.7027,-2.7027,-2.7027,-2.7027,-2.7027,-2.7026,-2.6929,-2.6929,-2.7054,-2.702,-2.7009,-2.7447,-2.6885,-2.5762,-2.5431,-2.5458,-2.5555,-2.6613,-2.6381,-2.5337,-2.5458,-2.5337,-2.5483,-2.5469,-2.5359,-2.5285,-2.4365,-2.4127,-2.4088,-2.3889,-2.3872,-2.384,-2.384,-2.384,-2.384,-2.384,-2.384,-2.384,-2.384,-2.384,-2.378,-2.3514,-2.3285,-2.3116,-2.3056,-2.2874,-2.2882,-2.3187,-2.3015,-2.3167,-2.435,-2.4581,-2.4837,-2.6163,-2.6983,-2.7535,-2.7825,-2.8707,-2.9298,-2.9298,-2.9298,-2.9298,-2.9298,-2.9298,-2.9298,-2.9298,-2.9298,-2.9298,-2.9298,-2.9298,-2.9298,-2.9298,-2.9298,-2.9298,-2.9298,-2.9298,-2.9298,-2.9298,-2.9298,-2.9298,-2.4387,-2.5023,-2.5385,-2.5337,-2.5376,-2.4672,-2.1813,-2.0262,-1.9125,-1.7828,-1.7561,-1.7505,-1.7542,-1.7608,-1.8047,-1.9039,-2.0355,-2.113,-2.1153,-2.4554,-2.7081,-2.6974,-2.7087,-2.7027,-2.7027,-2.7027,-2.7027,-2.7027,-2.7027,-2.7027,-2.7027,-2.7027,-2.7027,-2.7027,-2.7027,-2.7027,-2.7027,-2.7015,-2.7003,-2.6991,-2.7002,-2.6974,-2.7095,-3.2251,-3.1742,-2.6879,-2.5736,-2.5445,-2.5736,-3.073,-2.9873,-2.5322,-2.5347,-2.5347,-2.5347,-2.5322,-2.5342,-2.5335,-2.528,-2.5335,-2.5099,-2.41,-2.3872,-2.384,-2.384,-2.384,-2.384,-2.384,-2.384,-2.384,-2.384,-2.384,-2.378,-2.3514,-2.343,-2.3345,-2.3092,-2.3019,-2.3458,-2.4521,-2.4648,-2.5093,-2.6309,-2.6224,-2.6475,-2.7674,-2.773,-2.784,-2.901,-2.9298,-2.9298,-2.9298,-2.9298,-2.9298,-2.9298,-2.9298,-2.9298,-2.9298,-2.9298,-2.9298,-2.9298,-2.9298,-2.9298,-2.9298,-2.9298,-2.9298,-2.9298,-2.9298,-2.9298,-2.9298,-2.9298,-2.9298,-2.4413,-2.4972,-2.5373,-2.5445,-2.5387,-2.4547,-2.1382,-1.9819,-1.8792,-1.7735,-1.7528,-1.7551,-1.7553,-1.7552,-1.7642,-1.8127,-1.9534,-2.0943,-2.1574,-2.4219,-2.6294,-2.6895,-2.6934,-2.7078,-2.6991,-2.7027,-2.7027,-2.7027,-2.7027,-2.7027,-2.7027,-2.7027,-2.7027,-2.7027,-2.7027,-2.7027,-2.7027,-2.7027,-2.6979,-2.7075,-2.7002,-2.8795,-3.225,-3.4463,-3.3889,-3.0695,-2.6965,-2.7317,-3.0375,-3.2556,-3.2282,-3.026,-3.0346,-3.0222,-3.0222,-3.0222,-3.0317,-3.0231,-3.0317,-2.822,-2.535,-2.4963,-2.4356,-2.3792,-2.3828,-2.384,-2.384,-2.384,-2.384,-2.3828,-2.3744,-2.3806,-2.3733,-2.3721,-2.3648,-2.3551,-2.3597,-2.4313,-2.5216,-2.5678,-2.5878,-2.6392,-2.7604,-2.7803,-2.8014,-2.9205,-2.909,-2.9018,-2.947,-2.9425,-2.9298,-2.9298,-2.9298,-2.9298,-2.9298,-2.9298,-2.9298,-2.9298,-2.9298,-2.9298,-2.9298,-2.9298,-2.9298,-2.9298,-2.9298,-2.9298,-2.9298,-2.9298,-2.9298,-2.9298,-2.9298,-2.9298,-2.4136,-2.4936,-2.5367,-2.5367,-2.5109,-2.4239,-2.1284,-1.9906,-1.8788,-1.7719,-1.7469,-1.7527,-1.7458,-1.7817,-1.7899,-1.7535,-1.9292,-2.0934,-2.1738,-2.3166,-2.4384,-2.5465,-2.6519,-2.7033,-2.6998,-2.7087,-2.7027,-2.7027,-2.7027,-2.7027,-2.7027,-2.7027,-2.7027,-2.7027,-2.7027,-2.7027,-2.7027,-2.7027,-2.6979,-2.705,-2.8732,-3.1578,-3.5602,-3.5605,-3.48,-3.3227,-2.955,-3.0026,-3.3447,-3.3525,-3.3478,-3.3549,-3.3494,-3.3541,-3.3541,-3.3541,-3.3541,-3.3557,-3.3453,-3.0954,-2.7852,-2.788,-2.7082,-2.6,-2.6056,-2.4945,-2.3879,-2.3879,-2.3879,-2.4197,-2.5687,-2.4863,-2.3926,-2.4743,-2.4863,-2.4931,-2.4931,-2.6012,-2.7073,-2.6849,-2.7185,-2.7864,-2.926,-2.9501,-2.974,-3.0505,-3.0351,-2.9981,-2.9818,-2.9663,-2.9457,-2.9457,-2.9361,-2.9298,-2.9298,-2.9298,-2.9298,-2.9298,-2.9298,-2.9298,-2.9298,-2.9298,-2.9298,-2.9298,-2.9298,-2.9298,-2.9298,-2.9298,-2.9298,-2.9298,-2.9298,-2.9298,-2.3585,-2.4566,-2.5338,-2.5338,-2.4655,-2.3279,-2.1159,-1.9911,-1.8788,-1.7719,-1.7469,-1.7479,-1.7491,-1.8351,-1.8726,-1.7644,-1.935,-2.0649,-2.0723,-2.072,-2.1111,-2.2196,-2.5102,-2.6965,-2.6946,-2.6961,-2.7027,-2.7027,-2.7027,-2.7027,-2.7027,-2.7027,-2.7027,-2.7027,-2.7027,-2.7027,-2.7027,-2.7027,-2.7027,-2.7027,-3.2742,-3.5451,-3.5598,-3.566,-3.4838,-3.3584,-3.3478,-3.3423,-3.3431,-3.3572,-3.3492,-3.3492,-3.3492,-3.3492,-3.3492,-3.3492,-3.3492,-3.3524,-3.3549,-3.3447,-3.3368,-3.3433,-3.2498,-3.1396,-3.129,-2.779,-2.372,-2.372,-2.372,-2.4943,-2.9979,-2.7591,-2.4409,-2.6895,-2.7591,-2.7591,-2.7591,-2.8304,-2.8631,-2.7721,-2.823,-2.9419,-3.1055,-3.1446,-3.1388,-3.1388,-3.0916,-3.0495,-3.0118,-2.985,-2.9822,-2.9822,-2.9504,-2.9298,-2.9298,-2.9298,-2.9298,-2.9298,-2.9298,-2.9298,-2.9298,-2.9298,-2.9298,-2.9298,-2.9298,-2.9298,-2.9298,-2.9298,-2.9298,-2.9298,-2.9298,-2.9298,-2.2436,-2.3493,-2.4367,-2.4353,-2.4065,-2.3259,-2.1139,-1.9833,-1.8788,-1.7719,-1.7469,-1.7527,-1.7458,-1.7803,-1.8082,-1.853,-1.9107,-1.9894,-2.0566,-2.1371,-2.1951,-2.2196,-2.3824,-2.531,-2.6832,-2.7075,-2.7027,-2.7027,-2.7027,-2.7027,-2.7027,-2.7027,-2.7027,-2.7027,-2.7027,-2.7027,-2.7027,-2.7027,-2.6979,-2.705,-2.8795,-3.172,-3.5637,-3.567,-3.4831,-3.3457,-3.3518,-3.3524,-3.3572,-3.3508,-3.3492,-3.3492,-3.3492,-3.3492,-3.3492,-3.3492,-3.3492,-3.3492,-3.3556,-3.3572,-3.3524,-3.3515,-3.2616,-3.1394,-3.1339,-3.0293,-2.9047,-2.9047,-2.8959,-2.9427,-3.1027,-3.0141,-2.9234,-2.994,-3.0205,-3.0129,-3.0129,-3.0469,-3.0469,-3.0222,-3.0392,-3.0732,-3.1379,-3.1469,-3.1405,-3.1405,-3.1285,-3.1061,-3.1028,-3.0543,-2.9992,-2.947,-2.9702,-2.9628,-2.9329,-2.9298,-2.9298,-2.9298,-2.9298,-2.9298,-2.9298,-2.9298,-2.9298,-2.9298,-2.9298,-2.9298,-2.9298,-2.9298,-2.9425,-2.9663,-2.9663,-2.9774,-2.1266,-2.1882,-2.1959,-2.2056,-2.2075,-2.177,-2.0897,-1.9936,-1.877,-1.7702,-1.7518,-1.7527,-1.7553,-1.7541,-1.7768,-1.8323,-1.9783,-2.1057,-2.1713,-2.2157,-2.278,-2.388,-2.4615,-2.5449,-2.6917,-2.6918,-2.7027,-2.7027,-2.7027,-2.7027,-2.7027,-2.7027,-2.7027,-2.7027,-2.7027,-2.7027,-2.7027,-2.7027,-2.6979,-2.7062,-2.7071,-2.9947,-3.5542,-3.5125,-3.4398,-3.3588,-3.3454,-3.3492,0.0,-3.3492,-3.3492,-3.3492,-3.3492,-3.3492,-3.3492,-3.3492,-3.3492,-3.3492,-3.3492,-3.3492,-3.3429,-3.3467,-3.2602,-3.1401,-3.1449,-3.1386,-3.1402,-3.1402,-3.1323,-3.1415,-3.137,-3.1399,-3.1411,-3.1367,-3.1474,-3.1395,-3.1395,-3.1395,-3.1395,-3.1395,-3.1395,-3.1395,-3.1395,-3.1395,-3.1395,-3.1395,-3.1389,-3.1414,-3.1414,-3.0942,-3.0521,-3.0159,-3.0049,-2.9976,-2.9888,-2.9695,-2.9631,-2.9504,-2.9488,-2.9441,-2.9298,-2.9298,-2.9298,-2.9298,-2.9425,-2.9488,-2.9488,-2.9615,-2.979,-3.0013,-3.0013,-3.0124,0.0,-1.9737,-1.9093,-1.9162,-1.9049,-1.9335,-2.033,-1.977,0.0,-1.7708,-1.7529,-1.7491,-1.7527,-1.7458,-1.7467,-1.7549,-2.09,-2.3504,-2.3628,-2.3066,-2.372,-2.6658,-2.6954,-2.6984,-2.7033,-2.6941,-2.7027,-2.7027,-2.7027,-2.7027,-2.7027,-2.7027,-2.7027,-2.7027,-2.7027,-2.7027,-2.7027,-2.7027,-2.7027,-2.7027,-2.7026,-2.9891,-3.4906,-3.3908,-3.3522,-3.3557,-3.3439,-3.3492,-3.3492,-3.3492,-3.3492,-3.3492,-3.3492,-3.3492,-3.3492,-3.3492,-3.3492,-3.3492,-3.3492,-3.3492,-3.3429,-3.3435,-3.2491,-3.134,-3.1336,-3.1395,-3.1395,-3.1395,-3.1395,-3.1395,-3.1395,-3.1395,-3.1395,-3.1395,-3.1395,-3.1395,-3.1395,-3.1395,-3.1395,-3.1395,-3.1395,-3.1395,-3.1395,-3.1395,-3.1395,-3.1395,-3.1395,-3.1395,-3.1395,-3.1462,-3.1437,-3.1437,-3.0782,-3.041,-3.0756,-3.0527,-3.0187,-2.9886,-2.9854,-2.9711,-2.9345,-2.9329,-2.9329,-2.9329,-2.9679,-2.9854,-2.9854,-3.0172,-3.033,-3.0362,-3.0362,-3.0378,-1.8077,0.0,-1.9064,-1.9084,-1.9096,-1.92,0.0,-1.8653,-1.7749,0.0,0.0,-1.7481,-1.749,-1.7443,-1.7491,-1.7445,-1.9078,-2.046,-2.1366,-2.3978,-2.616,-2.6884,-2.6961,-2.6977,-2.7026,-2.6966,-2.7027,-2.7027,-2.7027,-2.7027,-2.7027,-2.7027,-2.7027,-2.7027,-2.7027,-2.7027,-2.7027,-2.7027,-2.7027,-2.7027,-2.7035,-2.7788,-2.9111,-3.2134,-3.3547,-3.3423,-3.3508,-3.3492,-3.3492,-3.3492,-3.3492,-3.3492,-3.3492,-3.3492,-3.3492,-3.3492,-3.3492,-3.3492,-3.3492,-3.3492,-3.356,-3.3516,-3.2602,-3.1433,-3.1399,-3.1395,-3.1395,-3.1395,-3.1395,-3.1395,-3.1395,-3.1395,-3.1395,-3.1395,-3.1395,-3.1395,-3.1395,-3.1395,-3.1395,-3.1395,-3.1395,-3.1395,-3.1395,-3.1395,-3.1395,-3.1395,-3.1395,-3.1395,-3.1395,-3.1331,-3.1437,-3.1437,-3.1204,-3.1141,-3.1157,-3.0814,-3.0463,-3.0203,-3.0203,-3.0044,-2.9711,-2.9695,-2.9695,-2.9695,-3.0029,-3.0203,-3.0203,-3.0283,-3.0458,-3.0728,-3.0728,-3.0886,-1.7553,-1.786,-1.8404,-1.8411,-1.8345,-1.838,-1.8392,-1.7883,0.0,0.0,0.0,0.0,-1.749,-1.8337,-1.8753,-1.826,-1.8778,-1.9667,-2.1193,-2.4677,-2.6974,-2.7059,-2.6954,-2.7027,-2.7027,-2.7027,-2.7027,-2.7027,-2.7027,-2.7027,-2.7027,-2.7027,-2.7027,-2.7027,-2.7027,-2.7027,-2.7027,-2.7027,-2.6979,-2.705,-2.6925,-2.6672,-2.6485,-3.1344,-3.3437,-3.3492,-3.3492,-3.3492,-3.3492,-3.3492,-3.3492,-3.3492,-3.3492,-3.3492,-3.3492,-3.3492,-3.3492,-3.3492,-3.3492,-3.3492,-3.3544,-3.3435,-3.2586,-3.1352,-3.1415,-3.1395,-3.1395,-3.1395,-3.1395,-3.1395,-3.1395,-3.1395,-3.1395,-3.1395,-3.1395,-3.1395,-3.1395,-3.1395,-3.1395,-3.1395,-3.1395,-3.1395,-3.1395,-3.1395,-3.1395,-3.1395,-3.1395,-3.1395,-3.1395,-3.1395,-3.1395,-3.1395,-3.1395,-3.1395,-3.1395,-3.1213,-3.0926,-3.0766,-3.075,-3.0591,-3.006,-3.0044,-3.0124,-3.0299,-3.0473,-3.0648,-3.0807,-3.0807,-3.0902,-3.1109,-3.1109,-3.1204,-1.7457,-1.7514,-1.7629,-1.7897,-1.7943,-1.7943,-1.761,0.0,0.0,0.0,0.0,0.0,0.0,-1.9717,0.0,-1.9579,-1.9776,-2.0705,-2.2245,-2.5167,-2.6996,-2.6918,-2.7027,-2.7027,-2.7027,-2.7027,-2.7027,-2.7027,-2.7027,-2.7027,-2.7027,-2.7027,-2.7027,-2.7027,-2.6991,-2.6979,-2.6979,-2.6979,-2.7038,-2.6974,-2.679,-2.6735,-2.6847,-3.1454,-3.3437,-3.3492,-3.3492,-3.3492,-3.3492,-3.3492,-3.3492,-3.3492,-3.3492,-3.3492,-3.3492,-3.3492,-3.3492,-3.3492,-3.3492,-3.3492,-3.356,-3.3483,-3.2475,-3.1368,-3.1462,-3.1427,-3.1395,-3.1395,-3.1395,-3.1395,-3.1395,-3.1395,-3.1395,-3.1395,-3.1395,-3.1395,-3.1395,-3.1395,-3.1395,-3.1395,-3.1395,-3.1395,-3.1395,-3.1395,-3.1395,-3.1395,-3.1395,-3.1395,-3.1395,-3.1395,-3.1395,-3.1395,-3.1395,-3.1395,-3.1395,-3.1395,-3.1437,-3.1333,-3.1469,-3.1125,-3.0426,-3.0394,-3.0537,-3.0855,-3.0918,-3.1093,-3.1395,-3.1395,-3.1395,-3.1395,-3.1395,-3.1395,-1.7502,-1.7508,-1.7886,-1.9706,-2.0156,-1.9674,-1.7961,0.0,0.0,0.0,0.0,0.0,0.0,-2.1934,-2.2739,-2.0828,-2.2759,-2.4265,-2.3584,-2.5591,-2.6996,-2.6918,-2.7027,-2.7027,-2.7027,-2.7027,-2.7027,-2.7027,-2.7027,-2.7027,-2.7027,-2.7027,-2.7027,-2.7027,-2.7014,-2.7084,-2.7084,-2.7084,-2.6961,-2.7058,-2.6037,-2.8021,-3.2289,-3.3137,-3.3525,-3.3492,-3.3492,-3.3492,-3.3492,-3.3492,-3.3492,-3.3492,-3.3492,-3.3492,-3.3492,-3.3492,-3.3492,-3.3492,-3.3492,-3.3492,-3.3429,-3.3565,-3.249,-3.1399,-3.1402,-3.1431,-3.1395,-3.1395,-3.1395,-3.1395,-3.1395,-3.1395,-3.1395,-3.1395,-3.1395,-3.1395,-3.1395,-3.1395,-3.1395,-3.1395,-3.1395,-3.1395,-3.1395,-3.1395,-3.1395,-3.1395,-3.1395,-3.1395,-3.1395,-3.1395,-3.1395,-3.1395,-3.1395,-3.1395,-3.1395,-3.1395,-3.1379,-3.1331,-3.1331,-3.1157,-3.0791,-3.0775,-3.0807,-3.0855,-3.1157,-3.1331,-3.1395,-3.1395,-3.1395,-3.1395,-3.1395,-3.1395,-1.7445,-1.8398,-1.9499,-2.0483,-1.9875,-1.8818,0.0,0.0,0.0,0.0,0.0,0.0,0.0,0.0,-2.2789,-2.246,-2.4146,-2.5387,-2.5495,-2.645,-2.6934,-2.6942,-2.7027,-2.7027,-2.7027,-2.7027,-2.7027,-2.7027,-2.7027,-2.7027,-2.7027,-2.7027,-2.6966,-2.7026,-2.6917,-2.6698,-2.6206,-2.6194,-2.6146,-2.6187,-2.561,-2.6644,-2.927,-3.213,-3.3415,-3.3492,-3.3492,-3.3492,-3.3492,-3.3492,-3.3492,-3.3492,-3.3492,-3.3492,-3.3492,-3.3492,-3.3492,-3.3492,-3.3492,-3.3492,-3.3429,-3.3467,-3.3082,-3.2364,-3.1638,-3.1478,-3.1395,-3.1395,-3.1395,-3.1395,-3.1395,-3.1395,-3.1395,-3.1395,-3.1395,-3.1395,-3.1395,-3.1395,-3.1395,-3.1395,-3.1395,-3.1395,-3.1395,-3.1395,-3.1395,-3.1395,-3.1395,-3.1395,-3.1395,-3.1395,-3.1395,-3.1395,-3.1395,-3.1395,-3.1395,-3.1395,-3.1395,-3.1395,-3.1395,-3.1315,-3.1157,-3.1141,-3.1141,-3.1141,-3.13,-3.1395,-3.1395,-3.1395,-3.1395,-3.1395,-3.1395,-3.1395,-1.7265,-1.8753,-2.0156,-2.023,0.0,0.0,0.0,0.0,0.0,0.0,0.0,0.0,0.0,-2.1254,-2.2923,-2.4061,-2.4936,-2.5855,-2.6872,-2.6971,-2.6888,-2.6979,-2.7027,-2.7027,-2.7027,-2.7027,-2.7027,-2.7027,-2.7027,-2.7027,-2.7027,-2.6979,-2.705,-2.7047,-2.6722,-2.6254,-2.5449,-2.5389,-2.5366,-2.5354,-2.5407,-2.5349,-2.5539,-3.1057,-3.3565,-3.3556,-3.3508,-3.3492,-3.3492,-3.3492,-3.3492,-3.3492,-3.3492,-3.3492,-3.3492,-3.3492,-3.3492,-3.3492,-3.3492,-3.3492,-3.3444,-3.3547,-3.342,-3.324,-3.1779,-3.1417,-3.132,-3.1411,-3.1395,-3.1395,-3.1395,-3.1395,-3.1395,-3.1395,-3.1395,-3.1395,-3.1395,-3.1395,-3.1395,-3.1395,-3.1395,-3.1395,-3.1395,-3.1395,-3.1395,-3.1395,-3.1395,-3.1395,-3.1395,-3.1395,-3.1395,-3.1395,-3.1395,-3.1395,-3.1395,-3.1395,-3.1395,-3.1395,-3.1395,-3.1395,-3.1395,-3.1395,-3.1395,-3.1395,-3.1395,-3.1395,-3.1395,-3.1395,-3.1395,-3.1395,-3.1395,-3.1395,-1.682,-1.7702,-1.8617,-1.9108,0.0,0.0,0.0,0.0,0.0,0.0,0.0,0.0,0.0,-2.2682,-2.3671,-2.5078,-2.5736,-2.6228,-2.6864,-2.6795,-2.6713,-2.7003,-2.7027,-2.7027,-2.7027,-2.7027,-2.7027,-2.7027,-2.7027,-2.7027,-2.7027,-2.7002,-2.7059,-2.7035,-2.597,-2.5485,-2.5449,-2.5407,-2.547,-2.547,-2.5458,-2.5349,-2.553,-3.1066,-3.3422,-3.3415,-3.3572,-3.3492,-3.3492,-3.3492,-3.3492,-3.3492,-3.3492,-3.3492,-3.3492,-3.3492,-3.3492,-3.3492,-3.3492,-3.3492,-3.3476,-3.346,-3.3579,-3.3226,-3.1903,-3.1401,-3.1433,-3.1474,-3.1395,-3.1395,-3.1395,-3.1395,-3.1395,-3.1395,-3.1395,-3.1395,-3.1395,-3.1395,-3.1395,-3.1395,-3.1395,-3.1395,-3.1395,-3.1395,-3.1395,-3.1395,-3.1395,-3.1395,-3.1395,-3.1395,-3.1395,-3.1395,-3.1395,-3.1395,-3.1395,-3.1395,-3.1395,-3.1395,-3.1395,-3.1395,-3.1395,-3.1395,-3.1395,-3.1395,-3.1395,-3.1395,-3.1395,-3.1395,-3.1395,-3.1395,-3.1395,-3.1395,-1.6891,-1.7541,-1.8212,-1.8488,0.0,0.0,0.0,0.0,0.0,0.0,0.0,0.0,0.0,0.0,-2.4466,-2.5313,-2.6032,-2.6733,-2.699,-2.6882,-2.6918,-2.7015,-2.7027,-2.7027,-2.7027,-2.7027,-2.7027,-2.7027,-2.7027,-2.6966,-2.7002,-2.7084,-2.6686,-2.5958,-2.5556,-2.5378,-2.5407,-2.5482,-2.5433,-2.5433,-2.5433,-2.5471,-2.5396,-2.7561,-3.0245,-3.3423,-3.3524,-3.3492,-3.3492,-3.3492,-3.3492,-3.3492,-3.3492,-3.3492,-3.3492,-3.3492,-3.3492,-3.3492,-3.3492,-3.3492,-3.3492,-3.3492,-3.3483,-3.337,-3.2841,-3.2173,-3.134,-3.1386,-3.1324,-3.1418,-3.1402,-3.1354,-3.1354,-3.1354,-3.1354,-3.1462,-3.1427,-3.1395,-3.1395,-3.1395,-3.1395,-3.1395,-3.1395,-3.1395,-3.1395,-3.1395,-3.1395,-3.1395,-3.1395,-3.1395,-3.1395,-3.1395,-3.1395,-3.1395,-3.1395,-3.1395,-3.1395,-3.1395,-3.1395,-3.1395,-3.1395,-3.1395,-3.1395,-3.1395,-3.1395,-3.1395,-3.1395,-3.1395,-3.1395,-3.1395,-3.1395,-3.1395,-1.7165,-1.7535,-1.8044,0.0,0.0,0.0,0.0,0.0,0.0,0.0,0.0,0.0,0.0,0.0,0.0,-2.5301,-2.6078,-2.6802,-2.6954,-2.7027,-2.7027,-2.7027,-2.7027,-2.7027,-2.7027,-2.7027,-2.7027,-2.7027,-2.6954,-2.7026,-2.7047,-2.6674,-2.6218,-2.5461,-2.5366,-2.5431,-2.5446,-2.5433,-2.5433,-2.5433,-2.5433,-2.5471,-2.5383,-2.7135,-2.9979,-3.3572,-3.3508,-3.3492,-3.3492,-3.3492,-3.3492,-3.3492,-3.3492,-3.3492,-3.3492,-3.3492,-3.3492,-3.3492,-3.3492,-3.3492,-3.3476,-3.3528,-3.3548,-3.3337,-3.3016,-3.2079,-3.1512,-3.1905,-3.2047,-3.2015,-3.2079,-3.1984,-3.2078,-3.2078,-3.17,-3.1449,-3.1402,-3.1354,-3.1354,-3.1354,-3.1354,-3.1354,-3.1354,-3.1354,-3.1354,-3.1354,-3.1354,-3.1478,-3.1383,-3.1383,-3.1336,-3.1395,-3.1395,-3.1395,-3.1395,-3.1395,-3.1395,-3.1395,-3.1395,-3.1395,-3.1395,-3.1395,-3.1395,-3.1395,-3.1395,-3.1395,-3.1395,-3.1395,-3.1395,-3.1395,-3.1395,-3.1395,-1.7479,-1.7672,-1.8143,0.0,0.0,0.0,0.0,0.0,0.0,0.0,0.0,-2.355,-2.3804,0.0,0.0,-2.5264,-2.588,-2.6411,-2.6954,-2.7027,-2.7027,-2.7027,-2.7027,-2.7027,-2.7027,-2.7027,-2.7027,-2.7027,-2.699,-2.7035,-2.7035,-2.5934,-2.5449,-2.5437,-2.5395,-2.5433,-2.5433,-2.5433,-2.5433,-2.5433,-2.5433,-2.5349,-2.5724,-3.1086,-3.3447,-3.3431,-3.3572,-3.3492,-3.3492,-3.3492,-3.3492,-3.3492,-3.3492,-3.3492,-3.3492,-3.3492,-3.3492,-3.3492,-3.3492,-3.3492,-3.3429,-3.3467,-3.3516,-3.3259,-3.176,-3.1461,-3.1666,-3.3159,-3.3558,-3.3464,-3.3452,-3.3467,-3.3558,-3.3558,-3.2412,-3.1461,-3.1461,-3.1461,-3.1461,-3.1461,-3.1461,-3.1461,-3.1461,-3.1461,-3.1461,-3.1461,-3.1461,-3.1368,-3.1402,-3.1371,-3.1402,-3.1427,-3.1395,-3.1395,-3.1395,-3.1395,-3.1395,-3.1395,-3.1395,-3.1395,-3.1395,-3.1395,-3.1395,-3.1395,-3.1395,-3.1395,-3.1395,-3.1395,-3.1395,-3.1395,-3.1395,-3.1395,-1.793,-1.7997,0.0,0.0,0.0,0.0,0.0,0.0,0.0,0.0,0.0,-2.4601,-2.4673,0.0,0.0,-2.5627,-2.6158,-2.6641,-2.6979,-2.7027,-2.7027,-2.7027,-2.7027,-2.7027,-2.7027,-2.7027,-2.6954,-2.6582,-2.6677,-2.6472,-2.5898,-2.5532,-2.5366,-2.5371,-2.547,-2.5433,-2.5433,-2.5433,-2.5433,-2.5433,-2.5325,-2.7422,-3.1095,-3.2738,-3.3494,-3.3572,-3.3508,-3.3492,-3.3492,-3.3492,-3.3492,-3.3492,-3.3492,-3.3492,-3.3492,-3.3492,-3.3492,-3.3492,-3.3492,-3.3492,-3.3429,-3.3467,-3.2793,-3.1935,-3.159,-3.2047,-3.2984,-3.3367,-3.3548,-3.3563,-3.3497,-3.3449,-3.3499,-3.3436,-3.3178,-3.2906,-3.2857,-3.2809,-3.2809,-3.2809,-3.2809,-3.2809,-3.2809,-3.2809,-3.2809,-3.2809,-3.2809,-3.2665,-3.1967,-3.1526,-3.1336,-3.1395,-3.1395,-3.1395,-3.1395,-3.1395,-3.1395,-3.1395,-3.1395,-3.1395,-3.1395,-3.1395,-3.1395,-3.1395,-3.1395,-3.1395,-3.1395,-3.1395,-3.1395,-3.1395,-3.1395,-3.1395,-1.8152,-1.8471,0.0,0.0,0.0,0.0,0.0,0.0,0.0,0.0,0.0,-2.5083,-2.518,-2.5325,0.0,-2.5928,-2.6351,-2.6725,-2.6991,-2.7027,-2.7027,-2.7027,-2.7027,-2.6991,-2.6882,-2.687,-2.6761,-2.6484,-2.6375,-2.617,-2.5658,-2.5538,-2.5407,-2.5446,-2.5433,-2.5397,-2.5471,-2.5471,-2.541,-2.5481,-2.5383,-2.7083,-3.0403,-3.2582,-3.3524,-3.3451,-3.3451,-3.3451,-3.3451,-3.3451,-3.3451,-3.3467,-3.3417,-3.3465,-3.3481,-3.3444,-3.3492,-3.3492,-3.3492,-3.3492,-3.3576,-3.3484,-3.2587,-3.1399,-3.1449,-3.1968,-3.2825,-3.3354,-3.3435,-3.3492,-3.3492,-3.3492,-3.3444,-3.3417,-3.3547,-3.3483,-3.3468,-3.3436,-3.3436,-3.3436,-3.3436,-3.3436,-3.3436,-3.3436,-3.3436,-3.3436,-3.3178,-3.2729,-3.2142,-3.1697,-3.1395,-3.1395,-3.1395,-3.1395,-3.1395,-3.1395,-3.1395,-3.1395,-3.1395,-3.1395,-3.1395,-3.1395,-3.1395,-3.1395,-3.1395,-3.1395,-3.1395,-3.1395,-3.1458,-3.1601,-3.1601,-3.1665,-1.8277,0.0,0.0,0.0,0.0,0.0,0.0,0.0,-2.565,-2.5726,0.0,-2.5325,-2.5556,-2.5811,-2.6007,-2.6309,-2.6649,-2.6929,-2.7172,-2.7015,-2.6991,-2.6991,-2.6966,-2.6858,-2.6629,-2.6604,-2.6484,-2.6206,-2.5977,-2.6017,-2.6178,-2.5578,-2.5421,-2.5397,-2.5397,-2.5289,-2.5383,-2.5371,-2.5249,-2.5182,-2.5182,-2.5186,-2.5375,-3.0884,-3.3339,-3.3367,-3.3367,-3.3367,-3.3367,-3.3367,-3.3367,-3.3383,-3.3339,-3.3323,-3.3565,-3.3512,-3.346,-3.3492,-3.3492,-3.346,-3.3512,-3.3418,-3.257,-3.1368,-3.1418,-3.1386,-3.1713,-3.3178,-3.3563,-3.3492,-3.3492,-3.3492,-3.3492,-3.3492,-3.3492,-3.3492,-3.3492,-3.3492,-3.3492,-3.3492,-3.3492,-3.3492,-3.3492,-3.3492,-3.3476,-3.3444,-3.2664,-3.2031,-3.1999,-3.162,-3.1395,-3.1395,-3.1427,-3.1443,-3.1443,-3.1458,-3.149,-3.149,-3.149,-3.149,-3.149,-3.1427,-3.1395,-3.1395,-3.1395,-3.1395,-3.1395,-3.1427,-3.1601,-3.1919,-3.1951,-3.2126,-1.8631,-1.9696,0.0,0.0,0.0,-2.5806,-2.79,-2.8235,-2.8275,-2.856,-2.7733,-2.6863,-2.6927,-2.8313,-2.9017,-2.8108,-2.8397,-2.8578,-2.8642,-2.7566,-2.6725,-2.6725,-2.6532,-2.6375,-2.6315,-2.6315,-2.6194,-2.5928,-2.5868,-2.5747,-2.5542,-2.547,-2.5337,-2.5132,-2.4951,-2.5179,-2.5459,-2.4543,-2.414,-2.4093,-2.4093,-2.4172,-2.4394,-2.9558,-3.1895,-3.1841,-3.1841,-3.1841,-3.1841,-3.1841,-3.1841,-3.1856,-3.1919,-3.2506,-3.3532,-3.3435,-3.3449,-3.3492,-3.3492,-3.3497,-3.3565,-3.3513,-3.2601,-3.1402,-3.1415,-3.1371,-3.1682,-3.3081,-3.3565,-3.3492,-3.3492,-3.3492,-3.3492,-3.3492,-3.3492,-3.3492,-3.3492,-3.3492,-3.3492,-3.3492,-3.3492,-3.3492,-3.3492,-3.3492,-3.3381,-3.3095,-3.249,-3.2111,-3.1889,-3.1649,-3.1395,-3.1395,-3.1649,-3.1808,-3.1808,-3.2046,-3.2189,-3.2189,-3.2189,-3.2189,-3.2189,-3.1681,-3.1395,-3.1395,-3.1395,-3.1395,-3.1395,-3.1665,-3.184,-3.1919,-3.2189,-3.2348,0.0,0.0,0.0,-2.4215,0.0,-2.6694,-2.9705,-2.9583,-2.942,-3.1061,-2.9915,-2.8676,-2.8676,-2.9556,-3.026,-2.9716,-2.9704,-2.9689,-3.0015,-2.9079,-2.8191,-2.7498,-2.7184,-2.6872,-2.6037,-2.6037,-2.5928,-2.5663,-2.5639,-2.553,-2.5264,-2.5252,-2.512,-2.4675,-2.4663,-2.4721,-2.4985,-2.4256,-2.3832,-2.3726,-2.3726,-2.5087,-2.7499,-3.022,-3.1386,-3.1371,-3.1371,-3.1371,-3.1371,-3.1371,-3.1371,-3.1387,-3.137,-3.1905,-3.2507,-3.3226,-3.3467,-3.3433,-3.3433,-3.3499,-3.3436,-3.2729,-3.2046,-3.1465,-3.132,-3.1386,-3.1653,-3.3127,-3.3564,-3.3465,-3.3444,-3.3492,-3.3492,-3.3492,-3.3492,-3.3492,-3.3492,-3.3492,-3.3492,-3.3492,-3.3492,-3.3492,-3.3492,-3.3492,-3.3413,-3.3222,-3.2711,-3.2427,-3.2444,-3.211,-3.1872,-3.1872,-3.2046,-3.2158,-3.2158,-3.2316,-3.2412,-3.2412,-3.2412,-3.2412,-3.2412,-3.2062,-3.1872,-3.1872,-3.1872,-3.1872,-3.1872,-3.2062,-3.2237,-3.2412,-3.2587,-3.2761,0.0,0.0,-2.4394,-2.7894,-2.7777,0.0,-3.1445,-3.0776,-3.0098,-3.2811,-3.1661,-3.0198,-3.0198,-3.0624,-3.0909,-3.0991,-3.0864,-3.0821,-3.109,-3.0503,-2.979,-2.823,-2.8017,-2.7381,-2.5957,-2.5759,-2.5675,-2.5458,-2.5397,-2.5277,-2.4879,-2.4999,-2.4842,-2.4387,-2.4375,-2.4267,-2.4353,-2.3992,-2.3872,-2.384,-2.3792,-2.6466,-3.1434,-3.1399,-3.1395,-3.1395,-3.1395,-3.1395,-3.1395,-3.1395,-3.1395,-3.1411,-3.1354,-3.1324,-3.1606,-3.2746,-3.3371,-3.3452,-3.3452,-3.3387,-3.2874,-3.1732,-3.1371,-3.1324,-3.1383,-3.137,-3.1685,-3.2793,-3.3307,-3.3435,-3.3576,-3.3492,-3.3492,-3.3492,-3.3492,-3.3492,-3.3492,-3.3492,-3.3492,-3.3492,-3.3492,-3.3492,-3.3492,-3.3492,-3.346,-3.3397,-3.3127,-3.2904,-3.2825,-3.2618,-3.2475,-3.2475,-3.2491,-3.2507,-3.2507,-3.2555,-3.2587,-3.2587,-3.2587,-3.2587,-3.2587,-3.2587,-3.2587,-3.2587,-3.2475,-3.2412,-3.2412,-3.2475,-3.2666,-3.2952,-3.3015,-3.3206,0.0,0.0,-2.5015,0.0,-2.9291,-2.9487,0.0,0.0,-3.1762,0.0,-3.214,-3.1209,-3.1209,-3.2495,-3.3075,-3.208,-3.1948,-3.2126,-3.217,-3.0881,-2.9473,-2.8089,-2.7709,-2.7042,-2.5665,-2.5494,-2.5482,-2.5446,-2.5228,-2.5083,-2.5047,-2.4818,-2.4564,-2.4299,-2.4287,-2.4154,-2.39,-2.3888,-2.3876,-2.384,-2.3745,-2.641,-3.1434,-3.1399,-3.1395,-3.1395,-3.1395,-3.1395,-3.1395,-3.1395,-3.1395,-3.1395,-3.1443,-3.1462,-3.1371,-3.1638,-3.2427,-3.3448,-3.3448,-3.2681,-3.1669,-3.1402,-3.1371,-3.1355,-3.148,-3.1339,-3.1476,-3.1626,-3.2534,-3.3435,-3.3576,-3.3492,-3.3492,-3.3492,-3.3492,-3.3492,-3.3492,-3.3492,-3.3492,-3.3492,-3.3492,-3.3492,-3.3492,-3.3492,-3.3381,-3.3079,-3.2888,-3.265,-3.2269,-3.2507,-3.273,-3.273,-3.2825,-3.2888,-3.2888,-3.3158,-3.3333,-3.3333,-3.3333,-3.3333,-3.3333,-3.3333,-3.3333,-3.3333,-3.273,-3.2412,-3.2412,-3.273,-3.2904,-3.2968,-3.327,-3.3444,-2.2311,-2.3091,-2.4673,0.0,-2.9405,-2.9456,-3.1433,-3.1919,-3.2062,-3.2555,-3.2279,-3.2189,-3.2577,-3.3274,-3.3613,-3.3119,-3.3119,-3.3166,-3.3198,-3.2586,-3.1357,-3.0,-2.9033,-2.811,-2.6601,-2.5763,-2.5373,-2.5228,-2.5108,-2.4914,-2.4613,-2.448,-2.4287,-2.4021,-2.4021,-2.3961,-2.384,-2.384,-2.384,-2.384,-2.5268,-2.779,-3.1434,-3.1399,-3.1395,-3.1395,-3.1395,-3.1395,-3.1395,-3.1395,-3.1395,-3.1395,-3.1395,-3.1474,-3.1447,-3.1465,-3.1826,-3.2331,-3.2331,-3.1968,-3.159,-3.2344,-3.2613,-3.2585,-3.2585,-3.2507,-3.2491,-3.2071,-3.2743,-3.3435,-3.3576,-3.3492,-3.3492,-3.3492,-3.3492,-3.3492,-3.3492,-3.3492,-3.3492,-3.3492,-3.3492,-3.3492,-3.3492,-3.3492,-3.3429,-3.327,-3.3206,-3.3095,-3.2904,-3.3047,-3.3174,-3.3174,-3.3222,-3.3254,-3.3254,-3.3397,-3.3492,-3.3492,-3.3492,-3.3492,-3.3492,-3.3492,-3.3492,-3.3492,-3.3174,-3.3015,-3.3015,-3.3174,-3.3254,-3.3254,-3.3413,-3.3492,0.0,0.0,-2.4379,-2.8099,-2.8826,-2.9122,0.0,0.0,-3.1776,-3.2205,-3.2285,-3.2475,-3.3095,-3.3286,-3.346,-3.3826,-3.3651,-3.3572,-3.3842,-3.3651,-3.2819,-3.1135,-3.0064,-2.884,-2.733,-2.593,-2.5313,-2.5453,-2.5045,-2.4661,-2.4263,-2.4178,-2.4045,-2.3852,-2.384,-2.384,-2.384,-2.384,-2.384,-2.384,-2.6162,-2.8503,-3.0713,-3.1213,-3.1395,-3.1395,-3.1395,-3.1395,-3.1395,-3.1395,-3.1395,-3.1395,-3.1395,-3.1395,-3.1411,-3.1323,-3.137,-3.1462,-3.1386,-3.134,-3.1638,-3.3068,-3.3487,-3.3558,-3.3481,-3.3513,-3.3386,-3.279,-3.3031,-3.3435,-3.3576,-3.3492,-3.3492,-3.3492,-3.3492,-3.3492,-3.3492,-3.3492,-3.3492,-3.3492,-3.3492,-3.3492,-3.3492,-3.3492,-3.3492,-3.3492,-3.3492,-3.3492,-3.3492,-3.3492,-3.3492,-3.3492,-3.3492,-3.3492,-3.3492,-3.3492,-3.3492,-3.3492,-3.3492,-3.3492,-3.3492,-3.3492,-3.3492,-3.3492,-3.3492,-3.3492,-3.3492,-3.3492,-3.3492,-3.3492,-3.3492,-3.3492,0.0,-2.3133,0.0,-2.639,-2.8106,-2.9391,0.0,-3.0664,-3.1109,-3.1808,-3.1951,-3.2046,-3.2396,-3.2745,-3.3095,-3.346,-3.3492,-3.3492,-3.3508,-3.3492,-3.2474,-2.9955,-2.9367,-2.8524,-2.703,-2.5471,-2.5157,-2.6285,-2.5062,-2.4263,-2.4238,-2.3997,-2.3852,-2.384,-2.384,-2.384,-2.384,-2.384,-2.384,-2.384,-2.5622,-2.7407,-2.9047,-3.0655,-3.1395,-3.1395,-3.1395,-3.1395,-3.1395,-3.1395,-3.1395,-3.1395,-3.1395,-3.1395,-3.1395,-3.1411,-3.1389,-3.1333,-3.1469,-3.1389,-3.1598,-3.3027,-3.3487,-3.3448,-3.358,-3.35,-3.3565,-3.3365,-3.3417,-3.3435,-3.3576,-3.3492,-3.3492,-3.3492,-3.3492,-3.3492,-3.3492,-3.3492,-3.3492,-3.3492,-3.3492,-3.3492,-3.3492,-3.3492,-3.3492,-3.3492,-3.3492,-3.3492,-3.3492,-3.3492,-3.3492,-3.3492,-3.3492,-3.3492,-3.3492,-3.3492,-3.3492,-3.3492,-3.3492,-3.3492,-3.3492,-3.3492,-3.3492,-3.3492,-3.3492,-3.3492,-3.3492,-3.3492,-3.3492,-3.3492,-3.3492,-3.3492,-2.1306,0.0,0.0,-2.523,-2.6819,-2.8186,-2.9107,-3.0124,-3.0934,-3.1188,-3.1427,-3.1681,-3.203,-3.238,-3.265,-3.2777,-3.2793,-3.2793,-3.2793,-3.2793,-3.2471,-3.1472,-3.0557,-2.9673,-2.9186,-2.7131,-2.5855,-2.6164,-2.4926,-2.4154,-2.3997,-2.39,-2.384,-2.384,-2.384,-2.416,-2.4945,-2.416,-2.4627,-2.6188,-2.6936,-2.772,-2.9027,-3.0608,-3.1395,-3.1395,-3.1395,-3.1395,-3.1395,-3.1395,-3.1395,-3.1395,-3.1395,-3.0882,-3.0128,-3.0128,-3.0599,-3.1404,-3.083,-3.1067,-3.1617,-3.2662,-3.3049,-3.3034,-3.3385,-3.3481,-3.3512,-3.346,-3.3576,-3.3512,-3.346,-3.3492,-3.3492,-3.3492,-3.3492,-3.3492,-3.3492,-3.3492,-3.3492,-3.3492,-3.3492,-3.3492,-3.3492,-3.3492,-3.3492,-3.3492,-3.3492,-3.3492,-3.3492,-3.3492,-3.3492,-3.3492,-3.3492,-3.3492,-3.3492,-3.3492,-3.3492,-3.3492,-3.3492,-3.3492,-3.3492,-3.3492,-3.3492,-3.3492,-3.3492,-3.3492,-3.3492,-3.3492,-3.3492,-3.3492,-3.3492,-3.3492,-2.0458,0.0,0.0,0.0,-2.5373,-2.647,-2.8344,-2.9314,-2.9981,-3.0553,-3.0966,-3.1315,-3.1681,-3.1919,-3.2142,-3.238,-3.2412,-3.2412,-3.2412,-3.2412,-3.2253,-3.176,-3.0855,-3.0316,-3.0301,-2.7795,-2.6384,-2.6507,-2.5062,-2.4021,-2.3852,-2.384,-2.384,-2.384,-2.384,-2.448,-2.574,-2.4786,-2.5568,-2.7605,-2.8076,-2.853,-2.9123,-3.0732,-3.1395,-3.1395,-3.1395,-3.1395,-3.1395,-3.1395,-3.1395,-3.1395,-3.1395,-3.0635,-2.9609,-2.9716,-3.0171,-3.1061,-3.0767,-3.0914,-3.1478,-3.2411,-3.2746,-3.2841,-3.3333,-3.3492,-3.3492,-3.3492,-3.3492,-3.3492,-3.3492,-3.3492,-3.3492,-3.3492,-3.3492,-3.3492,-3.3492,-3.3492,-3.3492,-3.3492,-3.3492,-3.3492,-3.3492,-3.3492,-3.3492,-3.3492,-3.3492,-3.3492,-3.3492,-3.3492,-3.3492,-3.3492,-3.3492,-3.3492,-3.3492,-3.3492,-3.3492,-3.3492,-3.3492,-3.3492,-3.3492,-3.3492,-3.3492,-3.3492,-3.3492,-3.3492,-3.3492,-3.3492,-3.3492,-3.3492,-3.3492,-3.3492,0.0,0.0,0.0,0.0,-2.3721,-2.4404,-2.782,-2.8106,-2.8154,-2.9886,-3.0537,-3.0902,-3.1284,-3.1363,-3.1586,-3.2253,-3.238,-3.238,-3.238,-3.238,-3.1903,-3.061,-3.0166,-2.9972,-2.9957,-2.7313,-2.6201,-2.7449,-2.5251,-2.384,-2.384,-2.384,-2.384,-2.384,-2.384,-2.448,-2.574,-2.574,-2.636,-2.7762,-2.8856,-2.9479,-2.9649,-3.0901,-3.1379,-3.1395,-3.1395,-3.1395,-3.1395,-3.1395,-3.1395,-3.1395,-3.1395,-3.0972,-3.0338,-3.0329,-3.0369,-3.0426,-3.1125,-3.1341,-3.1582,-3.2251,-3.2412,-3.2539,-3.327,-3.3492,-3.3492,-3.3492,-3.3492,-3.3492,-3.3492,-3.3492,-3.3492,-3.3492,-3.3492,-3.3492,-3.3492,-3.3492,-3.3492,-3.3492,-3.3492,-3.3492,-3.3492,-3.3492,-3.3492,-3.3492,-3.3492,-3.3492,-3.3492,-3.3492,-3.3492,-3.3492,-3.3492,-3.3492,-3.3492,-3.3492,-3.3492,-3.3492,-3.3492,-3.3492,-3.3492,-3.3492,-3.3492,-3.3492,-3.3492,-3.3492,-3.3492,-3.3492,-3.3492,-3.3492,-3.3492,-3.3492,-1.9602,0.0,0.0,0.0,0.0,0.0,-2.4325,-2.5246,-2.6327,-2.809,-2.8726,-2.9298,-3.041,-3.0823,-3.1077,-3.1252,-3.1506,-3.1681,-3.1681,-3.1681,-3.151,-3.1199,-3.1121,-3.0577,-2.9628,-2.8133,-2.7291,-2.7605,-2.5251,-2.4627,-2.6504,-2.5727,-2.5104,-2.5104,-2.432,-2.4786,-2.6977,-2.6201,-2.7305,-3.0284,-2.9562,-2.9731,-3.0901,-3.0972,-3.1141,-3.1395,-3.1395,-3.1395,-3.1395,-3.1395,-3.1395,-3.1395,-3.1395,-3.083,-3.0143,-3.0505,-3.0514,-3.0378,-3.0855,-3.1277,-3.1549,-3.2158,-3.2412,-3.2539,-3.327,-3.3492,-3.3492,-3.3492,-3.3492,-3.3492,-3.3492,-3.3492,-3.3492,-3.3492,-3.3492,-3.3492,-3.3492,-3.3492,-3.3492,-3.3492,-3.3492,-3.3492,-3.3492,-3.3492,-3.3492,-3.3492,-3.3492,-3.3492,-3.3492,-3.3492,-3.3492,-3.3492,-3.3492,-3.3492,-3.3492,-3.3492,-3.3492,-3.3492,-3.3492,-3.3492,-3.3492,-3.3492,-3.3492,-3.3492,-3.3492,-3.3492,-3.3492,-3.3492,-3.3492,-3.3492,-3.3492,-3.3492,0.0,0.0,0.0,0.0,0.0,0.0,-2.3689,-2.4293,-2.504,-2.7089,-2.7884,-2.8519,-2.9488,-2.9965,-3.0203,-3.0203,-3.0505,-3.0886,-3.1331,-3.1395,-3.1395,-3.1395,-3.1395,-3.1071,-3.0284,-2.9182,-2.8232,-2.7605,-2.6188,-2.603,-2.7449,-2.636,-2.5674,-2.5557,-2.5242,-2.5806,-2.7214,-2.6918,-2.8168,-3.0934,-2.9957,-3.005,-3.1157,-3.095,-3.1061,-3.1395,-3.1395,-3.1395,-3.1395,-3.1395,-3.1395,-3.1395,-3.1395,-3.0934,-3.0198,-3.0719,-3.0743,-3.0394,-3.0902,-3.122,-3.1506,-3.2189,-3.2412,-3.2539,-3.327,-3.3492,-3.3492,-3.3492,-3.3492,-3.3492,-3.3492,-3.3492,-3.3492,-3.3492,-3.3492,-3.3492,-3.3492,-3.3492,-3.3492,-3.3492,-3.3492,-3.3492,-3.3492,-3.3492,-3.3492,-3.3492,-3.3492,-3.3492,-3.3492,-3.3492,-3.3492,-3.3492,-3.3492,-3.3492,-3.3492,-3.3492,-3.3492,-3.3492,-3.3492,-3.3492,-3.3492,-3.3492,-3.3492,-3.3492,-3.3492,-3.3656,-3.3968,-3.3656,-3.3492,-3.3492,-3.3492,-3.3492,0.0,0.0,0.0,0.0,-2.1497,0.0,-2.4261,-2.415,-2.3991,-2.6215,-2.7185,-2.7788,-2.8265,-2.8678,-2.8932,-2.89,-2.9345,-3.006,-3.1077,-3.1252,-3.1252,-3.122,-3.122,-3.122,-3.1051,-2.9992,-2.8924,-2.7706,-2.7706,-2.7692,-2.7507,-2.6567,-2.5832,-2.571,-2.6498,-2.6822,-2.6833,-2.7769,-2.8972,-3.0315,-3.0283,-3.0458,-3.0807,-3.0807,-3.0998,-3.1331,-3.1379,-3.1395,-3.1395,-3.1395,-3.1395,-3.1395,-3.1395,-3.095,-3.041,-3.1125,-3.0934,-3.0426,-3.1141,-3.1395,-3.149,-3.2142,-3.2348,-3.2491,-3.3206,-3.3429,-3.3429,-3.3476,-3.3492,-3.3492,-3.3492,-3.3492,-3.3492,-3.3492,-3.3492,-3.3492,-3.3492,-3.3492,-3.3492,-3.3492,-3.3492,-3.3492,-3.3492,-3.3492,-3.3492,-3.3492,-3.3492,-3.3492,-3.3492,-3.3492,-3.3492,-3.3492,-3.3492,-3.3492,-3.3492,-3.3492,-3.3492,-3.3492,-3.3492,-3.3492,-3.3492,-3.3492,-3.3492,-3.3492,-3.3656,-3.3968,-3.4783,-3.3968,-3.3492,-3.364,-3.364,-3.3656,0.0,0.0,0.0,0.0,-2.1878,0.0,-2.1211,-2.1655,-2.2482,-2.3244,-2.3737,-2.4404,-2.5596,-2.6342,-2.6676,-2.639,-2.782,-2.925,-3.0029,-3.0362,-3.0426,-3.0156,-3.0124,-2.968,-2.8611,-2.8702,-2.8212,-2.7228,-2.8168,-2.8206,-2.6878,-2.7488,-2.7929,-2.7856,-2.6183,-2.6156,-2.8071,-2.7453,-2.8192,-3.0315,-3.0044,-3.0092,-3.0426,-3.0426,-3.0616,-3.0982,-3.1268,-3.1395,-3.1395,-3.1395,-3.1395,-3.1395,-3.1395,-3.095,-3.041,-3.1125,-3.0934,-3.0426,-3.1141,-3.1395,-3.1458,-3.1887,-3.2015,-3.2142,-3.2841,-3.3063,-3.3111,-3.3397,-3.3492,-3.3492,-3.3492,-3.3492,-3.3492,-3.3492,-3.3492,-3.3492,-3.3492,-3.3492,-3.3492,-3.3492,-3.3492,-3.3492,-3.3492,-3.3492,-3.3492,-3.3492,-3.3492,-3.3492,-3.3492,-3.3492,-3.3492,-3.3492,-3.3492,-3.3492,-3.3492,-3.3492,-3.3492,-3.3492,-3.3492,-3.3492,-3.3492,-3.3492,-3.3492,-3.3492,-3.4131,-3.4621,-3.4783,-3.3968,-3.3804,-3.4621,-3.4621,-3.4131,0.0,0.0,0.0,-2.0663,-2.0997,0.0,0.0,-2.1048,-2.1403,-2.2719,-2.3022,-2.3292,-2.4166,-2.4611,-2.4913,-2.5087,-2.6438,-2.7518,-2.7709,-2.9091,-3.0013,-2.9838,-2.9663,-2.9117,-2.7921,-2.8679,-2.8805,-2.7754,-2.6999,-2.6857,-2.714,-2.7733,-2.7954,-2.7789,-2.7349,-2.7216,-2.7789,-2.7939,-2.8618,-2.9806,-2.9647,-2.9743,-3.0076,-3.0235,-3.0521,-3.0886,-3.1236,-3.1395,-3.1395,-3.1395,-3.1395,-3.1395,-3.1395,-3.1061,-3.0632,-3.0998,-3.0902,-3.0632,-3.0998,-3.1236,-3.1443,-3.1808,-3.1919,-3.2015,-3.2523,-3.2809,-3.3,-3.3174,-3.3349,-3.3492,-3.3492,-3.3492,-3.3492,-3.3492,-3.3492,-3.3492,-3.3492,-3.3492,-3.3492,-3.3492,-3.3492,-3.3492,-3.3492,-3.3492,-3.3492,-3.3492,-3.3492,-3.3492,-3.3492,-3.3492,-3.3492,-3.3492,-3.3492,-3.3492,-3.3492,-3.3492,-3.3492,-3.3492,-3.3492,-3.3492,-3.3492,-3.3492,-3.3492,-3.3492,-3.4294,-3.4946,-3.5416,-3.4929,-3.4783,-3.4783,-3.5271,-3.4946,0.0,0.0,-1.98,-2.0289,-2.0471,-2.0704,0.0,0.0,0.0,-2.2529,-2.2768,-2.2704,-2.299,-2.3038,-2.3228,-2.3785,-2.4817,-2.5453,-2.5167,-2.7264,-2.8837,-2.8916,-2.89,-2.8428,-2.7342,-2.7946,-2.8252,-2.7762,-2.5686,-2.5239,-2.7446,-2.7575,-2.7568,-2.7236,-2.8222,-2.8268,-2.7327,-2.833,-2.8947,-2.9298,-2.9298,-2.9441,-2.9727,-3.0076,-3.0426,-3.0775,-3.1141,-3.1331,-3.1395,-3.1395,-3.1395,-3.1395,-3.1395,-3.1172,-3.0855,-3.0855,-3.0823,-3.0759,-3.0839,-3.1045,-3.1347,-3.1697,-3.1856,-3.1967,-3.2237,-3.2571,-3.2873,-3.2936,-3.3158,-3.3397,-3.346,-3.3492,-3.3492,-3.3492,-3.3492,-3.3492,-3.3492,-3.3492,-3.3492,-3.3492,-3.3492,-3.3492,-3.3492,-3.3492,-3.3492,-3.3492,-3.3492,-3.3492,-3.3492,-3.3492,-3.3492,-3.3492,-3.3492,-3.3492,-3.3492,-3.3492,-3.3492,-3.3492,-3.3492,-3.3492,-3.3492,-3.3492,-3.364,-3.382,-3.4621,-3.5416,-3.6385,-3.6546,-3.6063,-3.5271,-3.6063,-3.5901,-2.0067,-2.0693,-2.0975,-2.0337,-2.1795,-2.2736,-2.0015,0.0,-2.1945,-2.0972,0.0,-2.1163,-2.1211,0.0,0.0,-2.1322,-2.2482,-2.3356,-2.3324,-2.4388,-2.5294,-2.5612,-2.6708,-2.6894,-2.5501,-2.3994,-2.4077,-2.6036,-2.5214,-2.5257,-2.6929,-2.8098,-2.8522,-2.8019,-2.7198,-2.7351,-2.8617,-2.7656,-2.7967,-2.9298,-2.9298,-2.9314,-2.9361,-2.9727,-3.006,-3.0394,-3.0759,-3.1093,-3.1395,-3.1395,-3.1395,-3.1395,-3.1395,-3.1172,-3.0855,-3.0855,-3.0664,-3.0426,-3.0743,-3.0886,-3.0982,-3.1331,-3.1665,-3.1935,-3.1967,-3.2205,-3.2539,-3.2873,-3.2984,-3.3095,-3.3397,-3.3492,-3.3492,-3.3492,-3.3492,-3.3492,-3.3492,-3.3492,-3.3492,-3.3492,-3.3492,-3.3492,-3.3492,-3.3492,-3.3492,-3.3492,-3.3492,-3.3492,-3.3492,-3.3492,-3.3492,-3.3492,-3.3492,-3.3492,-3.3492,-3.3492,-3.3492,-3.3492,-3.3492,-3.3492,-3.3492,-3.3492,-3.3804,-3.4621,-3.5578,-3.6385,-3.7188,-3.8004,-3.7845,-3.7045,-3.7188,-3.6707,-1.9695,-2.0373,-2.0825,-1.964,-2.0307,-2.092,-1.9718,-1.9764,-2.0287,-2.0877,0.0,0.0,0.0,0.0,0.0,0.0,-2.1592,-2.2037,-2.183,-2.2704,-2.3721,-2.469,-2.4765,-2.4653,-2.46,-2.2268,-2.2015,-2.5186,-2.4317,-2.4409,-2.6145,-2.7492,-2.809,-2.7947,-2.757,-2.7648,-2.817,-2.8131,-2.8412,-2.8996,-2.9202,-2.9298,-2.9314,-2.9663,-2.9997,-3.033,-3.0696,-3.1061,-3.1395,-3.1395,-3.1395,-3.1395,-3.1395,-3.13,-3.1125,-3.0696,-3.0585,-3.0601,-3.0346,-3.0521,-3.0918,-3.1268,-3.149,-3.1617,-3.1617,-3.1983,-3.2444,-3.2602,-3.2936,-3.3301,-3.3444,-3.3492,-3.3492,-3.3492,-3.3492,-3.3492,-3.3492,-3.3492,-3.3492,-3.3492,-3.3492,-3.3492,-3.3492,-3.3492,-3.3492,-3.3492,-3.3492,-3.3492,-3.3492,-3.3492,-3.3492,-3.3492,-3.3492,-3.3492,-3.3492,-3.3492,-3.3492,-3.3492,-3.3492,-3.3492,-3.3492,-3.3984,-3.4458,-3.4783,-3.6224,-3.7028,-3.7365,-3.8163,-3.8481,-3.8163,-3.8163,-3.7685,-1.9639,-2.029,-2.0712,-1.8945,-1.906,-1.9391,-1.8969,-1.8946,-1.9263,-2.0924,-2.1059,0.0,0.0,0.0,-2.0272,-2.0679,0.0,-2.0416,-2.028,-2.0977,-2.1994,-2.3435,-2.2859,-2.2811,-2.3743,-2.12,-2.0922,-2.4449,-2.3679,-2.3954,-2.592,-2.7129,-2.7725,-2.7725,-2.7963,-2.8011,-2.7868,-2.8281,-2.8583,-2.8773,-2.9028,-2.9202,-2.9314,-2.9663,-2.9997,-3.033,-3.0696,-3.1061,-3.1395,-3.1395,-3.1395,-3.1395,-3.1395,-3.1395,-3.13,-3.0585,-3.0489,-3.0632,-3.014,-3.0426,-3.1045,-3.13,-3.1395,-3.1395,-3.1395,-3.1808,-3.2301,-3.238,-3.2857,-3.3365,-3.346,-3.3492,-3.3492,-3.3492,-3.3492,-3.3492,-3.3492,-3.3492,-3.3492,-3.3492,-3.3492,-3.3492,-3.3492,-3.3492,-3.3492,-3.3492,-3.3492,-3.3492,-3.3492,-3.3492,-3.3492,-3.3492,-3.3492,-3.3492,-3.3492,-3.3492,-3.3492,-3.3492,-3.3492,-3.364,-3.3804,-3.4458,-3.4946,-3.5433,-3.6724,-3.7525,-3.7685,-3.8322,-3.864,-3.864,-3.864,-3.8322,-2.069,-2.1003,-2.0919,-1.8831,-1.9087,-1.9369,-1.7642,-1.8698,-2.0146,-2.0639,-2.1502,-2.2421,-2.2843,-2.1601,-2.0494,-2.0302,-1.8991,0.0,0.0,-1.8844,-1.9414,-2.0854,-2.1228,-2.1683,-2.2364,-2.0743,-2.0854,-2.3851,-2.3215,-2.4024,-2.6956,-2.7534,-2.7725,-2.7725,-2.7741,-2.79,-2.8201,-2.7915,-2.8106,-2.8773,-2.8773,-2.8964,-2.9314,-2.9663,-2.9997,-3.033,-3.0696,-3.1061,-3.1395,-3.1395,-3.1395,-3.1395,-3.1395,-3.1395,-3.13,-3.0585,-3.033,-3.033,-3.0315,-3.0775,-3.1379,-3.1379,-3.1395,-3.1395,-3.1395,-3.1649,-3.1999,-3.2316,-3.2682,-3.3047,-3.3397,-3.3492,-3.3492,-3.3492,-3.3492,-3.3492,-3.3492,-3.3492,-3.3492,-3.3492,-3.3492,-3.3492,-3.3492,-3.3492,-3.3492,-3.3492,-3.3492,-3.3492,-3.3492,-3.3492,-3.3492,-3.3492,-3.3492,-3.3492,-3.3492,-3.3492,-3.3492,-3.3492,-3.3492,-3.382,-3.4783,-3.4783,-3.5595,-3.7365,-3.7365,-3.7845,-3.8481,-3.864,-3.864,-3.864,-3.864,-3.864,0.0,0.0,-2.1607,-2.0014,-1.9658,-1.9374,-1.8184,-1.8564,-1.9273,-1.9679,-2.0373,-2.1028,-2.0742,-1.9996,-1.9249,-1.9041,-1.8743,-1.8311,0.0,-1.7566,-1.8331,-1.9715,-1.9747,-1.9747,-2.0072,-1.9097,-1.989,-2.3422,-2.2971,-2.3672,-2.6406,-2.7057,-2.7486,-2.7725,-2.7947,-2.8011,-2.79,-2.8011,-2.817,-2.8408,-2.8646,-2.8948,-2.9298,-2.9425,-2.979,-3.033,-3.0442,-3.0839,-3.1395,-3.1395,-3.1395,-3.1395,-3.1395,-3.1395,-3.13,-3.0585,-3.0315,-3.0315,-3.0315,-3.0632,-3.1077,-3.1315,-3.1395,-3.1395,-3.1395,-3.1792,-3.2269,-3.238,-3.2841,-3.3333,-3.346,-3.3492,-3.3492,-3.3492,-3.3492,-3.3492,-3.3492,-3.3492,-3.3492,-3.3492,-3.3492,-3.3492,-3.3492,-3.3492,-3.3492,-3.3492,-3.3492,-3.3492,-3.3492,-3.3492,-3.3492,-3.3492,-3.3492,-3.3492,-3.3492,-3.3492,-3.3492,-3.3492,-3.3492,-3.3804,-3.4783,-3.5416,-3.6224,-3.7365,-3.7845,-3.8322,-3.864,-3.864,-3.864,-3.864,-3.864,-3.864,-2.1848,-2.2126,0.0,-2.0859,-2.0291,-1.9723,-1.8608,-1.8766,-1.9235,-1.9488,-2.001,-2.0618,-2.1008,-1.9869,-1.8782,-1.87,-1.8204,-1.7396,0.0,-1.6892,-1.7719,-1.8361,-1.887,-1.9242,-1.936,-1.8935,-1.9866,-2.2783,-2.2301,-2.303,-2.5485,-2.6374,-2.7105,-2.7709,-2.8058,-2.8122,-2.7915,-2.7995,-2.8106,-2.8233,-2.8456,-2.8821,-2.9314,-2.9552,-2.9901,-3.033,-3.0585,-3.0966,-3.1395,-3.1395,-3.1395,-3.1395,-3.1395,-3.1395,-3.13,-3.0585,-3.0315,-3.0315,-3.0315,-3.0632,-3.1093,-3.1315,-3.1395,-3.1395,-3.1395,-3.1872,-3.2412,-3.2412,-3.2936,-3.3492,-3.3492,-3.3492,-3.3492,-3.3492,-3.3492,-3.3492,-3.3492,-3.3492,-3.3492,-3.3492,-3.3492,-3.3492,-3.3492,-3.3492,-3.3492,-3.3492,-3.3492,-3.3492,-3.3492,-3.3492,-3.3492,-3.3492,-3.3492,-3.3492,-3.3492,-3.3492,-3.3492,-3.3492,-3.3804,-3.4294,-3.5271,-3.6063,-3.7028,-3.7845,-3.8322,-3.864,-3.864,-3.864,-3.864,-3.864,-3.864,-3.864]}]]